[[{"header":{"parameterUnit":"m.s-1","parameterCategory":1,"la1":31.0,"la2":29.5877,"lo1":-88.7671,"lo2":-86.6584,"dy":0.0162,"dx":0.0185,"nx":115,"ny":88,"refTime":"2023-04-03T00:00:00:Z","depth":0,"parameterNumber":2,"parameterNumberName":"U-component_of_WINDS"},"data":[0.0,0.0,0.0,0.0,0.0,0.0,0.0,0.0,0.0,0.0,0.0,0.0,0.0,0.0,0.0,0.0,0.0,0.0,0.0,0.0,0.0,0.0,0.0,0.0,0.0,0.0,0.0,0.0,0.0,0.0,0.0,0.0,0.0,0.0,0.0,0.0,0.0,0.0,0.0,0.0,0.0,0.0,0.0,0.0,0.0,0.0,0.0,0.0,0.0,0.0,0.0,0.0,0.0,0.0,0.0,0.0,0.0,0.0,0.0,0.0,0.0,0.0,0.0,0.0,0.0,0.0,0.0,0.0,0.0,0.0,0.0,0.0,0.0,0.0,0.0,0.0,0.0,0.0,0.0,0.0,0.0,0.0,0.0,0.0,0.0,0.0,0.0,0.0,0.0,0.0,0.0,0.0,0.0,0.0,0.0,0.0,0.0,0.0,0.0,0.0,0.0,0.0,0.0,0.0,0.0,0.0,0.0,0.0,0.0,0.0,0.0,0.0,0.0,0.0,0.0,0.0,0.0,0.0,0.0,0.0,0.0,0.0,0.0,0.0,0.0,0.0,0.0,0.0,0.0,0.0,0.0,0.0,0.0,0.0,0.0,0.0,0.0,0.0,0.0,0.0,0.0,0.0,0.0,0.0,0.0,0.0,0.0,0.0,0.0,0.0,0.0,0.0,0.0,0.0,0.0,0.0,0.0,0.0,0.0,0.0,0.0,0.0,0.0,0.0,0.0,0.0,0.0,0.0,0.0,0.0,0.0,0.0,0.0,0.0,0.0,0.0,0.0,0.0,0.0,0.0,0.0,0.0,0.0,0.0,0.0,0.0,0.0,0.0,0.0,0.0,0.0,0.0,0.0,0.0,0.0,0.0,0.0,0.0,0.0,0.0,0.0,0.0,0.0,0.0,0.0,0.0,0.0,0.0,0.0,0.0,0.0,0.0,0.0,0.0,0.0,0.0,0.0,0.0,0.0,0.0,0.0,0.0,0.0,0.0,0.0,0.0,0.0,0.0,0.0,0.0,0.0,0.0,0.0,0.0,0.0,0.0,0.0,0.0,0.0,0.0,0.0,0.0,0.0,0.0,0.0,0.0,0.0,0.0,0.0,0.0,0.0,0.0,0.0,0.0,0.0,0.0,0.0,0.0,0.0,0.0,0.0,0.0,0.0,0.0,0.0,0.0,0.0,0.0,0.0,0.0,0.0,0.0,0.0,0.0,0.0,0.0,0.0,0.0,0.0,0.0,0.0,0.0,0.0,0.0,0.0,0.0,0.0,0.0,0.0,0.0,0.0,0.0,0.0,0.0,0.0,0.0,0.0,0.0,0.0,0.0,0.0,0.0,0.0,0.0,0.0,0.0,0.0,0.0,0.0,0.0,0.0,0.0,0.0,0.0,0.0,0.0,0.0,0.0,0.0,0.0,0.0,0.0,0.0,0.0,0.0,0.0,0.0,0.0,0.0,0.0,0.0,0.0,0.0,0.0,0.0,0.0,0.0,0.0,0.0,0.0,0.0,0.0,0.0,0.0,0.0,0.0,0.0,0.0,0.0,0.0,0.0,0.0,0.0,0.0,0.0,0.0,0.0,0.0,0.0,0.0,0.0,0.0,0.0,0.0,0.0,0.0,0.0,0.0,0.0,0.0,0.0,0.0,0.0,0.0,0.0,0.0,0.0,0.0,0.0,0.0,0.0,0.0,0.0,0.0,0.0,0.0,0.0,0.0,0.0,0.0,0.0,0.0,0.0,0.0,0.0,0.0,0.0,0.0,0.0,0.0,0.0,0.0,0.0,0.0,0.0,0.0,0.0,0.0,0.0,0.0,0.0,0.0,0.0,0.0,0.0,0.0,0.0,0.0,0.0,0.0,0.0,0.0,0.0,0.0,0.0,0.0,0.0,0.0,0.0,0.0,0.0,0.0,0.0,0.0,0.0,0.0,0.0,0.0,0.0,0.0,0.0,0.0,0.0,0.0,0.0,0.0,0.0,0.0,0.0,0.0,0.0,0.0,0.0,0.0,0.0,0.0,0.0,0.0,0.0,0.0,0.0,0.0,0.0,0.0,0.0,0.0,0.0,0.0,0.0,0.0,0.0,0.0,0.0,0.0,0.0,0.0,0.0,0.0,0.0,0.0,0.0,0.0,0.0,0.0,0.0,0.0,0.0,0.0,0.0,0.0,0.0,0.0,0.0,0.0,0.0,0.0,0.0,0.0,0.0,0.0,0.0,0.0,0.0,0.0,0.0,0.0,0.0,0.0,0.0,0.0,0.0,0.0,0.0,0.0,0.0,0.0,0.0,0.0,0.0,0.0,0.0,0.0,0.0,0.0,0.0,0.0,0.0,0.0,0.0,0.0,0.0,0.0,0.0,0.0,0.0,0.0,0.0,0.0,0.0,0.0,0.0,0.0,0.0,0.0,0.0,0.0,0.0,0.0,0.0,0.0,0.0,0.0,0.0,0.0,0.0,0.0,0.0,0.0,0.0,0.0,0.0,0.0,0.0,0.0,0.0,0.0,0.0,0.0,0.0,0.0,0.0,0.0,0.0,0.0,0.0,0.0,0.0,0.0,0.0,0.0,0.0,0.0,0.0,0.0,0.0,0.0,0.0,0.0,0.0,0.0,0.0,0.0,0.0,0.0,0.0,0.0,0.0,0.0,0.0,0.0,0.0,0.0,0.0,0.0,0.0,0.0,0.0,0.0,0.0,0.0,0.0,0.0,0.0,0.0,0.0,0.0,0.0,0.0,0.0,0.0,0.0,0.0,0.0,0.0,0.0,0.0,0.0,0.0,0.0,0.0,0.0,0.0,0.0,0.0,0.0,0.0,0.0,0.0,0.0,0.0,0.0,0.0,0.0,0.0,0.0,0.0,0.0,0.0,0.0,0.0,0.0,0.0,0.0,0.0,0.0,0.0,0.0,0.0,0.0,0.0,0.0,0.0,0.0,0.0,0.0,0.0,0.0,0.0,0.0,0.0,0.0,0.0,0.0,0.0,0.0,0.0,0.0,0.0,0.0,0.0,0.0,0.0,0.0,0.0,0.0,0.0,0.0,0.0,0.0,0.0,0.0,0.0,0.0,0.0,0.0,0.0,0.0,0.0,0.0,0.0,0.0,0.0,0.0,0.0,0.0,0.0,0.0,0.0,0.0,0.0,0.0,0.0,0.0,0.0,0.0,0.0,0.0,0.0,0.0,0.0,0.0,0.0,0.0,0.0,0.0,0.0,0.0,0.0,0.0,0.0,0.0,0.0,0.0,0.0,0.0,0.0,0.0,0.0,0.0,0.0,0.0,0.0,0.0,0.0,0.0,0.0,0.0,0.0,0.0,0.0,0.0,0.0,0.0,0.0,0.0,0.0,0.0,0.0,0.0,0.0,0.0,0.0,0.0,0.0,0.0,0.0,0.0,0.0,0.0,0.0,0.0,0.0,0.0,0.0,0.0,0.0,0.0,0.0,0.0,0.0,0.0,0.0,0.0,0.0,0.0,0.0,0.0,0.0,0.0,0.0,0.0,0.0,0.0,0.0,0.0,0.0,0.0,0.0,0.0,0.0,0.0,0.0,0.0,0.0,0.0,0.0,0.0,0.0,0.0,0.0,0.0,0.0,0.0,0.0,0.0,0.0,0.0,0.0,0.0,0.0,0.0,0.0,0.0,0.0,0.0,0.0,0.0,0.0,0.0,0.0,0.0,0.0,0.0,0.0,0.0,0.0,0.0,0.0,0.0,0.0,0.0,0.0,0.0,0.0,0.0,0.0,0.0,0.0,0.0,0.0,0.0,0.0,0.0,0.0,0.0,0.0,0.0,0.0,0.0,0.0,0.0,0.0,0.0,0.0,0.0,0.0,0.0,0.0,0.0,0.0,0.0,0.0,0.0,0.0,0.0,0.0,0.0,0.0,0.0,0.0,0.0,0.0,0.0,0.0,0.0,0.0,0.0,0.0,0.0,0.0,0.0,0.0,0.0,0.0,0.0,0.0,0.0,0.0,0.0,0.0,0.0,0.0,0.0,0.0,0.0,0.0,0.0,0.0,0.0,0.0,0.0,0.0,0.0,0.0,0.0,0.0,0.0,0.0,0.0,0.0,0.0,0.0,0.0,0.0,0.0,0.0,0.0,0.0,0.0,0.0,0.0,0.0,0.0,0.0,0.0,0.0,0.0,0.0,0.0,0.0,0.0,0.0,0.0,0.0,0.0,0.0,0.0,0.0,0.0,0.0,0.0,0.0,0.0,0.0,0.0,0.0,0.0,0.0,0.0,0.0,0.0,0.0,0.0,0.0,0.0,0.0,-7.0574,0.0,0.0,0.0,0.0,0.0,0.0,0.0,0.0,0.0,0.0,0.0,0.0,0.0,0.0,0.0,0.0,0.0,0.0,0.0,0.0,0.0,0.0,0.0,0.0,0.0,0.0,0.0,0.0,0.0,0.0,0.0,0.0,0.0,0.0,0.0,0.0,0.0,0.0,0.0,0.0,0.0,0.0,0.0,0.0,0.0,0.0,0.0,0.0,0.0,0.0,0.0,0.0,0.0,0.0,0.0,0.0,0.0,0.0,0.0,0.0,0.0,0.0,0.0,0.0,0.0,0.0,0.0,0.0,0.0,0.0,0.0,0.0,0.0,0.0,0.0,0.0,0.0,0.0,0.0,0.0,0.0,0.0,0.0,0.0,0.0,0.0,0.0,0.0,0.0,0.0,0.0,0.0,0.0,0.0,0.0,0.0,0.0,0.0,0.0,0.0,0.0,0.0,0.0,0.0,0.0,0.0,0.0,0.0,0.0,0.0,-7.3412,-7.1911,-7.2775,-7.2268,-7.006,0.0,0.0,0.0,0.0,0.0,0.0,0.0,0.0,0.0,0.0,0.0,0.0,0.0,0.0,0.0,0.0,0.0,0.0,0.0,0.0,0.0,0.0,0.0,0.0,0.0,0.0,0.0,0.0,0.0,0.0,0.0,0.0,0.0,0.0,0.0,0.0,0.0,0.0,0.0,0.0,0.0,0.0,0.0,0.0,0.0,0.0,0.0,0.0,0.0,0.0,0.0,0.0,0.0,0.0,0.0,0.0,0.0,0.0,0.0,0.0,0.0,0.0,0.0,0.0,0.0,0.0,0.0,0.0,0.0,0.0,0.0,0.0,0.0,0.0,0.0,0.0,0.0,0.0,0.0,0.0,0.0,0.0,0.0,0.0,0.0,0.0,0.0,0.0,0.0,0.0,0.0,0.0,0.0,0.0,0.0,0.0,0.0,0.0,0.0,0.0,0.0,0.0,0.0,0.0,0.0,0.0,0.0,0.0,0.0,0.0,0.0,0.0,-7.3142,-7.2333,-6.9779,0.0,0.0,0.0,0.0,0.0,0.0,0.0,0.0,0.0,0.0,0.0,0.0,0.0,0.0,0.0,0.0,0.0,0.0,0.0,0.0,0.0,0.0,0.0,0.0,0.0,0.0,0.0,0.0,0.0,0.0,0.0,0.0,0.0,0.0,0.0,0.0,0.0,0.0,0.0,0.0,0.0,0.0,0.0,0.0,0.0,0.0,0.0,0.0,0.0,0.0,0.0,0.0,0.0,0.0,0.0,0.0,0.0,0.0,0.0,0.0,0.0,0.0,0.0,0.0,0.0,0.0,0.0,0.0,0.0,0.0,0.0,0.0,0.0,0.0,0.0,0.0,0.0,0.0,0.0,0.0,0.0,0.0,0.0,0.0,0.0,0.0,0.0,0.0,0.0,0.0,0.0,0.0,0.0,0.0,0.0,0.0,0.0,0.0,0.0,0.0,0.0,0.0,0.0,0.0,0.0,0.0,0.0,0.0,0.0,0.0,-7.3212,-7.4055,-7.4171,0.0,-7.0672,0.0,0.0,0.0,0.0,0.0,0.0,0.0,0.0,0.0,0.0,0.0,0.0,0.0,0.0,0.0,0.0,0.0,0.0,0.0,0.0,0.0,0.0,0.0,0.0,0.0,0.0,0.0,0.0,0.0,0.0,0.0,0.0,0.0,0.0,0.0,0.0,0.0,0.0,0.0,0.0,0.0,0.0,0.0,0.0,0.0,0.0,0.0,0.0,0.0,0.0,0.0,0.0,0.0,0.0,0.0,0.0,0.0,0.0,0.0,0.0,0.0,0.0,0.0,0.0,0.0,0.0,0.0,0.0,0.0,0.0,0.0,0.0,0.0,0.0,0.0,0.0,0.0,0.0,0.0,0.0,0.0,0.0,0.0,0.0,0.0,0.0,0.0,0.0,0.0,0.0,0.0,0.0,0.0,0.0,0.0,0.0,0.0,0.0,0.0,0.0,0.0,0.0,0.0,0.0,0.0,0.0,0.0,0.0,0.0,0.0,-7.2366,-7.3337,-7.2516,-7.1183,0.0,0.0,0.0,0.0,0.0,0.0,0.0,0.0,0.0,0.0,0.0,0.0,0.0,0.0,0.0,0.0,0.0,0.0,0.0,0.0,0.0,0.0,0.0,0.0,0.0,0.0,0.0,0.0,0.0,0.0,0.0,0.0,0.0,0.0,0.0,0.0,0.0,0.0,0.0,0.0,0.0,0.0,0.0,0.0,0.0,0.0,0.0,0.0,0.0,0.0,0.0,0.0,0.0,0.0,0.0,0.0,0.0,0.0,0.0,0.0,0.0,0.0,0.0,0.0,0.0,0.0,0.0,0.0,0.0,0.0,0.0,0.0,0.0,0.0,0.0,0.0,0.0,0.0,0.0,0.0,0.0,0.0,0.0,0.0,0.0,0.0,0.0,0.0,0.0,0.0,0.0,0.0,0.0,0.0,0.0,0.0,0.0,0.0,0.0,0.0,0.0,0.0,0.0,0.0,0.0,0.0,0.0,0.0,0.0,0.0,-7.2105,-7.2422,-7.3267,-7.1284,-6.9727,-6.8791,0.0,0.0,0.0,0.0,0.0,0.0,0.0,0.0,0.0,0.0,0.0,0.0,0.0,0.0,0.0,0.0,0.0,0.0,0.0,0.0,0.0,0.0,0.0,0.0,0.0,0.0,0.0,0.0,0.0,0.0,0.0,0.0,0.0,0.0,0.0,0.0,0.0,0.0,0.0,0.0,0.0,0.0,0.0,0.0,0.0,0.0,0.0,0.0,0.0,0.0,0.0,0.0,0.0,0.0,0.0,0.0,0.0,0.0,0.0,0.0,0.0,0.0,0.0,0.0,0.0,0.0,0.0,0.0,0.0,0.0,0.0,0.0,0.0,0.0,0.0,0.0,0.0,0.0,0.0,0.0,0.0,0.0,0.0,0.0,0.0,0.0,0.0,0.0,0.0,0.0,0.0,0.0,0.0,0.0,0.0,0.0,0.0,0.0,0.0,0.0,0.0,0.0,0.0,0.0,0.0,0.0,0.0,0.0,-7.5476,-7.4294,-7.411,-7.5019,-7.136,-6.9644,0.0,0.0,0.0,0.0,0.0,0.0,0.0,0.0,0.0,0.0,0.0,0.0,0.0,0.0,0.0,0.0,0.0,0.0,0.0,0.0,0.0,0.0,0.0,0.0,0.0,0.0,0.0,0.0,0.0,0.0,0.0,0.0,0.0,0.0,0.0,0.0,0.0,0.0,0.0,0.0,0.0,0.0,0.0,0.0,0.0,0.0,0.0,0.0,0.0,0.0,0.0,0.0,0.0,0.0,0.0,0.0,0.0,0.0,0.0,0.0,0.0,0.0,0.0,0.0,0.0,0.0,0.0,0.0,0.0,0.0,0.0,0.0,0.0,0.0,0.0,0.0,0.0,0.0,0.0,0.0,0.0,0.0,0.0,0.0,0.0,0.0,0.0,0.0,0.0,0.0,0.0,0.0,0.0,0.0,0.0,0.0,0.0,0.0,0.0,0.0,0.0,0.0,0.0,0.0,0.0,0.0,0.0,0.0,0.0,-7.2539,-7.2777,-7.2595,-7.203,-7.0672,-6.9571,0.0,0.0,0.0,0.0,0.0,0.0,0.0,0.0,0.0,0.0,0.0,0.0,0.0,0.0,0.0,0.0,0.0,0.0,0.0,0.0,0.0,0.0,0.0,0.0,0.0,0.0,0.0,0.0,0.0,0.0,0.0,0.0,0.0,0.0,0.0,0.0,0.0,0.0,0.0,0.0,0.0,0.0,0.0,0.0,0.0,0.0,0.0,0.0,0.0,0.0,0.0,0.0,0.0,0.0,0.0,0.0,0.0,0.0,0.0,0.0,0.0,0.0,0.0,0.0,0.0,0.0,0.0,0.0,0.0,0.0,0.0,0.0,0.0,0.0,0.0,0.0,0.0,0.0,0.0,0.0,0.0,0.0,0.0,0.0,0.0,0.0,0.0,0.0,0.0,0.0,0.0,0.0,0.0,0.0,0.0,0.0,0.0,0.0,0.0,0.0,0.0,0.0,0.0,0.0,0.0,0.0,0.0,0.0,0.0,-7.118,0.0,-7.1931,-7.1038,-7.0269,-6.9374,0.0,0.0,0.0,0.0,0.0,0.0,0.0,0.0,0.0,0.0,0.0,0.0,0.0,0.0,0.0,0.0,0.0,0.0,0.0,0.0,0.0,0.0,0.0,0.0,0.0,0.0,0.0,0.0,0.0,0.0,0.0,0.0,0.0,0.0,0.0,0.0,0.0,0.0,0.0,0.0,0.0,0.0,0.0,0.0,0.0,0.0,0.0,0.0,0.0,0.0,0.0,0.0,0.0,0.0,0.0,0.0,0.0,0.0,0.0,0.0,0.0,0.0,0.0,0.0,0.0,0.0,0.0,0.0,0.0,0.0,0.0,0.0,0.0,0.0,0.0,0.0,0.0,0.0,0.0,0.0,0.0,0.0,0.0,0.0,0.0,0.0,0.0,0.0,0.0,0.0,0.0,0.0,0.0,0.0,0.0,0.0,0.0,0.0,0.0,0.0,0.0,0.0,0.0,0.0,0.0,0.0,0.0,0.0,-7.1076,-7.2129,-7.2264,-7.2387,-7.2528,-7.0266,-6.9055,0.0,0.0,0.0,0.0,0.0,0.0,0.0,0.0,0.0,0.0,0.0,0.0,0.0,0.0,0.0,0.0,0.0,0.0,0.0,0.0,0.0,0.0,0.0,0.0,0.0,0.0,0.0,0.0,0.0,0.0,0.0,0.0,0.0,0.0,0.0,0.0,0.0,0.0,0.0,0.0,0.0,0.0,0.0,0.0,0.0,0.0,0.0,0.0,0.0,0.0,0.0,0.0,0.0,0.0,0.0,0.0,0.0,0.0,0.0,0.0,0.0,0.0,0.0,0.0,0.0,0.0,0.0,0.0,0.0,0.0,0.0,0.0,0.0,0.0,0.0,0.0,0.0,0.0,0.0,0.0,0.0,0.0,0.0,0.0,0.0,0.0,0.0,0.0,0.0,0.0,0.0,0.0,0.0,0.0,0.0,0.0,0.0,0.0,0.0,0.0,0.0,0.0,0.0,0.0,0.0,0.0,0.0,0.0,0.0,-7.1199,-7.135,-7.2032,-7.3191,-7.0496,-6.9494,0.0,0.0,0.0,0.0,0.0,0.0,0.0,0.0,0.0,0.0,0.0,0.0,0.0,0.0,0.0,0.0,0.0,0.0,0.0,0.0,0.0,0.0,0.0,0.0,0.0,0.0,0.0,0.0,0.0,0.0,0.0,0.0,0.0,0.0,0.0,0.0,0.0,0.0,0.0,0.0,0.0,0.0,0.0,0.0,0.0,0.0,0.0,0.0,0.0,0.0,0.0,0.0,0.0,0.0,0.0,0.0,0.0,0.0,0.0,0.0,0.0,0.0,0.0,0.0,0.0,0.0,0.0,0.0,0.0,0.0,0.0,0.0,0.0,0.0,0.0,0.0,0.0,0.0,0.0,0.0,0.0,0.0,0.0,0.0,0.0,0.0,0.0,0.0,0.0,0.0,0.0,0.0,0.0,0.0,0.0,0.0,0.0,0.0,0.0,0.0,0.0,0.0,0.0,0.0,0.0,0.0,0.0,0.0,0.0,-7.0984,-7.0944,-7.1673,-7.3176,-7.0356,-6.9363,-7.036,0.0,0.0,0.0,0.0,0.0,0.0,0.0,0.0,0.0,0.0,0.0,0.0,0.0,0.0,0.0,0.0,0.0,0.0,0.0,0.0,0.0,0.0,0.0,0.0,0.0,0.0,0.0,0.0,0.0,0.0,0.0,0.0,0.0,0.0,0.0,0.0,0.0,0.0,0.0,0.0,0.0,0.0,0.0,0.0,0.0,0.0,0.0,0.0,0.0,0.0,0.0,0.0,0.0,0.0,0.0,0.0,0.0,0.0,0.0,0.0,0.0,0.0,0.0,0.0,0.0,0.0,0.0,0.0,0.0,0.0,0.0,0.0,0.0,0.0,0.0,0.0,0.0,0.0,0.0,0.0,0.0,0.0,0.0,0.0,0.0,0.0,0.0,0.0,0.0,0.0,0.0,0.0,0.0,0.0,0.0,0.0,0.0,0.0,0.0,0.0,0.0,0.0,0.0,0.0,0.0,0.0,0.0,0.0,-7.1365,-7.1122,-7.1475,-7.243,-7.0153,-6.8898,0.0,0.0,0.0,0.0,0.0,0.0,0.0,0.0,0.0,0.0,0.0,0.0,0.0,0.0,0.0,0.0,0.0,0.0,0.0,0.0,0.0,0.0,0.0,0.0,0.0,0.0,0.0,0.0,0.0,0.0,0.0,0.0,0.0,0.0,0.0,0.0,0.0,0.0,0.0,0.0,0.0,0.0,0.0,0.0,0.0,0.0,0.0,0.0,0.0,0.0,0.0,0.0,0.0,0.0,0.0,0.0,0.0,0.0,0.0,0.0,0.0,0.0,0.0,0.0,0.0,0.0,0.0,0.0,0.0,0.0,0.0,0.0,0.0,0.0,0.0,0.0,0.0,0.0,0.0,0.0,0.0,0.0,0.0,0.0,0.0,0.0,0.0,0.0,0.0,0.0,0.0,0.0,0.0,0.0,0.0,0.0,0.0,0.0,0.0,0.0,0.0,0.0,0.0,0.0,0.0,0.0,0.0,0.0,0.0,-7.211,-7.2157,-7.2783,-7.3927,-7.112,-6.9865,0.0,0.0,0.0,0.0,0.0,0.0,0.0,0.0,0.0,0.0,0.0,0.0,0.0,0.0,0.0,0.0,0.0,0.0,0.0,0.0,0.0,0.0,0.0,0.0,0.0,0.0,0.0,0.0,0.0,0.0,0.0,0.0,0.0,0.0,0.0,0.0,0.0,0.0,0.0,0.0,0.0,0.0,0.0,0.0,0.0,0.0,0.0,0.0,0.0,0.0,0.0,0.0,0.0,0.0,0.0,0.0,0.0,0.0,0.0,0.0,0.0,0.0,0.0,0.0,0.0,0.0,0.0,0.0,0.0,0.0,0.0,0.0,0.0,0.0,0.0,0.0,0.0,0.0,0.0,0.0,0.0,0.0,0.0,0.0,0.0,0.0,0.0,0.0,0.0,0.0,0.0,0.0,0.0,0.0,0.0,0.0,0.0,0.0,0.0,0.0,0.0,0.0,0.0,0.0,0.0,0.0,0.0,0.0,-7.0423,-7.2058,-7.2698,-7.3435,-7.4325,-7.2063,-7.0709,0.0,0.0,0.0,0.0,0.0,0.0,0.0,0.0,0.0,0.0,0.0,0.0,0.0,0.0,0.0,0.0,0.0,0.0,0.0,0.0,0.0,0.0,0.0,0.0,0.0,0.0,0.0,0.0,0.0,0.0,0.0,0.0,0.0,0.0,0.0,0.0,0.0,0.0,0.0,0.0,0.0,0.0,0.0,0.0,0.0,0.0,0.0,0.0,0.0,0.0,0.0,0.0,0.0,0.0,0.0,0.0,0.0,0.0,0.0,0.0,0.0,0.0,0.0,0.0,0.0,0.0,0.0,0.0,0.0,0.0,0.0,0.0,0.0,0.0,0.0,0.0,0.0,0.0,0.0,0.0,0.0,0.0,0.0,0.0,0.0,0.0,0.0,0.0,0.0,0.0,0.0,0.0,0.0,0.0,0.0,0.0,0.0,0.0,0.0,0.0,0.0,0.0,0.0,0.0,0.0,0.0,0.0,0.0,-7.035,-7.1462,-7.2822,-7.3646,-7.3839,-7.2792,-7.1398,0.0,0.0,0.0,0.0,0.0,0.0,0.0,0.0,0.0,0.0,0.0,0.0,0.0,0.0,0.0,0.0,0.0,0.0,0.0,0.0,0.0,0.0,0.0,0.0,0.0,0.0,0.0,0.0,0.0,0.0,0.0,0.0,0.0,0.0,0.0,0.0,0.0,0.0,0.0,0.0,0.0,0.0,0.0,0.0,0.0,0.0,0.0,0.0,0.0,0.0,0.0,0.0,0.0,0.0,0.0,0.0,0.0,0.0,0.0,0.0,0.0,0.0,0.0,0.0,0.0,0.0,0.0,0.0,0.0,0.0,0.0,0.0,0.0,0.0,0.0,0.0,0.0,0.0,0.0,0.0,0.0,0.0,0.0,0.0,0.0,0.0,0.0,0.0,0.0,0.0,0.0,0.0,0.0,0.0,0.0,0.0,0.0,0.0,0.0,0.0,0.0,0.0,0.0,0.0,0.0,0.0,0.0,0.0,-6.8924,-7.1271,-7.2341,-7.3452,-7.4556,-7.2813,-7.1145,0.0,0.0,0.0,0.0,0.0,0.0,0.0,0.0,0.0,0.0,0.0,0.0,0.0,0.0,0.0,0.0,0.0,0.0,0.0,0.0,0.0,0.0,0.0,0.0,0.0,0.0,0.0,0.0,0.0,0.0,0.0,0.0,0.0,0.0,0.0,0.0,0.0,0.0,0.0,0.0,0.0,0.0,0.0,0.0,0.0,0.0,0.0,0.0,-6.6808,0.0,0.0,0.0,0.0,0.0,0.0,0.0,0.0,0.0,0.0,0.0,0.0,0.0,0.0,0.0,0.0,0.0,0.0,0.0,0.0,0.0,0.0,0.0,0.0,0.0,0.0,0.0,0.0,0.0,0.0,0.0,0.0,0.0,0.0,0.0,0.0,0.0,0.0,0.0,0.0,0.0,0.0,0.0,0.0,0.0,0.0,0.0,0.0,0.0,0.0,0.0,0.0,0.0,0.0,0.0,0.0,0.0,0.0,0.0,-6.8049,-7.0375,-7.1427,-7.2557,-7.37,-7.3002,-7.1905,0.0,0.0,0.0,0.0,0.0,0.0,0.0,0.0,0.0,0.0,0.0,0.0,0.0,0.0,0.0,0.0,0.0,0.0,0.0,0.0,0.0,0.0,0.0,0.0,0.0,0.0,0.0,0.0,0.0,0.0,0.0,0.0,0.0,0.0,0.0,0.0,0.0,0.0,0.0,0.0,0.0,0.0,0.0,0.0,0.0,0.0,0.0,0.0,0.0,0.0,0.0,0.0,0.0,0.0,0.0,0.0,0.0,0.0,0.0,0.0,0.0,0.0,0.0,0.0,0.0,0.0,0.0,0.0,0.0,0.0,0.0,0.0,0.0,0.0,0.0,0.0,0.0,0.0,0.0,0.0,0.0,0.0,0.0,0.0,0.0,0.0,0.0,0.0,0.0,0.0,0.0,0.0,0.0,0.0,0.0,0.0,0.0,0.0,0.0,0.0,0.0,0.0,0.0,0.0,0.0,0.0,0.0,-6.6158,-6.7451,-6.9344,-7.0301,-7.1354,-7.2426,-7.2874,-7.2599,-7.1547,0.0,0.0,0.0,0.0,0.0,0.0,0.0,0.0,0.0,0.0,0.0,0.0,0.0,0.0,0.0,0.0,0.0,0.0,0.0,0.0,0.0,0.0,0.0,0.0,0.0,0.0,0.0,0.0,0.0,0.0,0.0,0.0,0.0,0.0,0.0,0.0,0.0,0.0,-6.5053,-6.5313,0.0,0.0,0.0,0.0,0.0,0.0,0.0,0.0,-6.5444,0.0,0.0,0.0,0.0,0.0,0.0,0.0,0.0,0.0,0.0,0.0,0.0,0.0,0.0,0.0,0.0,0.0,0.0,0.0,0.0,0.0,0.0,0.0,0.0,0.0,0.0,0.0,0.0,0.0,0.0,0.0,0.0,0.0,0.0,0.0,0.0,0.0,0.0,0.0,0.0,0.0,0.0,0.0,0.0,0.0,0.0,0.0,0.0,0.0,0.0,0.0,0.0,0.0,0.0,0.0,0.0,-6.5087,-6.5338,-6.6628,-6.8924,-6.9373,-7.0151,-7.1279,-7.1546,-7.1359,-7.0825,0.0,0.0,0.0,0.0,0.0,0.0,0.0,0.0,0.0,0.0,0.0,0.0,0.0,0.0,0.0,0.0,0.0,0.0,0.0,0.0,0.0,0.0,0.0,0.0,0.0,0.0,0.0,0.0,0.0,0.0,0.0,0.0,0.0,0.0,0.0,0.0,0.0,0.0,0.0,-6.5918,-6.6238,0.0,0.0,0.0,0.0,0.0,0.0,0.0,0.0,-6.5038,0.0,0.0,0.0,0.0,0.0,0.0,0.0,0.0,0.0,0.0,0.0,0.0,0.0,0.0,0.0,0.0,0.0,0.0,0.0,0.0,0.0,0.0,0.0,0.0,0.0,0.0,0.0,0.0,0.0,0.0,0.0,0.0,0.0,0.0,0.0,0.0,0.0,0.0,0.0,0.0,0.0,0.0,0.0,0.0,0.0,0.0,0.0,0.0,0.0,0.0,0.0,0.0,0.0,0.0,0.0,-6.4981,-6.5421,-6.6435,-6.8055,-6.8372,-6.9004,-7.0114,-7.076,-7.0877,0.0,0.0,0.0,0.0,0.0,0.0,0.0,0.0,0.0,0.0,0.0,0.0,0.0,0.0,0.0,0.0,0.0,0.0,0.0,0.0,0.0,0.0,0.0,0.0,0.0,0.0,0.0,0.0,0.0,0.0,0.0,0.0,0.0,0.0,0.0,0.0,0.0,0.0,0.0,0.0,-6.5551,-6.552,-6.6044,0.0,0.0,0.0,0.0,0.0,0.0,-6.4198,-6.4168,0.0,0.0,0.0,0.0,0.0,0.0,0.0,0.0,0.0,0.0,0.0,0.0,0.0,0.0,0.0,0.0,0.0,0.0,0.0,0.0,0.0,0.0,0.0,0.0,0.0,0.0,0.0,0.0,0.0,0.0,0.0,0.0,0.0,0.0,0.0,0.0,0.0,0.0,0.0,0.0,0.0,0.0,0.0,0.0,0.0,0.0,0.0,0.0,0.0,0.0,0.0,0.0,0.0,0.0,0.0,-6.4965,-6.5305,-6.5998,-6.7021,-6.7112,-6.762,-6.8631,-6.9728,-7.0091,0.0,0.0,0.0,0.0,0.0,0.0,0.0,0.0,0.0,0.0,0.0,0.0,0.0,0.0,0.0,0.0,0.0,0.0,0.0,0.0,0.0,0.0,0.0,0.0,0.0,0.0,0.0,0.0,0.0,0.0,0.0,0.0,0.0,0.0,0.0,0.0,0.0,0.0,0.0,0.0,0.0,-6.4967,-6.5175,-6.4257,0.0,0.0,0.0,0.0,-6.2167,-6.3385,0.0,0.0,0.0,0.0,0.0,0.0,0.0,0.0,0.0,0.0,0.0,0.0,0.0,0.0,0.0,0.0,0.0,0.0,0.0,0.0,0.0,0.0,0.0,0.0,0.0,0.0,0.0,0.0,0.0,0.0,0.0,0.0,0.0,0.0,0.0,0.0,0.0,0.0,0.0,0.0,0.0,0.0,0.0,0.0,0.0,0.0,0.0,0.0,0.0,0.0,0.0,0.0,0.0,0.0,0.0,0.0,-6.4758,-6.4075,-6.443,-6.584,-6.5423,-6.5586,-6.6526,-6.7652,-6.8214,0.0,0.0,0.0,0.0,0.0,0.0,0.0,0.0,0.0,0.0,0.0,0.0,0.0,0.0,0.0,0.0,0.0,0.0,0.0,0.0,0.0,0.0,0.0,0.0,0.0,0.0,0.0,0.0,0.0,0.0,0.0,0.0,0.0,0.0,0.0,0.0,0.0,0.0,0.0,0.0,0.0,-6.5679,-6.3603,-6.3258,-6.3181,0.0,0.0,-6.2746,-6.4044,-6.4592,0.0,0.0,0.0,0.0,0.0,0.0,0.0,0.0,0.0,0.0,0.0,0.0,0.0,0.0,0.0,0.0,0.0,0.0,0.0,0.0,0.0,0.0,0.0,0.0,0.0,0.0,0.0,0.0,0.0,0.0,0.0,0.0,0.0,0.0,0.0,0.0,0.0,0.0,0.0,0.0,0.0,0.0,0.0,0.0,0.0,0.0,0.0,0.0,0.0,0.0,0.0,0.0,0.0,0.0,0.0,-6.3364,-6.3939,-6.3289,-6.3423,-6.457,-6.4476,-6.4855,-6.5795,-6.6912,-6.7623,0.0,0.0,0.0,0.0,0.0,0.0,0.0,0.0,0.0,0.0,0.0,0.0,0.0,0.0,0.0,0.0,0.0,0.0,0.0,0.0,0.0,0.0,0.0,0.0,0.0,0.0,0.0,0.0,0.0,0.0,0.0,0.0,0.0,0.0,0.0,0.0,0.0,0.0,0.0,0.0,0.0,0.0,-6.2863,-6.278,0.0,0.0,0.0,-6.2609,-6.2866,0.0,0.0,0.0,0.0,0.0,0.0,0.0,0.0,0.0,0.0,0.0,0.0,0.0,0.0,0.0,0.0,0.0,0.0,0.0,0.0,0.0,0.0,0.0,0.0,0.0,0.0,0.0,0.0,0.0,0.0,0.0,0.0,0.0,0.0,0.0,0.0,0.0,0.0,0.0,0.0,0.0,0.0,0.0,0.0,0.0,0.0,0.0,0.0,0.0,0.0,0.0,0.0,0.0,0.0,0.0,0.0,0.0,-6.3303,-6.2616,-6.2576,-6.3364,-6.3543,-6.4079,-6.4953,-6.6018,0.0,0.0,0.0,0.0,0.0,0.0,0.0,0.0,0.0,0.0,0.0,0.0,0.0,0.0,0.0,0.0,0.0,0.0,0.0,0.0,0.0,0.0,0.0,0.0,0.0,0.0,0.0,-5.9557,0.0,0.0,0.0,0.0,0.0,0.0,0.0,0.0,0.0,0.0,0.0,0.0,0.0,0.0,-6.297,-6.1844,-6.2063,-6.2126,0.0,0.0,-6.2281,-6.1671,-6.3068,-6.3367,0.0,0.0,0.0,0.0,0.0,0.0,0.0,0.0,0.0,0.0,0.0,0.0,0.0,0.0,0.0,0.0,0.0,0.0,0.0,0.0,0.0,0.0,0.0,0.0,0.0,0.0,0.0,0.0,0.0,0.0,0.0,0.0,0.0,0.0,0.0,0.0,0.0,0.0,0.0,0.0,0.0,0.0,0.0,0.0,0.0,0.0,0.0,0.0,0.0,0.0,0.0,0.0,0.0,0.0,0.0,-6.3128,-6.199,-6.1765,-6.254,-6.2391,-6.2724,-6.3541,-6.4481,-6.5478,0.0,0.0,0.0,0.0,0.0,0.0,0.0,0.0,0.0,0.0,0.0,0.0,0.0,0.0,0.0,0.0,0.0,0.0,0.0,0.0,0.0,0.0,0.0,0.0,0.0,0.0,0.0,0.0,0.0,0.0,0.0,0.0,0.0,0.0,0.0,0.0,0.0,0.0,0.0,0.0,0.0,-6.1552,-6.0003,-6.0801,-6.1572,0.0,0.0,-6.1572,-6.15,-6.3117,-6.3339,-6.0285,0.0,0.0,0.0,0.0,0.0,0.0,0.0,0.0,0.0,0.0,0.0,0.0,0.0,0.0,0.0,0.0,0.0,0.0,0.0,0.0,0.0,0.0,0.0,0.0,0.0,0.0,0.0,0.0,0.0,0.0,0.0,0.0,0.0,0.0,0.0,0.0,0.0,0.0,0.0,0.0,0.0,0.0,0.0,0.0,0.0,0.0,0.0,0.0,0.0,0.0,0.0,0.0,0.0,-6.1875,-6.2702,-6.164,-6.127,-6.1584,-6.2502,-6.2923,-6.2814,-6.391,-6.476,0.0,0.0,0.0,0.0,0.0,0.0,0.0,0.0,0.0,0.0,0.0,0.0,0.0,0.0,0.0,0.0,0.0,0.0,0.0,0.0,0.0,0.0,0.0,0.0,0.0,0.0,0.0,0.0,-5.8733,-5.8569,-5.8079,0.0,0.0,0.0,0.0,0.0,0.0,0.0,0.0,0.0,0.0,-6.0375,-5.9688,-5.9909,0.0,0.0,-6.0992,-6.1051,-6.1051,-6.199,-6.2004,-5.9825,-5.963,0.0,0.0,0.0,0.0,0.0,0.0,0.0,0.0,0.0,0.0,0.0,0.0,0.0,0.0,0.0,0.0,0.0,0.0,0.0,0.0,0.0,0.0,0.0,0.0,0.0,0.0,0.0,0.0,0.0,0.0,0.0,0.0,0.0,0.0,0.0,0.0,0.0,0.0,0.0,0.0,0.0,0.0,0.0,0.0,0.0,0.0,0.0,0.0,0.0,0.0,0.0,0.0,-6.1361,-6.1932,-6.1319,-6.0862,-6.0653,-6.2433,-6.2992,-6.2326,-6.3538,-6.4223,0.0,0.0,0.0,0.0,0.0,0.0,0.0,0.0,0.0,0.0,0.0,0.0,0.0,0.0,0.0,0.0,0.0,0.0,0.0,0.0,0.0,0.0,0.0,0.0,0.0,0.0,0.0,0.0,-5.8207,-5.774,-5.775,0.0,0.0,0.0,0.0,0.0,0.0,0.0,0.0,0.0,0.0,-5.9088,-5.8787,-5.8961,-5.9232,-5.958,-5.9805,-5.9896,-5.9896,-6.0493,-6.039,-5.8813,0.0,0.0,0.0,0.0,0.0,0.0,0.0,0.0,0.0,0.0,0.0,0.0,0.0,0.0,0.0,0.0,0.0,0.0,0.0,0.0,0.0,0.0,0.0,0.0,0.0,0.0,0.0,0.0,0.0,0.0,-6.7182,0.0,0.0,0.0,0.0,0.0,0.0,0.0,0.0,0.0,0.0,0.0,0.0,0.0,0.0,0.0,0.0,0.0,0.0,0.0,0.0,0.0,0.0,-6.0818,-6.0854,-6.0944,-6.0653,-5.9988,-6.1916,-6.2649,-6.2022,-6.3415,-6.3974,-6.3511,0.0,0.0,0.0,0.0,0.0,0.0,0.0,0.0,0.0,0.0,0.0,0.0,0.0,0.0,0.0,0.0,0.0,0.0,0.0,0.0,0.0,0.0,0.0,0.0,0.0,0.0,-6.0346,-5.8137,-5.6922,0.0,0.0,0.0,0.0,0.0,0.0,0.0,0.0,0.0,0.0,-5.7246,-5.7535,-5.6981,-5.7934,-5.845,-5.7817,-5.7802,-5.7895,-5.7895,-5.8642,-5.8698,0.0,0.0,0.0,0.0,0.0,0.0,0.0,0.0,0.0,0.0,0.0,0.0,0.0,0.0,0.0,0.0,0.0,0.0,0.0,0.0,0.0,0.0,0.0,0.0,0.0,0.0,0.0,-6.6339,-6.6433,0.0,0.0,0.0,0.0,0.0,0.0,0.0,0.0,0.0,0.0,0.0,-6.2018,-6.1641,0.0,0.0,0.0,0.0,0.0,0.0,0.0,0.0,0.0,0.0,0.0,0.0,-6.0659,-6.1544,-6.0873,-6.0843,-6.1571,-6.2297,-6.2574,-6.2331,-6.2889,-6.2718,-6.167,0.0,0.0,0.0,0.0,0.0,0.0,0.0,0.0,0.0,0.0,0.0,0.0,0.0,0.0,0.0,0.0,0.0,0.0,0.0,0.0,0.0,0.0,0.0,0.0,0.0,-6.0212,0.0,0.0,0.0,0.0,0.0,0.0,0.0,0.0,0.0,0.0,0.0,-5.6142,-5.6551,-5.6545,-5.6624,-5.6899,-5.7196,-5.7344,0.0,0.0,0.0,0.0,0.0,0.0,0.0,0.0,0.0,0.0,0.0,0.0,0.0,0.0,-5.9038,-5.7185,-5.689,-5.6822,-5.6684,0.0,0.0,0.0,0.0,0.0,0.0,0.0,0.0,0.0,0.0,0.0,0.0,0.0,0.0,-6.5305,0.0,-6.5568,0.0,0.0,0.0,0.0,0.0,0.0,0.0,0.0,-6.2331,-6.1634,-6.0874,-6.0516,-6.017,0.0,-5.9805,-6.0012,0.0,0.0,0.0,0.0,0.0,0.0,0.0,0.0,-6.0311,-6.1395,-6.0566,-6.07,-6.1832,-6.2142,-6.2314,-6.2279,-6.2318,-6.1912,-6.0912,-6.0385,-6.0401,0.0,0.0,0.0,0.0,0.0,0.0,0.0,0.0,0.0,0.0,0.0,0.0,0.0,0.0,0.0,0.0,0.0,0.0,0.0,0.0,0.0,0.0,0.0,-5.9237,0.0,0.0,0.0,0.0,0.0,0.0,0.0,0.0,0.0,-5.5801,-5.57,-5.5707,-5.6019,-5.5904,-5.5929,-5.62,0.0,0.0,0.0,0.0,0.0,0.0,0.0,-5.6353,-5.6353,-5.6024,-5.5869,-5.6109,-5.6891,-5.7289,-5.6617,0.0,0.0,-5.645,-5.63,-5.6233,-5.6059,-5.5905,-5.5901,-5.6126,-5.5095,-5.4154,0.0,0.0,0.0,0.0,0.0,0.0,0.0,0.0,-6.4791,-6.5112,0.0,-6.5074,0.0,0.0,0.0,0.0,0.0,-6.2478,0.0,0.0,-6.1121,-6.0333,-5.9684,-5.9684,-5.965,-5.9581,-5.89,-5.9276,-6.0579,-6.0381,0.0,0.0,0.0,0.0,0.0,0.0,-5.9834,-6.0324,-6.0011,-6.0105,-6.0745,-6.1462,-6.1872,-6.1872,-6.1838,-6.1647,-6.1288,-6.053,-6.008,-6.0113,-6.0231,0.0,0.0,0.0,0.0,0.0,0.0,0.0,0.0,0.0,0.0,0.0,0.0,0.0,0.0,0.0,0.0,0.0,0.0,0.0,0.0,-5.9398,0.0,0.0,0.0,0.0,0.0,0.0,0.0,0.0,0.0,0.0,-5.5238,-5.5373,-5.5319,-5.5022,0.0,0.0,0.0,0.0,-5.5611,-5.4918,-5.4904,-5.4996,-5.4996,-5.5463,-5.5854,-5.5854,0.0,0.0,-5.4701,-5.4439,-5.4411,-5.4242,-5.4443,-5.4817,-5.6552,-5.6821,-5.6758,-5.6304,-5.5864,-5.5706,-5.578,-5.5087,-5.4317,-6.5956,0.0,0.0,0.0,0.0,-6.397,-6.3935,-6.3726,-6.3826,-6.3858,-6.3823,-6.3377,0.0,0.0,0.0,0.0,0.0,0.0,-6.1872,-6.1767,-6.1484,-6.0932,-6.0217,-6.0612,-6.0502,-5.9963,-5.9361,-5.9298,-5.9638,-5.9252,-5.953,-6.0493,0.0,0.0,0.0,0.0,-5.9149,-5.9765,-5.9213,-5.9518,-6.0747,-6.095,-6.1565,-6.2624,-6.2112,-6.15,-6.0891,-6.0281,-6.0012,-6.015,-5.9931,0.0,0.0,0.0,0.0,0.0,0.0,0.0,0.0,0.0,0.0,0.0,0.0,0.0,0.0,0.0,0.0,0.0,0.0,0.0,-5.8003,-5.7292,-5.683,0.0,0.0,0.0,0.0,0.0,0.0,0.0,0.0,0.0,-5.4551,-5.4807,-5.49,0.0,0.0,-5.477,-5.4592,-5.4765,-5.4834,-5.4626,-5.4589,0.0,0.0,-5.4796,-5.4903,-5.4903,-5.5223,-5.5369,-5.5197,-5.5444,-5.5515,-5.4935,-5.4965,-5.5096,-5.4987,-5.5136,-5.5181,-5.5057,-5.4915,-5.4957,-5.5284,-5.4717,-5.4208,-6.5773,-6.4404,-6.4071,-6.352,-6.293,-6.3314,-6.3245,-6.2893,-6.309,-6.3189,-6.3189,-6.279,-6.2647,-6.2522,-6.223,0.0,0.0,0.0,-6.1647,-6.1575,-6.1193,-6.0744,-6.0299,-6.0355,-6.0148,-5.9641,-5.9041,-5.901,-5.9587,-5.8987,-5.9298,-6.0387,0.0,0.0,-5.9139,-5.8729,-5.883,-5.9407,-5.8759,-5.9064,-6.0455,-6.0796,-6.1371,-6.2293,-6.2119,-6.1715,-6.104,-6.0435,-6.0069,-5.9939,-5.9426,-5.9492,0.0,0.0,0.0,0.0,0.0,0.0,0.0,0.0,0.0,0.0,0.0,-5.9757,-6.0134,0.0,0.0,0.0,-5.7907,-5.7274,-5.6751,-5.6264,0.0,0.0,0.0,0.0,0.0,0.0,0.0,-5.4049,-5.4015,-5.392,-5.3729,-5.4164,-5.4465,-5.4367,-5.4367,-5.4399,-5.4497,0.0,-5.4494,-5.4494,-5.4494,-5.4494,-5.4494,-5.4494,-5.4463,-5.4399,-5.4957,-5.5202,-5.4897,-5.5107,-5.5109,-5.47,-5.4697,-5.4658,-5.4114,-5.4271,-5.4463,-5.4399,-5.4494,-5.4683,-5.4865,-5.4665,-5.4419,-6.597,-6.4259,-6.4384,-6.346,-6.2009,-6.2881,-6.2741,-6.1975,-6.2692,-6.2966,-6.2928,-6.2893,-6.2484,-6.1869,-6.1647,0.0,-6.1639,-6.1274,-6.1231,-6.1366,-6.0486,-6.0148,-6.025,-5.9607,-5.9268,-5.9201,-5.849,-5.8829,-6.0013,-5.9404,-5.9404,-5.9979,-5.9025,-5.8523,-5.8523,-5.8557,-5.8723,-5.9188,-5.8577,-5.8843,-5.9979,-6.0757,-6.1197,-6.1298,-6.1873,-6.1951,-6.1393,-6.0683,-6.0047,-5.9477,-5.8866,-5.8631,-5.8909,0.0,0.0,0.0,0.0,0.0,0.0,0.0,0.0,0.0,0.0,0.0,0.0,0.0,0.0,0.0,-5.646,0.0,-5.5942,-5.6008,0.0,0.0,0.0,-5.5187,-5.4532,-5.3558,-5.2921,-5.2955,0.0,0.0,-5.2955,-5.357,-5.4013,-5.4143,-5.4207,-5.4271,-5.4431,-5.4463,-5.4494,-5.4494,-5.4463,-5.4463,-5.4494,-5.4494,-5.4431,-5.4303,-5.4857,-5.4929,-5.4218,-5.3884,-5.3751,-5.3718,-5.3849,-5.3948,-5.375,-5.4074,-5.4362,-5.4134,-5.4391,-5.4582,-5.4451,-5.4691,-5.454,-6.6336,-6.5487,-6.4988,-6.3976,-6.2726,-6.3007,-6.2935,-6.2726,-6.2779,-6.277,-6.2736,-6.2038,-6.1622,-6.1452,-6.1414,-6.168,-6.212,-6.0351,-6.0486,-6.2009,-6.0723,-6.0723,-6.1806,-6.167,-6.1298,-6.0757,-6.0554,-6.0351,-6.0114,-5.9911,-5.9641,-5.9268,-5.9004,-5.8909,-5.8872,-5.8909,-5.8668,-5.8225,-5.8632,-5.8967,-5.9268,-5.9471,-6.0114,-6.1264,-6.0858,-6.0592,-6.0461,-5.9861,-5.9225,-5.8583,-5.8487,-5.849,-5.8385,-5.8385,0.0,0.0,0.0,0.0,0.0,0.0,0.0,0.0,0.0,-5.8031,-5.8494,0.0,-5.656,0.0,-5.5058,-5.4514,-5.4514,-5.4514,0.0,0.0,-5.4346,-5.4316,-5.4145,-5.3874,-5.3707,-5.3707,-5.3707,-5.3674,-5.3511,-5.3647,-5.3783,-5.3816,-5.4045,-5.4239,-5.4271,-5.4399,-5.4494,-5.4463,-5.4367,-5.4335,-5.4463,-5.4494,-5.4463,-5.4431,-5.4379,-5.4251,-5.4014,-5.3717,-5.3551,-5.3551,-5.3651,-5.3783,-5.3881,-5.3697,-5.351,-5.3473,-5.3538,-5.357,-5.3756,-5.3909,-5.3843,-6.6803,-6.5916,-6.5087,-6.4427,-6.3806,-6.3158,-6.2808,-6.2731,-6.2615,-6.2571,-6.2503,-6.1675,-6.1501,-6.1738,-6.1434,-6.1535,-6.1806,-6.0588,-6.0689,-6.1806,-6.0655,-6.0757,-6.1873,-6.1535,-6.1163,-6.0757,-6.0757,-6.0554,-6.0114,-6.008,-5.9708,-5.9032,-5.9336,-5.9336,-5.9032,-5.8998,-5.8795,-5.8423,-5.9133,-5.9505,-5.9505,-5.9505,-5.9911,-6.0723,-6.0689,-6.0452,-6.0114,-5.9783,-5.9278,-5.846,-5.823,-5.7991,-5.7808,-5.7881,-5.7918,0.0,0.0,0.0,0.0,0.0,0.0,0.0,0.0,0.0,0.0,0.0,-5.606,-5.6199,-5.5482,-5.5108,-5.5449,-5.4869,-5.4595,-5.4937,-5.4324,-5.4019,-5.4325,-5.3988,-5.3648,-5.3274,-5.3546,-5.3615,-5.3142,-5.3381,-5.3584,-5.3584,-5.3816,-5.4045,-5.4175,-5.4303,-5.4367,-5.4367,-5.4239,-5.4175,-5.4335,-5.4303,-5.4271,-5.4205,-5.3772,-5.3338,-5.3273,-5.2804,-5.2503,-5.2503,-5.2872,-5.3207,-5.3338,-5.3257,-5.3072,-5.2909,-5.2429,-5.2248,-5.277,-5.3052,-5.3053,-6.7184,-6.6092,-6.5074,-6.481,-6.4977,-6.3435,-6.2707,-6.2516,-6.2415,-6.2415,-6.2347,-6.1704,-6.1806,-6.2347,-6.1603,-6.1366,-6.1434,-6.1231,-6.1264,-6.14,-6.0622,-6.0689,-6.14,-6.0723,-6.0351,-6.025,-6.0351,-6.0351,-6.0283,-6.0351,-6.0047,-5.937,-5.9945,-5.9877,-5.9201,-5.9268,-5.9302,-5.9302,-5.9742,-6.0013,-6.008,-5.9873,-5.9873,-6.0076,-6.0511,-6.0511,-5.9937,-5.9802,-5.9355,-5.856,-5.7921,-5.7476,-5.7289,-5.7439,-5.7514,0.0,-5.7662,0.0,0.0,0.0,0.0,0.0,0.0,0.0,0.0,-5.5655,-5.5792,-5.7157,-5.6508,-5.6269,-5.6918,-5.569,-5.5144,-5.5724,-5.4566,-5.3956,-5.4533,-5.3957,-5.3247,-5.2536,-5.3078,-5.3213,-5.2638,-5.3078,-5.3484,-5.3551,-5.3651,-5.3849,-5.411,-5.4175,-5.4175,-5.4207,-5.4078,-5.4045,-5.411,-5.4078,-5.3979,-5.3809,-5.3202,-5.2496,-5.2297,-5.1723,-5.1251,-5.1319,-5.189,-5.2461,-5.2595,-5.2716,-5.264,-5.255,-5.152,-5.0891,-5.163,-5.211,-5.2008,-6.7297,-6.7087,-6.5521,-6.5323,-6.596,-6.4137,-6.3334,-6.326,-6.2651,-6.2415,-6.2381,-6.2245,-6.2245,-6.2313,-6.1637,-6.1603,-6.211,-6.0892,-6.0994,-6.2144,-6.1434,-6.1467,-6.2144,-6.2042,-6.167,-6.1129,-6.167,-6.167,-6.1095,-6.167,-6.1569,-6.0892,-6.1028,-6.0689,-5.9979,0.0,0.0,0.0,-5.981,-5.9505,-6.0013,-5.8781,-5.8639,-5.9785,-5.869,0.0,-5.8677,-5.814,-5.7737,-5.7566,-5.7431,0.0,0.0,0.0,0.0,0.0,0.0,0.0,0.0,0.0,0.0,0.0,-5.6588,-5.6598,-5.702,-5.6337,-5.6096,-5.677,-5.5686,-5.494,-5.5076,-5.433,-5.3856,-5.3991,-5.3754,-5.3585,-5.3754,-5.3585,-5.345,-5.3315,-5.3416,-5.345,-5.3315,-5.3416,-5.3551,-5.3617,-5.3684,-5.3783,-5.4013,-5.4045,-5.4078,-5.4175,-5.4045,-5.3948,-5.3782,-5.3915,-5.3743,-5.3263,-5.2863,-5.2359,-5.1783,-5.1417,-5.1151,-5.115,-5.1351,-5.1753,-5.2554,-5.1836,-5.1284,-5.2077,-5.0978,-5.0065,-5.0727,-5.0925,-5.0807,-6.7528,0.0,-6.5508,-6.5385,0.0,-6.4301,-6.3491,-6.3497,-6.3125,-6.2719,-6.2415,-6.2415,-6.2415,-6.2381,-6.2009,-6.2042,-6.2347,-6.1569,-6.1637,-6.2347,-6.2009,-6.2042,-6.2415,-6.2415,-6.2178,-6.1873,-6.2212,-6.2178,-6.1873,-6.2212,-6.2042,-6.1332,-6.167,-6.1467,-6.0723,-6.1467,-6.1839,-6.1839,-6.1061,-6.0858,-6.1163,-6.0072,-5.9553,-5.9742,0.0,0.0,0.0,0.0,0.0,0.0,0.0,0.0,0.0,0.0,0.0,-5.6441,-5.6486,-5.6564,-5.668,-5.6829,-5.6858,-5.6899,-5.7086,-5.7135,-5.7048,-5.6978,-5.7042,-5.7273,-5.6325,-5.5683,-5.5649,-5.4702,-5.4194,-5.4499,-5.3957,-5.3619,-5.3923,-5.3721,-5.3518,-5.3518,-5.3518,-5.3518,-5.3518,-5.3518,-5.3517,-5.3584,-5.3618,-5.3651,-5.3816,-5.3849,-5.3849,-5.3849,-5.3817,-5.3751,-5.3717,-5.3718,-5.3682,-5.3339,-5.2801,-5.2194,-5.1481,-5.0977,-5.0574,-5.027,-5.0405,-5.0907,-5.1435,-5.0958,-5.0615,-5.1035,-5.0317,-4.9547,-4.977,-4.993,-4.9949,-6.7784,-6.7298,-6.5467,-6.5338,-6.624,-6.4341,-6.3491,-6.3497,0.0,0.0,0.0,-6.2415,-6.2415,-6.2415,-6.2415,-6.2415,-6.2415,-6.2415,-6.2415,-6.2415,-6.2415,-6.2415,-6.2415,-6.2415,-6.2415,-6.2415,-6.2415,-6.2415,-6.2415,-6.2415,-6.211,-6.1603,-6.211,-6.211,-6.1569,-6.2076,-6.2415,-6.2381,-6.2279,-6.2178,-6.2139,-6.1288,-6.0396,-5.953,-5.9358,-5.8605,-5.7281,-5.7778,-5.7735,-5.6982,-5.6949,-5.6796,-5.6408,-5.6525,-5.6447,-5.6172,-5.6126,-5.6205,-5.6447,-5.6447,-5.6614,-5.7051,-5.7459,-5.7509,-5.7002,-5.7543,-5.7881,-5.7881,-5.7239,-5.6799,-5.6799,-5.5615,-5.504,-5.5649,-5.4634,-5.416,-5.4668,-5.4262,-5.3923,-5.3754,-5.3856,-5.3788,-5.3551,-5.3687,-5.3686,-5.3618,-5.3618,-5.3584,-5.3684,-5.375,-5.375,-5.3618,-5.3618,-5.3584,-5.3617,-5.3584,-5.3517,-5.3345,-5.2771,-5.2063,-5.1319,-5.0608,-4.9898,-4.9492,-4.9661,-5.0026,-5.032,-5.0252,-5.0218,-5.0351,-4.9743,-4.9138,-4.908,-4.9233,-4.9354,-6.7986,-6.7373,-6.5595,-6.5465,-6.624,-6.4301,-6.3491,-6.3463,-6.2821,-6.2482,-6.2415,-6.2415,-6.2415,-6.2415,-6.2415,-6.2415,-6.2415,-6.2415,-6.2415,-6.2415,-6.2415,-6.2415,-6.2415,-6.2415,-6.2415,-6.2415,-6.2415,-6.2415,-6.2415,-6.2415,-6.2313,-6.2245,-6.2347,-6.2347,-6.2245,-6.2347,-6.2415,-6.2381,-6.1772,-6.139,-6.12,-5.966,-5.8662,-5.8297,-5.7576,-5.7066,-5.6829,-5.6895,-5.6857,-5.6719,-5.6719,-5.6641,-5.6441,-5.6251,-5.5927,-5.536,-5.5806,-5.5934,-5.5653,-5.6251,-5.6568,-5.6415,-5.6718,-5.7171,-5.7679,-5.7814,-5.7881,-5.7848,-5.7137,-5.6799,-5.6731,-5.5987,-5.548,-5.5649,-5.5478,-5.5446,-5.5446,-5.5377,-5.5074,-5.4465,-5.5006,-5.4837,-5.3856,-5.4127,-5.4363,-5.402,-5.3849,-5.3849,-5.3783,-5.3849,-5.3849,-5.3717,-5.3684,-5.3617,-5.3551,-5.3517,-5.3281,-5.2603,-5.2502,-5.2164,-5.142,-5.0744,-5.0202,-4.9932,-4.9593,-4.9554,-5.0184,-4.9718,-4.965,-5.0051,-4.9582,-4.9049,-4.9018,-4.9046,-4.9046,-6.8515,-6.7789,-6.6167,-6.5521,-6.5465,-6.4091,-6.3768,-6.4038,-6.3294,-6.2753,-6.2415,-6.2415,-6.2415,-6.2415,-6.2415,-6.2415,-6.2415,-6.2415,-6.2415,-6.2415,-6.2415,-6.2415,-6.2415,-6.2415,-6.2415,-6.2415,-6.2415,-6.2415,-6.2415,-6.2415,-6.2415,-6.2415,-6.2415,-6.2415,-6.2415,-6.2415,-6.2415,-6.2381,-6.167,-6.1182,-6.0987,-5.9799,-5.8835,-5.8158,-5.7676,-5.7194,-5.6713,-5.668,-5.6641,-5.6525,-5.6558,-5.648,-5.6244,-5.6211,-5.6126,-5.5846,-5.6006,-5.6093,-5.6093,-5.6316,-5.6404,-5.6328,-5.6248,-5.6359,-5.6697,-5.6626,-5.652,-5.652,-5.5879,-5.5474,-5.5441,-5.4869,-5.4498,-5.4499,-5.4871,-5.4938,-5.4702,-5.531,-5.5412,-5.4803,-5.5243,-5.5311,-5.433,-5.4567,-5.46,-5.4118,-5.398,-5.3948,-5.3882,-5.3948,-5.3882,-5.3651,-5.3584,-5.3584,-5.3518,-5.3518,-5.3348,-5.2976,-5.2942,-5.2638,-5.1995,-5.1454,-5.098,-5.027,-4.9796,-4.9625,-4.9752,-4.9317,-4.9283,-4.9385,-4.9351,-4.9018,-4.9018,-4.9018,-4.9018,-6.9067,-6.83,-6.6753,-6.5623,-6.4869,-6.4254,-6.4241,-6.4546,-6.4174,-6.3497,-6.2685,-6.2482,-6.2415,-6.2415,-6.2415,-6.2415,-6.2415,-6.2584,-6.255,-6.2415,-6.255,-6.255,-6.2415,-6.2415,-6.2415,-6.2415,-6.2415,-6.2415,-6.2415,-6.2415,-6.2415,-6.2415,-6.2415,-6.2415,-6.2415,-6.2415,-6.2415,-6.2347,-6.1501,-6.0912,-6.0645,-5.9828,-5.8897,-5.7881,-5.7775,-5.7471,-5.6752,-5.668,-5.6603,-5.6447,-5.6276,-5.606,-5.5863,-5.5739,-5.5712,-5.5712,-5.5758,-5.608,-5.6647,-5.6563,-5.6392,-5.6166,-5.5879,-5.5581,-5.5208,-5.5001,-5.5099,-5.5336,-5.5033,-5.4696,-5.4627,-5.4328,-5.3957,-5.3991,-5.443,-5.4702,-5.4262,-5.5175,-5.5683,-5.5074,-5.5649,-5.599,-5.5315,-5.5077,-5.4871,-5.4318,-5.411,-5.4078,-5.4013,-5.398,-5.3849,-5.3618,-5.3517,-5.3517,-5.3518,-5.3518,-5.3484,-5.3518,-5.3484,-5.3179,-5.2672,-5.2469,-5.1961,-5.0913,-5.0473,-5.0101,-4.9458,-4.9289,-4.9221,-4.9185,-4.9052,-4.9018,-4.9018,-4.9018,-4.9018,-6.9328,-6.8645,-6.7106,-6.5778,-6.5039,-6.5304,-6.5121,-6.4749,-6.5222,-6.4681,-6.3463,-6.2685,-6.2415,-6.2415,-6.2415,-6.2415,-6.2448,-6.3091,-6.3024,-6.2516,-6.3091,-6.3057,-6.2415,-6.2381,-6.2415,-6.2415,-6.2415,-6.2415,-6.2415,-6.2415,-6.2415,-6.2415,-6.2415,-6.2415,-6.2415,-6.2381,-6.2381,-6.2347,-6.096,-6.0025,-5.9611,-5.8708,-5.7814,-5.6851,-5.6818,-5.6785,-5.668,-5.668,-5.668,-5.6608,-5.5892,-5.5336,-5.507,-5.417,-5.3617,-5.3746,-5.4424,-5.5365,-5.6542,-5.6996,-5.6586,-5.5414,-5.5538,-5.5108,-5.3889,-5.3551,-5.4056,-5.5138,-5.5546,-5.5272,-5.5334,-5.5273,-5.5071,-5.4864,-5.5239,-5.5546,-5.5411,-5.6224,-5.6427,-5.5647,-5.6632,-5.7245,-5.6098,-5.586,-5.555,-5.4507,-5.4367,-5.4271,-5.4045,-5.3948,-5.3849,-5.3618,-5.3584,-5.3584,-5.3517,-5.3518,-5.3518,-5.3518,-5.3518,-5.3416,-5.3179,-5.2773,-5.2164,-5.1826,-5.1454,-5.0845,-5.0304,-4.9965,-4.9763,-4.9289,-4.912,-4.9018,-4.9018,-4.9086,-4.912,-6.9952,-6.9578,-6.8599,-6.7433,-6.633,-6.5888,-6.5609,-6.5454,-6.5602,-6.5358,-6.4715,-6.3565,-6.2821,-6.2415,-6.2415,-6.2415,-6.2415,-6.2719,-6.2685,-6.2454,-6.2837,-6.2803,-6.2454,-6.2532,-6.2498,-6.242,-6.2415,-6.2415,-6.2415,-6.2415,-6.2415,-6.2415,-6.2415,-6.2415,-6.2347,-6.1941,-6.1738,-6.1704,-6.0135,-5.9174,-5.8954,-5.8127,-5.7401,-5.6906,-5.6757,-5.668,-5.668,-5.668,-5.6641,-5.6525,-5.6183,-5.5902,-5.5824,-5.5372,-5.5169,-5.5318,-5.5776,-5.6145,-5.6392,-5.669,-5.6438,-5.5501,-5.5206,-5.4566,-5.3483,-5.3348,-5.3686,-5.4056,-5.4225,-5.4122,-5.4016,-5.4087,-5.4122,-5.405,-5.4458,-5.4697,-5.4259,-5.5376,-5.5887,-5.5381,-5.6502,-5.7151,-5.644,-5.6027,-5.5472,-5.4704,-5.4399,-5.4239,-5.4013,-5.3882,-5.3751,-5.3551,-5.3551,-5.3551,-5.3518,-5.3518,-5.3518,-5.3518,-5.3518,-5.3518,-5.345,-5.3315,-5.2875,-5.2401,-5.2097,-5.1623,-5.0913,-5.0744,-5.0541,-4.9898,-4.9221,-4.912,-4.956,-4.9661,-4.9796,-7.0599,-7.0333,-6.9569,-6.8599,-6.7584,-6.6629,-6.6248,-6.6289,-6.6166,-6.5982,-6.5561,-6.4383,-6.3436,-6.2719,-6.2482,-6.2415,-6.2448,-6.2787,-6.2753,-6.2522,-6.3023,-6.2983,-6.2488,-6.2576,-6.261,-6.242,-6.2415,-6.2415,-6.2415,-6.2415,-6.2415,-6.2415,-6.2415,-6.2415,-6.2313,-6.1839,-6.1603,-6.1501,-6.0131,-5.9313,-5.9043,-5.8148,-5.7453,-5.7058,-5.6872,-5.6757,-5.668,-5.668,-5.6641,-5.6486,-5.6243,-5.6072,-5.6072,-5.5869,-5.5913,-5.6305,-5.6535,-5.6663,-5.6408,-5.6667,-5.6446,-5.5712,-5.5106,-5.4327,-5.3483,-5.328,-5.3314,-5.328,-5.3179,-5.3212,-5.3041,-5.3144,-5.3179,-5.304,-5.3683,-5.382,-5.3483,-5.4599,-5.5244,-5.4941,-5.596,-5.6644,-5.6267,-5.5847,-5.5324,-5.4669,-5.4367,-5.4207,-5.4045,-5.3882,-5.3717,-5.3517,-5.3518,-5.3518,-5.3518,-5.3518,-5.3518,-5.3518,-5.3518,-5.3518,-5.3518,-5.3484,-5.345,-5.2909,-5.2706,-5.2367,-5.1725,-5.1488,-5.1285,-5.0541,-4.9898,-4.9593,-5.027,-5.0236,-5.0541,-7.119,-7.0942,-6.937,-6.8754,-6.8754,-6.779,-6.7319,-6.7086,-6.7112,-6.6581,-6.5711,-6.5094,-6.4307,-6.3436,-6.2792,-6.2415,-6.2584,-6.3802,-6.37,-6.2759,-6.4041,-6.39,-6.2488,-6.2576,-6.261,-6.2522,-6.2415,-6.2415,-6.2415,-6.2415,-6.2415,-6.2415,-6.2415,-6.2415,-6.2381,-6.2279,-6.2313,-6.2076,-6.1327,-6.0719,-6.0009,-5.9077,-5.814,-5.7196,-5.6987,-5.6872,-5.6719,-5.668,-5.668,-5.668,-5.5892,-5.5419,-5.5347,-5.4635,-5.4635,-5.5358,-5.5833,-5.6287,-5.6867,-5.7268,-5.6951,-5.5737,-5.5402,-5.4762,-5.3549,-5.3143,-5.3109,-5.3212,-5.3246,-5.3213,-5.3179,-5.3281,-5.3348,-5.3179,-5.3382,-5.3518,-5.3484,-5.4092,-5.4566,-5.4703,-5.545,-5.5928,-5.558,-5.5537,-5.5221,-5.4704,-5.4463,-5.4335,-5.4045,-5.3948,-5.3817,-5.3584,-5.3518,-5.3518,-5.3518,-5.3518,-5.3518,-5.3518,-5.3518,-5.3518,-5.3518,-5.3484,-5.345,-5.3416,-5.3315,-5.301,-5.2503,-5.2097,-5.1826,-5.1251,-5.0541,-5.0439,-5.1014,-5.0507,-5.0845,-7.1575,-7.1593,-7.0354,-6.9764,-6.9577,-6.8583,-6.7995,-6.7591,-6.7435,-6.6903,-6.6078,-6.5403,-6.4653,-6.3893,-6.3587,-6.3367,-6.3193,-6.4174,-6.439,-6.4069,-6.4625,-6.467,-6.4273,-6.3684,-6.3367,-6.3221,-6.2696,-6.2415,-6.2415,-6.2415,-6.2415,-6.2415,-6.2415,-6.2415,-6.2313,-6.1907,-6.1704,-6.1603,-6.096,-6.0385,-6.0148,-5.9768,-5.9144,-5.814,-5.7372,-5.6911,-5.6719,-5.668,-5.668,-5.668,-5.6376,-5.6167,-5.6134,-5.5897,-5.5671,-5.5762,-5.6392,-5.6783,-5.6761,-5.7389,-5.7367,-5.6421,-5.5741,-5.5198,-5.4559,-5.375,-5.3312,-5.3683,-5.3551,-5.3416,-5.3382,-5.3348,-5.3213,-5.3076,-5.3212,-5.3314,-5.3382,-5.3653,-5.3924,-5.416,-5.494,-5.5548,-5.5506,-5.5568,-5.5258,-5.4507,-5.4239,-5.4078,-5.3882,-5.3751,-5.3651,-5.3517,-5.3518,-5.3518,-5.3518,-5.3518,-5.3518,-5.3518,-5.3518,-5.3518,-5.3518,-5.3518,-5.3484,-5.3484,-5.3518,-5.345,-5.2875,-5.2536,-5.2266,-5.2029,-5.1319,-5.1183,-5.1758,-5.1386,-5.186,-7.1907,-7.2056,-7.1036,-7.0414,-7.0113,-6.92,-6.8404,-6.7834,-6.7638,-6.7112,-6.628,-6.5602,-6.485,-6.4264,-6.4444,-6.4391,-6.4137,-6.4816,-6.5134,-6.5056,-6.5341,-6.542,-6.5152,-6.4391,-6.3932,-6.3679,-6.2871,-6.2415,-6.2415,-6.2415,-6.2415,-6.2415,-6.2415,-6.2415,-6.2313,-6.1907,-6.167,-6.1535,-6.1095,-6.0757,-6.052,-6.0486,-6.0038,-5.9069,-5.7988,-5.722,-5.6829,-5.6719,-5.668,-5.668,-5.668,-5.668,-5.668,-5.668,-5.6596,-5.635,-5.6909,-5.7201,-5.7015,-5.7502,-5.7577,-5.6831,-5.6075,-5.553,-5.5062,-5.4218,-5.405,-5.4153,-5.4189,-5.3989,-5.3855,-5.3651,-5.3344,-5.3108,-5.3144,-5.3247,-5.3213,-5.3382,-5.3584,-5.3885,-5.449,-5.5027,-5.5189,-5.5189,-5.4817,-5.4242,-5.4078,-5.3915,-5.375,-5.3617,-5.3517,-5.3484,-5.3518,-5.3518,-5.3518,-5.3518,-5.3518,-5.3518,-5.3518,-5.3518,-5.3518,-5.3518,-5.3518,-5.3518,-5.3518,-5.3518,-5.3315,-5.2976,-5.2773,-5.2638,-5.2198,-5.1826,-5.2164,-5.2401,-5.2706,-7.2245,-7.2483,-7.1337,-7.0702,-7.0319,-6.9629,-6.8756,-6.7908,-6.7799,-6.7273,-6.6399,-6.5799,-6.5143,-6.4512,-6.5147,-6.5378,-6.5357,-6.604,-6.6075,-6.5602,-6.6273,-6.6205,-6.5578,-6.4864,-6.4298,-6.3883,-6.2871,-6.2415,-6.2482,-6.2448,-6.2415,-6.2415,-6.2415,-6.2415,-6.2415,-6.2313,-6.2313,-6.2279,-6.2178,-6.1941,-6.14,-6.1298,-6.0815,-5.9881,-5.8911,-5.8017,-5.7125,-5.6829,-5.668,-5.668,-5.668,-5.668,-5.668,-5.668,-5.6796,-5.692,-5.7176,-5.7368,-5.7554,-5.7738,-5.7577,-5.7,-5.6438,-5.5794,-5.5129,-5.4781,-5.4675,-5.4656,-5.4824,-5.4925,-5.4598,-5.4187,-5.3745,-5.3313,-5.3348,-5.3348,-5.328,-5.3416,-5.3652,-5.4086,-5.452,-5.4375,-5.4502,-5.4611,-5.4514,-5.4381,-5.408,-5.3882,-5.3717,-5.3651,-5.3651,-5.3517,-5.3518,-5.3518,-5.3518,-5.3518,-5.3518,-5.3518,-5.3518,-5.3518,-5.3518,-5.3518,-5.3518,-5.3518,-5.3518,-5.3518,-5.3518,-5.3213,-5.3281,-5.3112,-5.2706,-5.2469,-5.2706,-5.2942,-5.2976,-7.2416,-7.2594,-7.209,-7.124,-7.0429,-7.0118,-6.9285,-6.8073,-6.8039,-6.7551,-6.6858,-6.6622,-6.6105,-6.5654,-6.6174,-6.6441,-6.6313,-6.7118,-6.7324,-6.7067,-6.7193,-6.7239,-6.7015,-6.6205,-6.5352,-6.4466,-6.3192,-6.2803,-6.299,-6.2651,-6.2415,-6.2415,-6.2415,-6.2415,-6.2415,-6.2415,-6.2415,-6.2415,-6.2415,-6.2245,-6.2076,-6.2042,-6.1631,-6.0811,-5.9843,-5.8988,-5.8207,-5.7215,-5.6752,-5.6719,-5.668,-5.668,-5.668,-5.668,-5.6796,-5.6987,-5.7176,-5.7402,-5.7588,-5.7772,-5.7814,-5.7473,-5.685,-5.6682,-5.6588,-5.5768,-5.553,-5.5778,-5.5744,-5.5476,-5.5274,-5.4662,-5.3984,-5.328,-5.328,-5.3314,-5.3416,-5.3991,-5.4805,-5.555,-5.5785,-5.5884,-5.5845,-5.5539,-5.4895,-5.4661,-5.4222,-5.375,-5.3618,-5.3584,-5.3551,-5.3484,-5.3518,-5.3518,-5.3518,-5.3518,-5.3518,-5.3518,-5.3518,-5.3518,-5.3518,-5.3518,-5.3518,-5.3518,-5.3518,-5.3518,-5.3518,-5.3518,-5.3518,-5.3518,-5.3179,-5.3213,-5.3416,-5.3416,-5.3315,-7.2459,-7.2636,-7.2107,-7.1324,-7.0394,-7.0118,-6.9256,-6.8187,-6.8083,-6.7669,-6.7083,-6.698,-6.6566,-6.6152,-6.6635,-6.6902,-6.6927,-6.7734,-6.8039,-6.7885,-6.7799,-6.7879,-6.7935,-6.6924,-6.5932,-6.4983,-6.3945,-6.3447,-6.3463,-6.3057,-6.2651,-6.2448,-6.2415,-6.2415,-6.2415,-6.2415,-6.2415,-6.2415,-6.2415,-6.2415,-6.2415,-6.2415,-6.2178,-6.1598,-6.0464,-5.9607,-5.9031,-5.7673,-5.6872,-5.6796,-5.6719,-5.668,-5.668,-5.6719,-5.6834,-5.7063,-5.7252,-5.7439,-5.7662,-5.7808,-5.7845,-5.7671,-5.715,-5.6841,-5.7086,-5.634,-5.6443,-5.652,-5.6554,-5.6356,-5.6052,-5.5503,-5.4724,-5.4087,-5.3515,-5.3449,-5.3788,-5.4737,-5.5553,-5.6233,-5.6504,-5.6605,-5.6468,-5.592,-5.5242,-5.4904,-5.4227,-5.3618,-5.3551,-5.3518,-5.3518,-5.3518,-5.3518,-5.3518,-5.3518,-5.3518,-5.3518,-5.3518,-5.3518,-5.3518,-5.3518,-5.3518,-5.3518,-5.3518,-5.3518,-5.3518,-5.3518,-5.3518,-5.3518,-5.3518,-5.3518,-5.3518,-5.3484,-5.3484,-5.345,-7.2459,-7.2567,-7.1626,-7.0911,-7.0325,-6.9635,-6.8877,-6.8152,-6.8083,-6.7738,-6.7187,-6.7152,-6.6773,-6.6324,-6.6911,-6.7148,-6.7187,-6.7738,-6.8044,-6.8044,-6.8039,-6.8044,-6.7901,-6.6964,-6.6149,-6.5551,-6.4822,-6.4214,-6.37,-6.3537,-6.3125,-6.2448,-6.2415,-6.2415,-6.2415,-6.2415,-6.2415,-6.2415,-6.2415,-6.2415,-6.2415,-6.2415,-6.2381,-6.2279,-6.084,-5.9915,-5.9544,-5.814,-5.7214,-5.7025,-5.6834,-5.6757,-5.6757,-5.6719,-5.6911,-5.7252,-5.7327,-5.7514,-5.7772,-5.7881,-5.7845,-5.7698,-5.7446,-5.7022,-5.666,-5.6969,-5.6969,-5.6743,-5.7119,-5.7294,-5.6894,-5.634,-5.5828,-5.5297,-5.4222,-5.4058,-5.4907,-5.5792,-5.6372,-5.6678,-5.681,-5.6844,-5.6814,-5.596,-5.528,-5.4907,-5.4296,-5.3788,-5.3551,-5.3585,-5.3585,-5.3551,-5.3518,-5.3518,-5.3518,-5.3518,-5.3518,-5.3518,-5.3551,-5.3517,-5.3518,-5.3518,-5.3518,-5.3518,-5.3518,-5.3518,-5.3518,-5.3518,-5.3518,-5.3518,-5.3518,-5.3518,-5.3518,-5.3518,-5.3518,-7.2628,-7.2602,-7.1801,-7.1043,-7.0325,-6.9601,-6.8808,-6.8118,-6.8083,-6.798,-6.7807,-6.7807,-6.7635,-6.7532,-6.7669,-6.7729,-6.7684,-6.794,-6.8039,-6.7919,-6.8044,-6.8083,-6.7906,-6.7118,-6.6748,-6.6615,-6.5635,-6.4794,-6.4316,-6.3956,-6.3312,-6.2415,-6.2448,-6.2415,-6.2415,-6.2415,-6.2415,-6.2415,-6.2415,-6.2415,-6.2415,-6.2415,-6.2415,-6.2313,-6.1429,-6.0613,-5.9933,-5.8399,-5.7439,-5.7214,-5.7025,-5.6987,-5.7063,-5.6987,-5.7025,-5.7289,-5.7439,-5.7551,-5.7662,-5.7808,-5.7845,-5.7808,-5.7625,-5.7446,-5.7278,-5.7379,-5.7376,-5.7208,-5.7557,-5.7704,-5.7361,-5.6847,-5.6172,-5.5501,-5.5065,-5.5239,-5.6163,-5.6745,-5.7191,-5.7981,-5.805,-5.7981,-5.7672,-5.6748,-5.5758,-5.5485,-5.4839,-5.4025,-5.3721,-5.3957,-5.4059,-5.3653,-5.3518,-5.3518,-5.3518,-5.3518,-5.3518,-5.3517,-5.3551,-5.3618,-5.3551,-5.3518,-5.3518,-5.3518,-5.3518,-5.3518,-5.3518,-5.3518,-5.3518,-5.3518,-5.3518,-5.3518,-5.3518,-5.3518,-5.3518,-7.2671,-7.2609,-7.1498,-7.0774,-7.0256,-6.9256,-6.8532,-6.8152,-6.8083,-6.8083,-6.8083,-6.8083,-6.8083,-6.8083,-6.8083,-6.8004,-6.7959,-6.8078,-6.8039,-6.7965,-6.8044,-6.8044,-6.7822,-6.7279,-6.7146,-6.725,-6.6378,-6.5671,-6.5094,-6.4735,-6.399,-6.3097,-6.2854,-6.2719,-6.2415,-6.2415,-6.2415,-6.2415,-6.2415,-6.2415,-6.2415,-6.2415,-6.2415,-6.2245,-6.167,-6.0926,-6.008,-5.9122,-5.8261,-5.7566,-5.7176,-5.7139,-5.7176,-5.7139,-5.7214,-5.7402,-5.7551,-5.7625,-5.7735,-5.7845,-5.7845,-5.7772,-5.7662,-5.7551,-5.748,-5.7551,-5.7514,-5.7443,-5.7735,-5.7808,-5.7704,-5.733,-5.6925,-5.6622,-5.6453,-5.6628,-5.7082,-5.7461,-5.7941,-5.8459,-5.8631,-5.8561,-5.8526,-5.7019,-5.6234,-5.5721,-5.5041,-5.4296,-5.3754,-5.4228,-5.4363,-5.3788,-5.3518,-5.3518,-5.3518,-5.3518,-5.3551,-5.3517,-5.3618,-5.3617,-5.3618,-5.3551,-5.3551,-5.3551,-5.3518,-5.3518,-5.3518,-5.3518,-5.3518,-5.3518,-5.3518,-5.3518,-5.3518,-5.3518,-5.3518,-7.2671,-7.2609,-7.1056,-7.0435,-7.0153,-6.8773,-6.8152,-6.8083,-6.8083,-6.8083,-6.8083,-6.8083,-6.8083,-6.8083,-6.8083,-6.8083,-6.8083,-6.8083,-6.8083,-6.8044,-6.8083,-6.8004,-6.7805,-6.7569,-6.7366,-6.7229,-6.6938,-6.6313,-6.5771,-6.5602,-6.4959,-6.3937,-6.3632,-6.3294,-6.2956,-6.2685,-6.2516,-6.255,-6.2448,-6.2415,-6.2415,-6.2415,-6.2415,-6.2279,-6.1704,-6.1061,-6.0452,-5.9937,-5.9245,-5.7666,-5.7494,-5.7352,-5.7205,-5.7252,-5.7439,-5.7588,-5.7662,-5.7735,-5.7845,-5.7881,-5.7845,-5.7698,-5.7625,-5.7514,-5.7439,-5.7514,-5.7588,-5.7514,-5.7772,-5.7845,-5.7881,-5.7848,-5.7746,-5.7575,-5.7746,-5.7618,-5.7489,-5.7939,-5.8455,-5.849,-5.8631,-5.849,-5.8007,-5.7083,-5.6062,-5.6194,-5.5548,-5.4938,-5.4465,-5.46,-5.4329,-5.3653,-5.3518,-5.3518,-5.3518,-5.3518,-5.3517,-5.3551,-5.3617,-5.3684,-5.3684,-5.3651,-5.3618,-5.3551,-5.3518,-5.3518,-5.3518,-5.3518,-5.3518,-5.3518,-5.3518,-5.3518,-5.3518,-5.3518,-5.3518,-7.2671,-7.2575,-7.105,-7.0435,-7.0153,-6.8773,-6.8118,-6.8152,-6.8118,-6.8118,-6.8083,-6.8083,-6.8083,-6.8083,-6.8083,-6.8083,-6.8083,-6.8083,-6.8083,-6.8083,-6.8083,-6.7965,-6.7799,-6.7597,-6.751,-6.7387,-6.7222,-6.6607,-6.5982,-6.582,-6.542,-6.4512,-6.4343,-6.4275,-6.4038,-6.3463,-6.326,-6.3159,-6.2719,-6.2448,-6.2415,-6.2415,-6.2415,-6.2313,-6.1704,-6.1298,-6.0921,-6.0261,-5.9674,-5.9232,-5.8724,-5.8215,-5.7674,-5.7547,-5.7625,-5.7735,-5.7808,-5.7845,-5.7881,-5.7881,-5.7881,-5.7808,-5.7698,-5.7588,-5.7551,-5.7588,-5.7551,-5.7476,-5.7662,-5.7881,-5.7881,-5.7881,-5.7881,-5.7881,-5.7881,-5.7884,-5.7785,-5.7889,-5.8135,-5.8207,-5.8171,-5.8099,-5.8137,-5.7281,-5.6667,-5.6562,-5.619,-5.5683,-5.5344,-5.5074,-5.4634,-5.4025,-5.3754,-5.3822,-5.3991,-5.3957,-5.3822,-5.3856,-5.3888,-5.3751,-5.3751,-5.382,-5.3821,-5.3686,-5.3518,-5.3518,-5.3518,-5.3518,-5.3518,-5.3518,-5.3518,-5.3518,-5.3518,-5.3518,-5.3518,-7.2671,-7.2533,-7.1304,-7.0829,-7.0629,-6.9204,-6.8722,-6.898,-6.8359,-6.8325,-6.8497,-6.829,-6.8083,-6.8083,-6.8083,-6.8083,-6.8083,-6.8083,-6.8083,-6.8083,-6.8083,-6.8044,-6.7919,-6.7638,-6.7469,-6.7387,-6.7263,-6.6784,-6.6388,-6.6219,-6.5948,-6.5189,-6.5121,-6.485,-6.4647,-6.4208,-6.3835,-6.3497,-6.3159,-6.2787,-6.2448,-6.2415,-6.2415,-6.2381,-6.2009,-6.1806,-6.1738,-6.1239,-6.0757,-6.0348,-5.9944,-5.9203,-5.8265,-5.7901,-5.7806,-5.7881,-5.7881,-5.7881,-5.7881,-5.7881,-5.7881,-5.7881,-5.7772,-5.7772,-5.7735,-5.7735,-5.7698,-5.7662,-5.7772,-5.7881,-5.7881,-5.7881,-5.7881,-5.7881,-5.7881,-5.7881,-5.7918,-5.7954,-5.8027,-5.8063,-5.8063,-5.8027,-5.7787,-5.7275,-5.697,-5.6731,-5.6697,-5.619,-5.5649,-5.5412,-5.531,-5.4802,-5.4329,-5.4228,-5.4499,-5.4465,-5.4228,-5.4262,-5.4296,-5.4024,-5.3785,-5.3922,-5.4092,-5.3822,-5.3518,-5.3518,-5.3518,-5.3518,-5.3518,-5.3518,-5.3518,-5.3518,-5.3518,-5.3518,-5.3518,-7.2671,-7.2602,-7.1626,-7.1282,-7.1174,-6.9632,-6.9288,-6.9761,-6.8704,-6.8394,-6.8877,-6.8359,-6.8083,-6.8044,-6.8083,-6.8083,-6.8083,-6.8083,-6.8083,-6.8083,-6.8083,-6.8083,-6.7965,-6.7759,-6.7469,-6.7263,-6.7139,-6.6946,-6.6821,-6.6779,-6.6373,-6.5933,-6.5865,-6.5628,-6.5121,-6.4783,-6.4444,-6.3869,-6.3531,-6.3057,-6.2516,-6.2415,-6.2415,-6.2381,-6.2347,-6.2279,-6.2206,-6.1908,-6.166,-6.1228,-6.1021,-6.0247,-5.9347,-5.8548,-5.822,-5.8287,-5.8389,-5.8355,-5.822,-5.8118,-5.8084,-5.7949,-5.7881,-5.7881,-5.7881,-5.7881,-5.7845,-5.7845,-5.7881,-5.7881,-5.7881,-5.7881,-5.7881,-5.7881,-5.7881,-5.7881,-5.7918,-5.8063,-5.8027,-5.7954,-5.7991,-5.8024,-5.7819,-5.7442,-5.7171,-5.6968,-5.6934,-5.6731,-5.619,-5.5818,-5.5715,-5.5478,-5.5006,-5.4803,-5.504,-5.5108,-5.4803,-5.4838,-5.4839,-5.4601,-5.4262,-5.45,-5.4635,-5.3822,-5.3517,-5.3518,-5.3518,-5.3518,-5.3518,-5.3518,-5.3518,-5.3518,-5.3518,-5.3518,-5.3518,-7.2671,-7.2602,-7.1591,-7.1198,-7.1034,-6.9543,-6.9069,-6.9007,-6.8452,-6.8187,-6.829,-6.8152,-6.8004,-6.7925,-6.8039,-6.8083,-6.8044,-6.8083,-6.8083,-6.8083,-6.8083,-6.8083,-6.8044,-6.7839,-6.7632,-6.7387,-6.7139,-6.6896,-6.6812,-6.6812,-6.6677,-6.6609,-6.6576,-6.6406,-6.6136,-6.5831,-6.5087,-6.4309,-6.3869,-6.326,-6.2584,-6.2415,-6.2415,-6.2415,-6.2415,-6.2415,-6.2302,-6.203,-6.1843,-6.2026,-6.1177,-6.0813,-6.0603,-6.0076,-5.9742,-5.9539,-5.9505,-5.9268,-5.893,-5.8761,-5.8457,-5.8084,-5.7881,-5.7881,-5.7881,-5.7881,-5.7881,-5.7881,-5.7881,-5.7881,-5.7881,-5.7881,-5.7881,-5.7881,-5.7881,-5.7881,-5.7918,-5.7918,-5.7954,-5.7918,-5.7918,-5.7988,-5.7816,-5.7679,-5.7543,-5.7408,-5.7408,-5.7239,-5.6799,-5.6494,-5.6325,-5.6021,-5.5615,-5.5547,-5.5581,-5.5615,-5.5513,-5.5513,-5.5549,-5.5586,-5.5382,-5.5448,-5.5176,-5.4296,-5.3754,-5.3619,-5.3585,-5.3518,-5.3619,-5.3687,-5.3619,-5.3518,-5.3687,-5.3788,-5.3585,-7.2671,-7.2636,-7.191,-7.1499,-7.111,-6.9872,-6.9474,-6.9508,-6.8595,-6.8325,-6.8497,-6.8325,-6.7999,-6.7879,-6.7879,-6.7959,-6.7959,-6.8044,-6.8083,-6.8083,-6.8083,-6.8083,-6.8044,-6.7879,-6.7678,-6.7475,-6.718,-6.6896,-6.6812,-6.6812,-6.6812,-6.6812,-6.6812,-6.6812,-6.6779,-6.644,-6.5628,-6.4816,-6.4208,-6.3497,-6.2516,-6.2415,-6.2415,-6.2415,-6.2415,-6.2415,-6.2341,-6.207,-6.203,-6.2161,-6.1733,-6.1604,-6.1587,-6.1467,-6.0892,-6.0317,-6.0148,-6.0013,-5.9539,-5.9268,-5.8829,-5.8524,-5.8152,-5.7881,-5.7881,-5.7881,-5.7881,-5.7881,-5.7881,-5.7881,-5.7881,-5.7881,-5.7881,-5.7881,-5.7881,-5.7881,-5.7881,-5.7881,-5.7881,-5.7881,-5.7918,-5.7918,-5.7918,-5.7848,-5.7848,-5.7881,-5.7881,-5.7645,-5.7306,-5.707,-5.6799,-5.6833,-5.6562,-5.6528,-5.6461,-5.6325,-5.6292,-5.6258,-5.6258,-5.6262,-5.6229,-5.6193,-5.5551,-5.4635,-5.4228,-5.4025,-5.3585,-5.3518,-5.3721,-5.3856,-5.3687,-5.3653,-5.3957,-5.4025,-5.389,-7.2671,-7.2671,-7.2108,-7.1662,-7.1263,-7.0035,-6.9666,-6.9714,-6.8584,-6.8309,-6.8791,-6.8269,-6.7839,-6.7719,-6.7678,-6.7678,-6.7759,-6.7925,-6.8004,-6.8004,-6.8083,-6.8083,-6.8044,-6.7919,-6.7719,-6.7557,-6.7304,-6.7056,-6.6854,-6.6812,-6.6812,-6.6812,-6.6812,-6.6812,-6.6779,-6.6745,-6.5899,-6.5222,-6.458,-6.3835,-6.2753,-6.2415,-6.2415,-6.2415,-6.2415,-6.2415,-6.2381,-6.215,-6.215,-6.2229,-6.2156,-6.2082,-6.2341,-6.2381,-6.1806,-6.0825,-6.0554,-6.0486,-6.0182,-5.9674,-5.9235,-5.8896,-5.8287,-5.7983,-5.7881,-5.7881,-5.7881,-5.7881,-5.7881,-5.7881,-5.7881,-5.7881,-5.7881,-5.7881,-5.7881,-5.7881,-5.7881,-5.7881,-5.7881,-5.7881,-5.7881,-5.7881,-5.7881,-5.7881,-5.7881,-5.7881,-5.7881,-5.7881,-5.7577,-5.7374,-5.7273,-5.7577,-5.7611,-5.7611,-5.7442,-5.7137,-5.707,-5.7002,-5.7038,-5.7006,-5.694,-5.6838,-5.6027,-5.5247,-5.494,-5.4702,-5.4093,-5.3585,-5.3822,-5.389,-5.3721,-5.3957,-5.4532,-5.46,-5.4397,-7.2671,-7.2602,-7.1652,-7.1258,-7.0957,-6.948,-6.8781,-6.8727,-6.798,-6.7591,-6.7878,-6.7666,-6.7475,-6.7387,-6.7346,-6.7387,-6.7557,-6.7759,-6.7879,-6.7919,-6.8039,-6.8083,-6.8044,-6.7919,-6.7799,-6.7678,-6.7387,-6.7097,-6.6888,-6.6812,-6.6812,-6.6812,-6.6812,-6.6812,-6.6812,-6.6812,-6.6373,-6.5595,-6.4884,-6.3869,-6.2719,-6.2448,-6.2415,-6.2415,-6.2415,-6.2415,-6.2381,-6.2189,-6.2189,-6.2341,-6.215,-6.215,-6.2341,-6.2415,-6.2347,-6.2178,-6.2076,-6.1839,-6.1163,-6.0452,-5.981,-5.9302,-5.8524,-5.8017,-5.7983,-5.7915,-5.7881,-5.7881,-5.7881,-5.7881,-5.7881,-5.7881,-5.7881,-5.7881,-5.7881,-5.7881,-5.7881,-5.7881,-5.7881,-5.7881,-5.7881,-5.7881,-5.7881,-5.7881,-5.7881,-5.7881,-5.7881,-5.7881,-5.7848,-5.7611,-5.7543,-5.778,-5.7881,-5.7881,-5.7848,-5.7645,-5.7577,-5.7577,-5.7579,-5.7582,-5.748,-5.7279,-5.6806,-5.6161,-5.5751,-5.504,-5.4228,-5.3856,-5.3991,-5.4194,-5.4397,-5.4837,-5.5378,-5.5209,-5.504,-7.2218,-7.1981,-7.1419,-7.0801,-7.0058,-6.9166,-6.8576,-6.8245,-6.7856,-6.7678,-6.7678,-6.7678,-6.7557,-6.7387,-6.7387,-6.7346,-6.7394,-6.7638,-6.7799,-6.7839,-6.7999,-6.8083,-6.8118,-6.8039,-6.7959,-6.7799,-6.7597,-6.7387,-6.7105,-6.6854,-6.6812,-6.6812,-6.6812,-6.6812,-6.6812,-6.6812,-6.6373,-6.5561,-6.4613,-6.37,-6.3091,-6.2651,-6.2415,-6.2415,-6.2415,-6.2415,-6.2381,-6.2341,-6.2268,-6.2381,-6.2263,-6.2302,-6.2381,-6.2415,-6.2381,-6.2381,-6.2381,-6.2212,-6.1873,-6.1163,-6.0622,-6.0216,-5.9573,-5.9066,-5.8626,-5.8186,-5.7949,-5.7881,-5.7881,-5.7881,-5.7881,-5.7881,-5.7881,-5.7881,-5.7881,-5.7881,-5.7881,-5.7881,-5.7881,-5.7881,-5.7881,-5.7881,-5.7881,-5.7881,-5.7881,-5.7881,-5.7881,-5.7881,-5.7881,-5.7814,-5.778,-5.7848,-5.7881,-5.7881,-5.7881,-5.778,-5.7746,-5.7746,-5.7746,-5.7782,-5.7853,-5.7652,-5.7143,-5.6499,-5.5819,-5.5074,-5.4262,-5.4228,-5.4465,-5.4837,-5.5243,-5.5649,-5.6021,-5.6224,-5.6089,-7.1482,-7.1014,-7.0881,-7.0209,-6.9135,-6.872,-6.8227,-6.7874,-6.7597,-6.7557,-6.7557,-6.7597,-6.7557,-6.751,-6.7428,-6.7304,-6.7256,-6.7557,-6.7638,-6.7759,-6.7919,-6.8044,-6.8039,-6.8039,-6.8039,-6.7845,-6.7799,-6.7597,-6.7353,-6.7063,-6.6896,-6.6812,-6.6812,-6.6812,-6.6812,-6.6779,-6.644,-6.5662,-6.4546,-6.3835,-6.3396,-6.2719,-6.2482,-6.2415,-6.2415,-6.2415,-6.2415,-6.2415,-6.2381,-6.2381,-6.2381,-6.2381,-6.2415,-6.2415,-6.2415,-6.2415,-6.2415,-6.2381,-6.211,-6.167,-6.14,-6.1061,-6.0588,-5.9708,-5.9336,-5.8693,-5.8287,-5.8287,-5.8254,-5.8152,-5.7949,-5.7881,-5.7881,-5.7881,-5.7881,-5.7881,-5.7881,-5.7881,-5.7881,-5.7881,-5.7881,-5.7881,-5.7881,-5.7881,-5.7881,-5.7881,-5.7881,-5.7881,-5.7881,-5.7881,-5.7881,-5.7881,-5.7881,-5.7881,-5.7881,-5.7881,-5.7881,-5.7881,-5.7881,-5.8051,-5.8189,-5.7884,-5.7376,-5.6664,-5.5953,-5.548,-5.4905,-5.4905,-5.4972,-5.548,-5.5953,-5.6292,-5.6596,-5.6867,-5.7002,-7.0516,-6.9841,-6.9799,-6.9446,-6.8795,-6.7769,-6.7331,-6.7346,-6.7056,-6.6938,-6.7022,-6.7139,-6.7387,-6.7428,-6.7346,-6.7263,-6.7222,-6.7428,-6.7469,-6.7516,-6.7759,-6.7959,-6.7959,-6.7999,-6.8044,-6.7965,-6.7879,-6.7799,-6.7638,-6.727,-6.7022,-6.6812,-6.6812,-6.6812,-6.6812,-6.6779,-6.6406,-6.5696,-6.4783,-6.4072,-6.3497,-6.2854,-6.2415,-6.2415,-6.2415,-6.2415,-6.2415,-6.2415,-6.2415,-6.2415,-6.2415,-6.2415,-6.2415,-6.2415,-6.2415,-6.2415,-6.2415,-6.2415,-6.2245,-6.1873,-6.1434,-6.1095,-6.0689,-6.025,-6.0047,-5.9979,-5.9607,-5.8964,-5.8829,-5.8524,-5.8186,-5.7881,-5.7881,-5.7881,-5.7881,-5.7881,-5.7881,-5.7881,-5.7881,-5.7881,-5.7881,-5.7881,-5.7845,-5.7845,-5.7808,-5.7808,-5.7808,-5.7808,-5.7881,-5.7881,-5.7881,-5.7881,-5.7881,-5.7881,-5.7881,-5.7881,-5.7881,-5.7881,-5.7881,-5.822,-5.8558,-5.8118,-5.7543,-5.6934,-5.6224,-5.5886,-5.5614,-5.5547,-5.5649,-5.619,-5.663,-5.69,-5.7137,-5.7408,-5.7543,-7.0104,-6.9476,-6.8838,-6.836,-6.8008,-6.7571,-6.7387,-6.7346,-6.7139,-6.7056,-6.7056,-6.718,-6.7304,-6.7428,-6.7428,-6.7304,-6.7222,-6.7428,-6.7428,-6.7475,-6.7719,-6.7839,-6.7839,-6.7879,-6.7805,-6.7799,-6.7759,-6.7719,-6.7557,-6.7394,-6.7263,-6.7097,-6.6854,-6.6812,-6.6812,-6.6779,-6.6406,-6.573,-6.4986,-6.4241,-6.3497,-6.2821,-6.2415,-6.2415,-6.2415,-6.2415,-6.2415,-6.2415,-6.2415,-6.2415,-6.2415,-6.2415,-6.2415,-6.2415,-6.2415,-6.2415,-6.2415,-6.2415,-6.2415,-6.211,-6.1975,-6.1806,-6.1332,-6.0858,-6.0791,-6.0452,-6.008,-5.9641,-5.9302,-5.8998,-5.8727,-5.8186,-5.7881,-5.7881,-5.7915,-5.7949,-5.7881,-5.7881,-5.7881,-5.7881,-5.7881,-5.7881,-5.7845,-5.7772,-5.7735,-5.7698,-5.7735,-5.7735,-5.7808,-5.7881,-5.7881,-5.7881,-5.7881,-5.7881,-5.7881,-5.7881,-5.7881,-5.7881,-5.7881,-5.8254,-5.8558,-5.822,-5.7611,-5.7036,-5.663,-5.6393,-5.619,-5.6122,-5.6359,-5.6934,-5.7205,-5.7408,-5.7679,-5.7848,-5.7881,-6.9301,-6.8854,-6.8023,-6.7622,-6.7469,-6.7353,-6.7346,-6.7387,-6.718,-6.7139,-6.718,-6.718,-6.7346,-6.7475,-6.7428,-6.7387,-6.7346,-6.7394,-6.7469,-6.7557,-6.7719,-6.7839,-6.7839,-6.7839,-6.7879,-6.7678,-6.7678,-6.7719,-6.7516,-6.7435,-6.7304,-6.7139,-6.6938,-6.6812,-6.6812,-6.6779,-6.6542,-6.5967,-6.5053,-6.4444,-6.3768,-6.2922,-6.2415,-6.2415,-6.2415,-6.2415,-6.2415,-6.2415,-6.2415,-6.2415,-6.2415,-6.2415,-6.2415,-6.2415,-6.2415,-6.2415,-6.2415,-6.2415,-6.2415,-6.2381,-6.2381,-6.2212,-6.1941,-6.167,-6.1467,-6.1095,-6.0926,-6.0452,-6.0013,-5.9607,-5.9438,-5.8964,-5.8524,-5.8558,-5.8423,-5.8389,-5.8017,-5.7881,-5.7881,-5.7881,-5.7881,-5.7881,-5.7879,-5.7806,-5.7658,-5.7658,-5.7735,-5.7735,-5.7735,-5.7808,-5.7881,-5.7881,-5.7881,-5.7881,-5.7881,-5.7881,-5.7881,-5.7881,-5.7915,-5.8152,-5.8287,-5.8017,-5.7848,-5.7442,-5.7103,-5.69,-5.6697,-5.6494,-5.6968,-5.7645,-5.7746,-5.7712,-5.7746,-5.7881,-5.7881,-6.7996,-6.787,-6.7471,-6.7339,-6.7394,-6.7022,-6.698,-6.718,-6.6938,-6.6938,-6.7139,-6.7139,-6.7387,-6.7591,-6.7346,-6.7304,-6.7387,-6.7435,-6.7428,-6.7428,-6.7719,-6.7879,-6.7919,-6.7919,-6.7879,-6.7799,-6.7799,-6.7719,-6.7516,-6.7387,-6.7263,-6.7139,-6.698,-6.6812,-6.6812,-6.6812,-6.6812,-6.6542,-6.5256,-6.4783,-6.4208,-6.3193,-6.2685,-6.2584,-6.2448,-6.2415,-6.2415,-6.2415,-6.2415,-6.2415,-6.2415,-6.2415,-6.2415,-6.2415,-6.2415,-6.2415,-6.2415,-6.2415,-6.2415,-6.2415,-6.2415,-6.2415,-6.2178,-6.2178,-6.2279,-6.2144,-6.1873,-6.1264,-6.1028,-6.0689,-6.0385,-5.9945,-5.9471,-5.9201,-5.9032,-5.8761,-5.8423,-5.8152,-5.8186,-5.8254,-5.8051,-5.7915,-5.7842,-5.7803,-5.7618,-5.7618,-5.7769,-5.7772,-5.7698,-5.7735,-5.7808,-5.7881,-5.7881,-5.7881,-5.7881,-5.7881,-5.7881,-5.7881,-5.7949,-5.8084,-5.8186,-5.8084,-5.7915,-5.7746,-5.7509,-5.7205,-5.7002,-5.6833,-5.7374,-5.7814,-5.7848,-5.7848,-5.7881,-5.7881,-5.7881,-6.7895,-6.7827,-6.7235,-6.7097,-6.7263,-6.7304,-6.7263,-6.7139,-6.6938,-6.6854,-6.6896,-6.6938,-6.7097,-6.7263,-6.7304,-6.7222,-6.7304,-6.7304,-6.7263,-6.7394,-6.7638,-6.7719,-6.7799,-6.7839,-6.7799,-6.7678,-6.7678,-6.7759,-6.7719,-6.7469,-6.7387,-6.7346,-6.7022,-6.6812,-6.6812,-6.6779,-6.6643,-6.6102,-6.5493,-6.5087,-6.4546,-6.37,-6.3125,-6.3091,-6.2685,-6.2448,-6.2415,-6.2415,-6.2415,-6.2415,-6.2415,-6.2415,-6.2415,-6.2415,-6.2415,-6.2415,-6.2415,-6.2415,-6.2415,-6.2415,-6.2415,-6.2415,-6.2415,-6.2415,-6.2415,-6.2415,-6.2212,-6.1975,-6.1603,-6.1231,-6.0926,-6.0317,-5.9911,-5.9844,-5.9641,-5.9336,-5.8998,-5.8795,-5.8727,-5.8761,-5.866,-5.8819,-5.8882,-5.8312,-5.7995,-5.7775,-5.7924,-5.7803,-5.7735,-5.7698,-5.7735,-5.7845,-5.7881,-5.7881,-5.7881,-5.7881,-5.7881,-5.7881,-5.7881,-5.7949,-5.7983,-5.8017,-5.7949,-5.778,-5.7679,-5.7509,-5.7408,-5.734,-5.7577,-5.7814,-5.7915,-5.8084,-5.8254,-5.8118,-5.7881,-6.7523,-6.7489,-6.71,-6.7056,-6.718,-6.7346,-6.7304,-6.7139,-6.693,-6.6812,-6.6812,-6.6812,-6.6938,-6.7139,-6.7097,-6.7139,-6.718,-6.718,-6.7222,-6.7428,-6.7475,-6.7638,-6.7759,-6.7799,-6.7759,-6.7638,-6.7638,-6.7678,-6.7638,-6.751,-6.7387,-6.7304,-6.718,-6.698,-6.6896,-6.6745,-6.6643,-6.617,-6.5831,-6.5459,-6.4918,-6.4309,-6.3734,-6.3429,-6.3057,-6.2685,-6.2482,-6.2415,-6.2415,-6.2415,-6.2415,-6.2415,-6.2415,-6.2415,-6.2415,-6.2415,-6.2415,-6.2415,-6.2415,-6.2415,-6.2415,-6.2415,-6.2415,-6.2415,-6.2415,-6.2415,-6.2415,-6.2212,-6.1873,-6.1738,-6.1501,-6.0892,-6.0757,-6.0689,-6.0419,-6.008,-5.9641,-5.9438,-5.9366,-5.9366,-5.9363,-5.9625,-5.9717,-5.9085,-5.8511,-5.8294,-5.8111,-5.7924,-5.7769,-5.7698,-5.7662,-5.7808,-5.7881,-5.7881,-5.7881,-5.7881,-5.7881,-5.7881,-5.7881,-5.7881,-5.7881,-5.7949,-5.7915,-5.7881,-5.778,-5.7712,-5.7814,-5.7881,-5.7915,-5.7983,-5.8017,-5.8287,-5.8592,-5.8389,-5.8051,-6.6846,-6.6812,-6.7097,-6.7139,-6.718,-6.718,-6.718,-6.718,-6.693,-6.6812,-6.6812,-6.6812,-6.6896,-6.7097,-6.6896,-6.6938,-6.7097,-6.7139,-6.718,-6.7263,-6.7387,-6.7557,-6.7719,-6.7799,-6.7799,-6.7759,-6.7678,-6.7638,-6.755,-6.7469,-6.7346,-6.7263,-6.7346,-6.7139,-6.6972,-6.6812,-6.6745,-6.6474,-6.617,-6.5899,-6.5595,-6.5019,-6.4444,-6.4038,-6.3666,-6.3193,-6.2888,-6.2618,-6.2482,-6.2448,-6.2415,-6.2415,-6.2415,-6.2415,-6.2415,-6.2415,-6.2415,-6.2415,-6.2415,-6.2415,-6.2415,-6.2415,-6.2415,-6.2415,-6.2415,-6.2415,-6.2415,-6.2415,-6.2212,-6.2279,-6.2212,-6.2009,-6.1839,-6.1637,-6.1366,-6.0892,-6.0351,-6.011,-6.011,-6.0072,-6.0034,-6.0126,-6.0117,-5.965,-5.9047,-5.9069,-5.8748,-5.8006,-5.7853,-5.7695,-5.7662,-5.7845,-5.7881,-5.7881,-5.7881,-5.7881,-5.7881,-5.7881,-5.7881,-5.7881,-5.7881,-5.7881,-5.7881,-5.7881,-5.7881,-5.7881,-5.7881,-5.7983,-5.8118,-5.8152,-5.8186,-5.8389,-5.8693,-5.8592,-5.8321,-6.6812,-6.6812,-6.6854,-6.693,-6.693,-6.693,-6.7014,-6.7139,-6.6896,-6.6812,-6.6812,-6.6812,-6.6854,-6.693,-6.6812,-6.6854,-6.6896,-6.6972,-6.7056,-6.7139,-6.7263,-6.751,-6.7678,-6.7799,-6.7879,-6.7919,-6.7839,-6.7759,-6.7839,-6.7719,-6.7475,-6.7469,-6.7428,-6.7263,-6.7097,-6.6896,-6.6854,-6.6745,-6.6474,-6.6406,-6.6237,-6.573,-6.5222,-6.4884,-6.4444,-6.3937,-6.3396,-6.3125,-6.2956,-6.255,-6.2448,-6.2415,-6.2415,-6.2415,-6.2415,-6.2415,-6.2415,-6.2415,-6.2415,-6.2415,-6.2415,-6.2415,-6.2415,-6.2415,-6.2415,-6.2415,-6.2415,-6.2415,-6.2415,-6.2415,-6.2415,-6.2313,-6.2245,-6.2076,-6.1873,-6.1569,-6.1023,-6.0777,-6.0738,-6.07,-6.0661,-6.0835,-6.079,-6.0107,-5.9602,-5.9766,-5.9453,-5.8677,-5.7972,-5.7816,-5.7658,-5.7808,-5.7881,-5.7881,-5.7915,-5.7915,-5.7915,-5.7881,-5.7983,-5.8051,-5.8017,-5.8017,-5.7915,-5.7983,-5.8186,-5.8051,-5.7881,-5.8118,-5.8524,-5.8355,-5.8355,-5.8558,-5.8693,-5.8626,-5.8423,-6.6812,-6.6812,-6.6812,-6.6812,-6.6812,-6.6812,-6.6896,-6.698,-6.6854,-6.6812,-6.6812,-6.6812,-6.6812,-6.6812,-6.6896,-6.6896,-6.6812,-6.6938,-6.7056,-6.6938,-6.7022,-6.7263,-6.7475,-6.7678,-6.7799,-6.7879,-6.7919,-6.7839,-6.7959,-6.7919,-6.7719,-6.7638,-6.755,-6.7387,-6.7263,-6.7139,-6.698,-6.6854,-6.6779,-6.6812,-6.6609,-6.6339,-6.6068,-6.5662,-6.5189,-6.4681,-6.3971,-6.3768,-6.3362,-6.3057,-6.2956,-6.2584,-6.2618,-6.2618,-6.2415,-6.2415,-6.2415,-6.2415,-6.2415,-6.2415,-6.2415,-6.2415,-6.2415,-6.2415,-6.2415,-6.2415,-6.2415,-6.2415,-6.2415,-6.2415,-6.2415,-6.2415,-6.2381,-6.2381,-6.2279,-6.2105,-6.179,-6.147,-6.1397,-6.1324,-6.1425,-6.1559,-6.1324,-6.0572,-6.0337,-6.0723,-6.0482,-5.9626,-5.8782,-5.8111,-5.782,-5.7698,-5.7808,-5.7881,-5.7949,-5.8152,-5.8321,-5.8389,-5.8457,-5.849,-5.8321,-5.8423,-5.8592,-5.8592,-5.8592,-5.8558,-5.8592,-5.8761,-5.9032,-5.8829,-5.8761,-5.8998,-5.9032,-5.8795,-5.849,-6.6812,-6.6812,-6.6812,-6.6812,-6.6812,-6.6812,-6.6812,-6.6812,-6.6812,-6.6812,-6.6812,-6.6812,-6.6812,-6.6854,-6.7014,-6.7014,-6.6938,-6.7014,-6.698,-6.6812,-6.6854,-6.7056,-6.7263,-6.7353,-6.7597,-6.7719,-6.7799,-6.7759,-6.7799,-6.7839,-6.7879,-6.7839,-6.7919,-6.7719,-6.7346,-6.7304,-6.7105,-6.6854,-6.6812,-6.6812,-6.6812,-6.6677,-6.6508,-6.5967,-6.5696,-6.5392,-6.4647,-6.4208,-6.3903,-6.3835,-6.3666,-6.3125,-6.299,-6.2753,-6.2482,-6.2415,-6.2415,-6.2415,-6.2415,-6.2415,-6.2415,-6.2415,-6.2415,-6.2415,-6.2415,-6.2415,-6.2415,-6.2415,-6.2415,-6.2415,-6.2415,-6.2415,-6.2415,-6.2415,-6.2347,-6.2201,-6.1947,-6.1654,-6.1568,-6.1568,-6.1568,-6.1743,-6.1834,-6.115,-6.1009,-6.1576,-6.1127,-6.0265,-5.9727,-5.8815,-5.8455,-5.8096,-5.8346,-5.8558,-5.8389,-5.8626,-5.8896,-5.9032,-5.9032,-5.9099,-5.9099,-5.9201,-5.9336,-5.9302,-5.9235,-5.9471,-5.9607,-5.9607,-5.9505,-5.937,-5.937,-5.9539,-5.9438,-5.9133,-5.8761,-6.6812,-6.6812,-6.6812,-6.6812,-6.6812,-6.6812,-6.6812,-6.6812,-6.6812,-6.6779,-6.6812,-6.6812,-6.6779,-6.6787,-6.7097,-6.7097,-6.6938,-6.7097,-6.698,-6.6896,-6.6812,-6.6896,-6.7139,-6.7263,-6.751,-6.7638,-6.7678,-6.7678,-6.7839,-6.7959,-6.8004,-6.7965,-6.7965,-6.7678,-6.7428,-6.7387,-6.7139,-6.6812,-6.6812,-6.6812,-6.6812,-6.6812,-6.6677,-6.6508,-6.6406,-6.5764,-6.5189,-6.5019,-6.441,-6.3903,-6.414,-6.3869,-6.3497,-6.2821,-6.2482,-6.2415,-6.2516,-6.2516,-6.2482,-6.2448,-6.2415,-6.2381,-6.2381,-6.2381,-6.2415,-6.2415,-6.2415,-6.2415,-6.2415,-6.2415,-6.2415,-6.2415,-6.2415,-6.2415,-6.2381,-6.2189,-6.1997,-6.1837,-6.1709,-6.175,-6.1716,-6.1837,-6.1963,-6.1969,-6.189,-6.1547,-6.1031,-6.0482,-6.0393,-5.9823,-5.9698,-5.9443,-5.946,-5.9539,-5.9201,-5.9235,-5.9607,-5.9674,-5.9641,-5.9742,-5.9844,-5.9776,-5.9742,-5.9877,-5.9945,-6.0216,-6.025,-6.0047,-5.9945,-5.9945,-6.008,-6.0317,-5.9979,-5.9641,-5.9235,-6.6812,-6.6779,-6.644,-6.6305,-6.6305,-6.6305,-6.6136,-6.5899,-6.617,-6.6136,-6.6,-6.644,-6.6643,-6.6592,-6.701,-6.718,-6.7022,-6.7222,-6.718,-6.7056,-6.6854,-6.6854,-6.7014,-6.7139,-6.7387,-6.7557,-6.7678,-6.7759,-6.7919,-6.7919,-6.7959,-6.8044,-6.7919,-6.7719,-6.7475,-6.7304,-6.7056,-6.6812,-6.6812,-6.677,-6.6812,-6.6812,-6.6812,-6.6812,-6.6609,-6.6034,-6.5662,-6.5493,-6.5155,-6.4749,-6.4918,-6.4613,-6.4208,-6.37,-6.3463,-6.3328,-6.3193,-6.2888,-6.2787,-6.2584,-6.2415,-6.2381,-6.2229,-6.2189,-6.2189,-6.2189,-6.2302,-6.2302,-6.2381,-6.2415,-6.2415,-6.2415,-6.2415,-6.2415,-6.2223,-6.1997,-6.1797,-6.1628,-6.1628,-6.1709,-6.179,-6.1997,-6.2116,-6.2229,-6.2156,-6.2082,-6.1419,-6.1199,-6.1037,-6.0841,-6.0751,-6.0588,-6.0507,-6.0212,-5.9742,-5.9979,-6.0486,-6.0452,-6.0283,-6.0486,-6.0622,-6.0283,-6.0148,-6.0588,-6.0858,-6.0926,-6.0926,-6.0825,-6.0723,-6.0723,-6.0926,-6.1129,-6.0655,-6.025,-6.0047,-6.6745,-6.6576,-6.5865,-6.5561,-6.5561,-6.5561,-6.5222,-6.4816,-6.529,-6.5155,-6.4749,-6.5899,-6.6068,-6.6302,-6.6794,-6.7059,-6.727,-6.7387,-6.7346,-6.7139,-6.6896,-6.6854,-6.6896,-6.7022,-6.727,-6.7516,-6.7719,-6.7919,-6.8044,-6.7965,-6.7999,-6.8039,-6.7919,-6.7678,-6.7475,-6.7304,-6.7056,-6.6854,-6.677,-6.677,-6.677,-6.6812,-6.6812,-6.6812,-6.6745,-6.6406,-6.5933,-6.5797,-6.5764,-6.5628,-6.5493,-6.5222,-6.485,-6.4444,-6.4174,-6.3971,-6.3565,-6.3328,-6.3125,-6.2651,-6.2482,-6.2341,-6.215,-6.207,-6.207,-6.2144,-6.2223,-6.2263,-6.2375,-6.2415,-6.2415,-6.2415,-6.2415,-6.2341,-6.211,-6.1837,-6.1628,-6.1424,-6.1547,-6.1669,-6.187,-6.2037,-6.2189,-6.2341,-6.2341,-6.2341,-6.2302,-6.215,-6.1969,-6.1739,-6.1576,-6.1413,-6.1255,-6.0854,-6.0385,-6.0723,-6.1226,-6.1129,-6.1028,-6.1264,-6.14,-6.1163,-6.1231,-6.1704,-6.1941,-6.1665,-6.1767,-6.1801,-6.1699,-6.1395,-6.1569,-6.1704,-6.1467,-6.1129,-6.1129,-6.6474,-6.5831,-6.5121,-6.4816,-6.4816,-6.4816,-6.4715,-6.4647,-6.4715,-6.4377,-6.414,-6.458,-6.5155,-6.5737,-6.6283,-6.6739,-6.7304,-6.7428,-6.7346,-6.718,-6.6896,-6.6812,-6.6854,-6.698,-6.7146,-6.7475,-6.7799,-6.8004,-6.8083,-6.8044,-6.8044,-6.8083,-6.7919,-6.7678,-6.7475,-6.7304,-6.7056,-6.6854,-6.6686,-6.6677,-6.677,-6.677,-6.6812,-6.6812,-6.6812,-6.6339,-6.6034,-6.6305,-6.6136,-6.5899,-6.573,-6.5628,-6.5459,-6.5087,-6.4749,-6.4478,-6.4072,-6.3565,-6.3226,-6.2821,-6.2618,-6.255,-6.2392,-6.2232,-6.2232,-6.234,-6.2346,-6.2285,-6.2364,-6.2448,-6.2448,-6.2415,-6.2415,-6.2223,-6.203,-6.175,-6.1465,-6.1424,-6.1506,-6.1669,-6.1797,-6.1957,-6.2076,-6.2229,-6.2341,-6.2341,-6.2341,-6.2229,-6.2263,-6.2302,-6.2302,-6.2105,-6.1868,-6.167,-6.1231,-6.1496,-6.1868,-6.1772,-6.1631,-6.1689,-6.1824,-6.2144,-6.2313,-6.2195,-6.2195,-6.2026,-6.2229,-6.2189,-6.2088,-6.1818,-6.2105,-6.2178,-6.2042,-6.1839,-6.167]},{"header":{"parameterUnit":"m.s-1","parameterCategory":1,"la1":31.0,"la2":29.5877,"lo1":-88.7671,"lo2":-86.6584,"dy":0.0162,"dx":0.0185,"nx":115,"ny":88,"refTime":"2023-04-03T00:00:00:Z","depth":0,"parameterNumber":3,"parameterNumberName":"V-component_of_WINDS"},"data":[0.0,0.0,0.0,0.0,0.0,0.0,0.0,0.0,0.0,0.0,0.0,0.0,0.0,0.0,0.0,0.0,0.0,0.0,0.0,0.0,0.0,0.0,0.0,0.0,0.0,0.0,0.0,0.0,0.0,0.0,0.0,0.0,0.0,0.0,0.0,0.0,0.0,0.0,0.0,0.0,0.0,0.0,0.0,0.0,0.0,0.0,0.0,0.0,0.0,0.0,0.0,0.0,0.0,0.0,0.0,0.0,0.0,0.0,0.0,0.0,0.0,0.0,0.0,0.0,0.0,0.0,0.0,0.0,0.0,0.0,0.0,0.0,0.0,0.0,0.0,0.0,0.0,0.0,0.0,0.0,0.0,0.0,0.0,0.0,0.0,0.0,0.0,0.0,0.0,0.0,0.0,0.0,0.0,0.0,0.0,0.0,0.0,0.0,0.0,0.0,0.0,0.0,0.0,0.0,0.0,0.0,0.0,0.0,0.0,0.0,0.0,0.0,0.0,0.0,0.0,0.0,0.0,0.0,0.0,0.0,0.0,0.0,0.0,0.0,0.0,0.0,0.0,0.0,0.0,0.0,0.0,0.0,0.0,0.0,0.0,0.0,0.0,0.0,0.0,0.0,0.0,0.0,0.0,0.0,0.0,0.0,0.0,0.0,0.0,0.0,0.0,0.0,0.0,0.0,0.0,0.0,0.0,0.0,0.0,0.0,0.0,0.0,0.0,0.0,0.0,0.0,0.0,0.0,0.0,0.0,0.0,0.0,0.0,0.0,0.0,0.0,0.0,0.0,0.0,0.0,0.0,0.0,0.0,0.0,0.0,0.0,0.0,0.0,0.0,0.0,0.0,0.0,0.0,0.0,0.0,0.0,0.0,0.0,0.0,0.0,0.0,0.0,0.0,0.0,0.0,0.0,0.0,0.0,0.0,0.0,0.0,0.0,0.0,0.0,0.0,0.0,0.0,0.0,0.0,0.0,0.0,0.0,0.0,0.0,0.0,0.0,0.0,0.0,0.0,0.0,0.0,0.0,0.0,0.0,0.0,0.0,0.0,0.0,0.0,0.0,0.0,0.0,0.0,0.0,0.0,0.0,0.0,0.0,0.0,0.0,0.0,0.0,0.0,0.0,0.0,0.0,0.0,0.0,0.0,0.0,0.0,0.0,0.0,0.0,0.0,0.0,0.0,0.0,0.0,0.0,0.0,0.0,0.0,0.0,0.0,0.0,0.0,0.0,0.0,0.0,0.0,0.0,0.0,0.0,0.0,0.0,0.0,0.0,0.0,0.0,0.0,0.0,0.0,0.0,0.0,0.0,0.0,0.0,0.0,0.0,0.0,0.0,0.0,0.0,0.0,0.0,0.0,0.0,0.0,0.0,0.0,0.0,0.0,0.0,0.0,0.0,0.0,0.0,0.0,0.0,0.0,0.0,0.0,0.0,0.0,0.0,0.0,0.0,0.0,0.0,0.0,0.0,0.0,0.0,0.0,0.0,0.0,0.0,0.0,0.0,0.0,0.0,0.0,0.0,0.0,0.0,0.0,0.0,0.0,0.0,0.0,0.0,0.0,0.0,0.0,0.0,0.0,0.0,0.0,0.0,0.0,0.0,0.0,0.0,0.0,0.0,0.0,0.0,0.0,0.0,0.0,0.0,0.0,0.0,0.0,0.0,0.0,0.0,0.0,0.0,0.0,0.0,0.0,0.0,0.0,0.0,0.0,0.0,0.0,0.0,0.0,0.0,0.0,0.0,0.0,0.0,0.0,0.0,0.0,0.0,0.0,0.0,0.0,0.0,0.0,0.0,0.0,0.0,0.0,0.0,0.0,0.0,0.0,0.0,0.0,0.0,0.0,0.0,0.0,0.0,0.0,0.0,0.0,0.0,0.0,0.0,0.0,0.0,0.0,0.0,0.0,0.0,0.0,0.0,0.0,0.0,0.0,0.0,0.0,0.0,0.0,0.0,0.0,0.0,0.0,0.0,0.0,0.0,0.0,0.0,0.0,0.0,0.0,0.0,0.0,0.0,0.0,0.0,0.0,0.0,0.0,0.0,0.0,0.0,0.0,0.0,0.0,0.0,0.0,0.0,0.0,0.0,0.0,0.0,0.0,0.0,0.0,0.0,0.0,0.0,0.0,0.0,0.0,0.0,0.0,0.0,0.0,0.0,0.0,0.0,0.0,0.0,0.0,0.0,0.0,0.0,0.0,0.0,0.0,0.0,0.0,0.0,0.0,0.0,0.0,0.0,0.0,0.0,0.0,0.0,0.0,0.0,0.0,0.0,0.0,0.0,0.0,0.0,0.0,0.0,0.0,0.0,0.0,0.0,0.0,0.0,0.0,0.0,0.0,0.0,0.0,0.0,0.0,0.0,0.0,0.0,0.0,0.0,0.0,0.0,0.0,0.0,0.0,0.0,0.0,0.0,0.0,0.0,0.0,0.0,0.0,0.0,0.0,0.0,0.0,0.0,0.0,0.0,0.0,0.0,0.0,0.0,0.0,0.0,0.0,0.0,0.0,0.0,0.0,0.0,0.0,0.0,0.0,0.0,0.0,0.0,0.0,0.0,0.0,0.0,0.0,0.0,0.0,0.0,0.0,0.0,0.0,0.0,0.0,0.0,0.0,0.0,0.0,0.0,0.0,0.0,0.0,0.0,0.0,0.0,0.0,0.0,0.0,0.0,0.0,0.0,0.0,0.0,0.0,0.0,0.0,0.0,0.0,0.0,0.0,0.0,0.0,0.0,0.0,0.0,0.0,0.0,0.0,0.0,0.0,0.0,0.0,0.0,0.0,0.0,0.0,0.0,0.0,0.0,0.0,0.0,0.0,0.0,0.0,0.0,0.0,0.0,0.0,0.0,0.0,0.0,0.0,0.0,0.0,0.0,0.0,0.0,0.0,0.0,0.0,0.0,0.0,0.0,0.0,0.0,0.0,0.0,0.0,0.0,0.0,0.0,0.0,0.0,0.0,0.0,0.0,0.0,0.0,0.0,0.0,0.0,0.0,0.0,0.0,0.0,0.0,0.0,0.0,0.0,0.0,0.0,0.0,0.0,0.0,0.0,0.0,0.0,0.0,0.0,0.0,0.0,0.0,0.0,0.0,0.0,0.0,0.0,0.0,0.0,0.0,0.0,0.0,0.0,0.0,0.0,0.0,0.0,0.0,0.0,0.0,0.0,0.0,0.0,0.0,0.0,0.0,0.0,0.0,0.0,0.0,0.0,0.0,0.0,0.0,0.0,0.0,0.0,0.0,0.0,0.0,0.0,0.0,0.0,0.0,0.0,0.0,0.0,0.0,0.0,0.0,0.0,0.0,0.0,0.0,0.0,0.0,0.0,0.0,0.0,0.0,0.0,0.0,0.0,0.0,0.0,0.0,0.0,0.0,0.0,0.0,0.0,0.0,0.0,0.0,0.0,0.0,0.0,0.0,0.0,0.0,0.0,0.0,0.0,0.0,0.0,0.0,0.0,0.0,0.0,0.0,0.0,0.0,0.0,0.0,0.0,0.0,0.0,0.0,0.0,0.0,0.0,0.0,0.0,0.0,0.0,0.0,0.0,0.0,0.0,0.0,0.0,0.0,0.0,0.0,0.0,0.0,0.0,0.0,0.0,0.0,0.0,0.0,0.0,0.0,0.0,0.0,0.0,0.0,0.0,0.0,0.0,0.0,0.0,0.0,0.0,0.0,0.0,0.0,0.0,0.0,0.0,0.0,0.0,0.0,0.0,0.0,0.0,0.0,0.0,0.0,0.0,0.0,0.0,0.0,0.0,0.0,0.0,0.0,0.0,0.0,0.0,0.0,0.0,0.0,0.0,0.0,0.0,0.0,0.0,0.0,0.0,0.0,0.0,0.0,0.0,0.0,0.0,0.0,0.0,0.0,0.0,0.0,0.0,0.0,0.0,0.0,0.0,0.0,0.0,0.0,0.0,0.0,0.0,0.0,0.0,0.0,0.0,0.0,0.0,0.0,0.0,0.0,0.0,0.0,0.0,0.0,0.0,0.0,0.0,0.0,0.0,0.0,0.0,0.0,0.0,0.0,0.0,0.0,0.0,0.0,0.0,0.0,0.0,0.0,0.0,0.0,0.0,0.0,0.0,0.0,0.0,0.0,0.0,0.0,0.0,0.0,0.0,0.0,0.0,0.0,0.0,0.0,0.0,0.0,0.0,0.0,0.0,0.0,0.0,0.0,0.0,0.0,0.0,0.0,0.0,0.0,0.0,0.0,0.0,0.0,0.0,0.0,0.0,0.0,0.0,0.0,0.0,0.0,0.0,0.0,0.0,0.1309,0.0,0.0,0.0,0.0,0.0,0.0,0.0,0.0,0.0,0.0,0.0,0.0,0.0,0.0,0.0,0.0,0.0,0.0,0.0,0.0,0.0,0.0,0.0,0.0,0.0,0.0,0.0,0.0,0.0,0.0,0.0,0.0,0.0,0.0,0.0,0.0,0.0,0.0,0.0,0.0,0.0,0.0,0.0,0.0,0.0,0.0,0.0,0.0,0.0,0.0,0.0,0.0,0.0,0.0,0.0,0.0,0.0,0.0,0.0,0.0,0.0,0.0,0.0,0.0,0.0,0.0,0.0,0.0,0.0,0.0,0.0,0.0,0.0,0.0,0.0,0.0,0.0,0.0,0.0,0.0,0.0,0.0,0.0,0.0,0.0,0.0,0.0,0.0,0.0,0.0,0.0,0.0,0.0,0.0,0.0,0.0,0.0,0.0,0.0,0.0,0.0,0.0,0.0,0.0,0.0,0.0,0.0,0.0,0.0,0.0,0.6181,0.4792,0.3337,0.2287,0.1605,0.0,0.0,0.0,0.0,0.0,0.0,0.0,0.0,0.0,0.0,0.0,0.0,0.0,0.0,0.0,0.0,0.0,0.0,0.0,0.0,0.0,0.0,0.0,0.0,0.0,0.0,0.0,0.0,0.0,0.0,0.0,0.0,0.0,0.0,0.0,0.0,0.0,0.0,0.0,0.0,0.0,0.0,0.0,0.0,0.0,0.0,0.0,0.0,0.0,0.0,0.0,0.0,0.0,0.0,0.0,0.0,0.0,0.0,0.0,0.0,0.0,0.0,0.0,0.0,0.0,0.0,0.0,0.0,0.0,0.0,0.0,0.0,0.0,0.0,0.0,0.0,0.0,0.0,0.0,0.0,0.0,0.0,0.0,0.0,0.0,0.0,0.0,0.0,0.0,0.0,0.0,0.0,0.0,0.0,0.0,0.0,0.0,0.0,0.0,0.0,0.0,0.0,0.0,0.0,0.0,0.0,0.0,0.0,0.0,0.0,0.0,0.0,0.3833,0.2684,0.1903,0.0,0.0,0.0,0.0,0.0,0.0,0.0,0.0,0.0,0.0,0.0,0.0,0.0,0.0,0.0,0.0,0.0,0.0,0.0,0.0,0.0,0.0,0.0,0.0,0.0,0.0,0.0,0.0,0.0,0.0,0.0,0.0,0.0,0.0,0.0,0.0,0.0,0.0,0.0,0.0,0.0,0.0,0.0,0.0,0.0,0.0,0.0,0.0,0.0,0.0,0.0,0.0,0.0,0.0,0.0,0.0,0.0,0.0,0.0,0.0,0.0,0.0,0.0,0.0,0.0,0.0,0.0,0.0,0.0,0.0,0.0,0.0,0.0,0.0,0.0,0.0,0.0,0.0,0.0,0.0,0.0,0.0,0.0,0.0,0.0,0.0,0.0,0.0,0.0,0.0,0.0,0.0,0.0,0.0,0.0,0.0,0.0,0.0,0.0,0.0,0.0,0.0,0.0,0.0,0.0,0.0,0.0,0.0,0.0,0.0,0.7856,0.5991,0.4943,0.0,0.2082,0.0,0.0,0.0,0.0,0.0,0.0,0.0,0.0,0.0,0.0,0.0,0.0,0.0,0.0,0.0,0.0,0.0,0.0,0.0,0.0,0.0,0.0,0.0,0.0,0.0,0.0,0.0,0.0,0.0,0.0,0.0,0.0,0.0,0.0,0.0,0.0,0.0,0.0,0.0,0.0,0.0,0.0,0.0,0.0,0.0,0.0,0.0,0.0,0.0,0.0,0.0,0.0,0.0,0.0,0.0,0.0,0.0,0.0,0.0,0.0,0.0,0.0,0.0,0.0,0.0,0.0,0.0,0.0,0.0,0.0,0.0,0.0,0.0,0.0,0.0,0.0,0.0,0.0,0.0,0.0,0.0,0.0,0.0,0.0,0.0,0.0,0.0,0.0,0.0,0.0,0.0,0.0,0.0,0.0,0.0,0.0,0.0,0.0,0.0,0.0,0.0,0.0,0.0,0.0,0.0,0.0,0.0,0.0,0.0,0.0,0.8725,0.7789,0.5628,0.3886,0.0,0.0,0.0,0.0,0.0,0.0,0.0,0.0,0.0,0.0,0.0,0.0,0.0,0.0,0.0,0.0,0.0,0.0,0.0,0.0,0.0,0.0,0.0,0.0,0.0,0.0,0.0,0.0,0.0,0.0,0.0,0.0,0.0,0.0,0.0,0.0,0.0,0.0,0.0,0.0,0.0,0.0,0.0,0.0,0.0,0.0,0.0,0.0,0.0,0.0,0.0,0.0,0.0,0.0,0.0,0.0,0.0,0.0,0.0,0.0,0.0,0.0,0.0,0.0,0.0,0.0,0.0,0.0,0.0,0.0,0.0,0.0,0.0,0.0,0.0,0.0,0.0,0.0,0.0,0.0,0.0,0.0,0.0,0.0,0.0,0.0,0.0,0.0,0.0,0.0,0.0,0.0,0.0,0.0,0.0,0.0,0.0,0.0,0.0,0.0,0.0,0.0,0.0,0.0,0.0,0.0,0.0,0.0,0.0,0.0,1.0937,0.9535,0.8429,0.5845,0.4036,0.3229,0.0,0.0,0.0,0.0,0.0,0.0,0.0,0.0,0.0,0.0,0.0,0.0,0.0,0.0,0.0,0.0,0.0,0.0,0.0,0.0,0.0,0.0,0.0,0.0,0.0,0.0,0.0,0.0,0.0,0.0,0.0,0.0,0.0,0.0,0.0,0.0,0.0,0.0,0.0,0.0,0.0,0.0,0.0,0.0,0.0,0.0,0.0,0.0,0.0,0.0,0.0,0.0,0.0,0.0,0.0,0.0,0.0,0.0,0.0,0.0,0.0,0.0,0.0,0.0,0.0,0.0,0.0,0.0,0.0,0.0,0.0,0.0,0.0,0.0,0.0,0.0,0.0,0.0,0.0,0.0,0.0,0.0,0.0,0.0,0.0,0.0,0.0,0.0,0.0,0.0,0.0,0.0,0.0,0.0,0.0,0.0,0.0,0.0,0.0,0.0,0.0,0.0,0.0,0.0,0.0,0.0,0.0,0.0,1.3308,1.21,1.0168,0.7471,0.5381,0.4107,0.0,0.0,0.0,0.0,0.0,0.0,0.0,0.0,0.0,0.0,0.0,0.0,0.0,0.0,0.0,0.0,0.0,0.0,0.0,0.0,0.0,0.0,0.0,0.0,0.0,0.0,0.0,0.0,0.0,0.0,0.0,0.0,0.0,0.0,0.0,0.0,0.0,0.0,0.0,0.0,0.0,0.0,0.0,0.0,0.0,0.0,0.0,0.0,0.0,0.0,0.0,0.0,0.0,0.0,0.0,0.0,0.0,0.0,0.0,0.0,0.0,0.0,0.0,0.0,0.0,0.0,0.0,0.0,0.0,0.0,0.0,0.0,0.0,0.0,0.0,0.0,0.0,0.0,0.0,0.0,0.0,0.0,0.0,0.0,0.0,0.0,0.0,0.0,0.0,0.0,0.0,0.0,0.0,0.0,0.0,0.0,0.0,0.0,0.0,0.0,0.0,0.0,0.0,0.0,0.0,0.0,0.0,0.0,0.0,1.3526,1.2179,1.0283,0.7889,0.6572,0.5705,0.0,0.0,0.0,0.0,0.0,0.0,0.0,0.0,0.0,0.0,0.0,0.0,0.0,0.0,0.0,0.0,0.0,0.0,0.0,0.0,0.0,0.0,0.0,0.0,0.0,0.0,0.0,0.0,0.0,0.0,0.0,0.0,0.0,0.0,0.0,0.0,0.0,0.0,0.0,0.0,0.0,0.0,0.0,0.0,0.0,0.0,0.0,0.0,0.0,0.0,0.0,0.0,0.0,0.0,0.0,0.0,0.0,0.0,0.0,0.0,0.0,0.0,0.0,0.0,0.0,0.0,0.0,0.0,0.0,0.0,0.0,0.0,0.0,0.0,0.0,0.0,0.0,0.0,0.0,0.0,0.0,0.0,0.0,0.0,0.0,0.0,0.0,0.0,0.0,0.0,0.0,0.0,0.0,0.0,0.0,0.0,0.0,0.0,0.0,0.0,0.0,0.0,0.0,0.0,0.0,0.0,0.0,0.0,0.0,1.3353,0.0,1.051,0.8644,0.7463,0.6604,0.0,0.0,0.0,0.0,0.0,0.0,0.0,0.0,0.0,0.0,0.0,0.0,0.0,0.0,0.0,0.0,0.0,0.0,0.0,0.0,0.0,0.0,0.0,0.0,0.0,0.0,0.0,0.0,0.0,0.0,0.0,0.0,0.0,0.0,0.0,0.0,0.0,0.0,0.0,0.0,0.0,0.0,0.0,0.0,0.0,0.0,0.0,0.0,0.0,0.0,0.0,0.0,0.0,0.0,0.0,0.0,0.0,0.0,0.0,0.0,0.0,0.0,0.0,0.0,0.0,0.0,0.0,0.0,0.0,0.0,0.0,0.0,0.0,0.0,0.0,0.0,0.0,0.0,0.0,0.0,0.0,0.0,0.0,0.0,0.0,0.0,0.0,0.0,0.0,0.0,0.0,0.0,0.0,0.0,0.0,0.0,0.0,0.0,0.0,0.0,0.0,0.0,0.0,0.0,0.0,0.0,0.0,0.0,1.3896,1.2718,1.1931,1.0899,0.9629,0.7851,0.6649,0.0,0.0,0.0,0.0,0.0,0.0,0.0,0.0,0.0,0.0,0.0,0.0,0.0,0.0,0.0,0.0,0.0,0.0,0.0,0.0,0.0,0.0,0.0,0.0,0.0,0.0,0.0,0.0,0.0,0.0,0.0,0.0,0.0,0.0,0.0,0.0,0.0,0.0,0.0,0.0,0.0,0.0,0.0,0.0,0.0,0.0,0.0,0.0,0.0,0.0,0.0,0.0,0.0,0.0,0.0,0.0,0.0,0.0,0.0,0.0,0.0,0.0,0.0,0.0,0.0,0.0,0.0,0.0,0.0,0.0,0.0,0.0,0.0,0.0,0.0,0.0,0.0,0.0,0.0,0.0,0.0,0.0,0.0,0.0,0.0,0.0,0.0,0.0,0.0,0.0,0.0,0.0,0.0,0.0,0.0,0.0,0.0,0.0,0.0,0.0,0.0,0.0,0.0,0.0,0.0,0.0,0.0,0.0,0.0,1.3035,1.218,1.1409,1.0531,0.889,0.8071,0.0,0.0,0.0,0.0,0.0,0.0,0.0,0.0,0.0,0.0,0.0,0.0,0.0,0.0,0.0,0.0,0.0,0.0,0.0,0.0,0.0,0.0,0.0,0.0,0.0,0.0,0.0,0.0,0.0,0.0,0.0,0.0,0.0,0.0,0.0,0.0,0.0,0.0,0.0,0.0,0.0,0.0,0.0,0.0,0.0,0.0,0.0,0.0,0.0,0.0,0.0,0.0,0.0,0.0,0.0,0.0,0.0,0.0,0.0,0.0,0.0,0.0,0.0,0.0,0.0,0.0,0.0,0.0,0.0,0.0,0.0,0.0,0.0,0.0,0.0,0.0,0.0,0.0,0.0,0.0,0.0,0.0,0.0,0.0,0.0,0.0,0.0,0.0,0.0,0.0,0.0,0.0,0.0,0.0,0.0,0.0,0.0,0.0,0.0,0.0,0.0,0.0,0.0,0.0,0.0,0.0,0.0,0.0,0.0,1.4361,1.2909,1.1914,1.1426,0.9653,0.8824,0.9029,0.0,0.0,0.0,0.0,0.0,0.0,0.0,0.0,0.0,0.0,0.0,0.0,0.0,0.0,0.0,0.0,0.0,0.0,0.0,0.0,0.0,0.0,0.0,0.0,0.0,0.0,0.0,0.0,0.0,0.0,0.0,0.0,0.0,0.0,0.0,0.0,0.0,0.0,0.0,0.0,0.0,0.0,0.0,0.0,0.0,0.0,0.0,0.0,0.0,0.0,0.0,0.0,0.0,0.0,0.0,0.0,0.0,0.0,0.0,0.0,0.0,0.0,0.0,0.0,0.0,0.0,0.0,0.0,0.0,0.0,0.0,0.0,0.0,0.0,0.0,0.0,0.0,0.0,0.0,0.0,0.0,0.0,0.0,0.0,0.0,0.0,0.0,0.0,0.0,0.0,0.0,0.0,0.0,0.0,0.0,0.0,0.0,0.0,0.0,0.0,0.0,0.0,0.0,0.0,0.0,0.0,0.0,0.0,1.6476,1.4066,1.2603,1.2121,1.025,0.9071,0.0,0.0,0.0,0.0,0.0,0.0,0.0,0.0,0.0,0.0,0.0,0.0,0.0,0.0,0.0,0.0,0.0,0.0,0.0,0.0,0.0,0.0,0.0,0.0,0.0,0.0,0.0,0.0,0.0,0.0,0.0,0.0,0.0,0.0,0.0,0.0,0.0,0.0,0.0,0.0,0.0,0.0,0.0,0.0,0.0,0.0,0.0,0.0,0.0,0.0,0.0,0.0,0.0,0.0,0.0,0.0,0.0,0.0,0.0,0.0,0.0,0.0,0.0,0.0,0.0,0.0,0.0,0.0,0.0,0.0,0.0,0.0,0.0,0.0,0.0,0.0,0.0,0.0,0.0,0.0,0.0,0.0,0.0,0.0,0.0,0.0,0.0,0.0,0.0,0.0,0.0,0.0,0.0,0.0,0.0,0.0,0.0,0.0,0.0,0.0,0.0,0.0,0.0,0.0,0.0,0.0,0.0,0.0,0.0,1.7063,1.6162,1.4725,1.2869,1.1423,1.0597,0.0,0.0,0.0,0.0,0.0,0.0,0.0,0.0,0.0,0.0,0.0,0.0,0.0,0.0,0.0,0.0,0.0,0.0,0.0,0.0,0.0,0.0,0.0,0.0,0.0,0.0,0.0,0.0,0.0,0.0,0.0,0.0,0.0,0.0,0.0,0.0,0.0,0.0,0.0,0.0,0.0,0.0,0.0,0.0,0.0,0.0,0.0,0.0,0.0,0.0,0.0,0.0,0.0,0.0,0.0,0.0,0.0,0.0,0.0,0.0,0.0,0.0,0.0,0.0,0.0,0.0,0.0,0.0,0.0,0.0,0.0,0.0,0.0,0.0,0.0,0.0,0.0,0.0,0.0,0.0,0.0,0.0,0.0,0.0,0.0,0.0,0.0,0.0,0.0,0.0,0.0,0.0,0.0,0.0,0.0,0.0,0.0,0.0,0.0,0.0,0.0,0.0,0.0,0.0,0.0,0.0,0.0,0.0,1.9695,1.8887,1.7957,1.6533,1.4784,1.2869,1.1753,0.0,0.0,0.0,0.0,0.0,0.0,0.0,0.0,0.0,0.0,0.0,0.0,0.0,0.0,0.0,0.0,0.0,0.0,0.0,0.0,0.0,0.0,0.0,0.0,0.0,0.0,0.0,0.0,0.0,0.0,0.0,0.0,0.0,0.0,0.0,0.0,0.0,0.0,0.0,0.0,0.0,0.0,0.0,0.0,0.0,0.0,0.0,0.0,0.0,0.0,0.0,0.0,0.0,0.0,0.0,0.0,0.0,0.0,0.0,0.0,0.0,0.0,0.0,0.0,0.0,0.0,0.0,0.0,0.0,0.0,0.0,0.0,0.0,0.0,0.0,0.0,0.0,0.0,0.0,0.0,0.0,0.0,0.0,0.0,0.0,0.0,0.0,0.0,0.0,0.0,0.0,0.0,0.0,0.0,0.0,0.0,0.0,0.0,0.0,0.0,0.0,0.0,0.0,0.0,0.0,0.0,0.0,0.0,2.134,2.1168,1.9512,1.8191,1.7217,1.4479,1.2589,0.0,0.0,0.0,0.0,0.0,0.0,0.0,0.0,0.0,0.0,0.0,0.0,0.0,0.0,0.0,0.0,0.0,0.0,0.0,0.0,0.0,0.0,0.0,0.0,0.0,0.0,0.0,0.0,0.0,0.0,0.0,0.0,0.0,0.0,0.0,0.0,0.0,0.0,0.0,0.0,0.0,0.0,0.0,0.0,0.0,0.0,0.0,0.0,0.0,0.0,0.0,0.0,0.0,0.0,0.0,0.0,0.0,0.0,0.0,0.0,0.0,0.0,0.0,0.0,0.0,0.0,0.0,0.0,0.0,0.0,0.0,0.0,0.0,0.0,0.0,0.0,0.0,0.0,0.0,0.0,0.0,0.0,0.0,0.0,0.0,0.0,0.0,0.0,0.0,0.0,0.0,0.0,0.0,0.0,0.0,0.0,0.0,0.0,0.0,0.0,0.0,0.0,0.0,0.0,0.0,0.0,0.0,0.0,2.198,2.1535,2.1086,2.0025,1.8416,1.5726,1.3749,0.0,0.0,0.0,0.0,0.0,0.0,0.0,0.0,0.0,0.0,0.0,0.0,0.0,0.0,0.0,0.0,0.0,0.0,0.0,0.0,0.0,0.0,0.0,0.0,0.0,0.0,0.0,0.0,0.0,0.0,0.0,0.0,0.0,0.0,0.0,0.0,0.0,0.0,0.0,0.0,0.0,0.0,0.0,0.0,0.0,0.0,0.0,0.0,1.163,0.0,0.0,0.0,0.0,0.0,0.0,0.0,0.0,0.0,0.0,0.0,0.0,0.0,0.0,0.0,0.0,0.0,0.0,0.0,0.0,0.0,0.0,0.0,0.0,0.0,0.0,0.0,0.0,0.0,0.0,0.0,0.0,0.0,0.0,0.0,0.0,0.0,0.0,0.0,0.0,0.0,0.0,0.0,0.0,0.0,0.0,0.0,0.0,0.0,0.0,0.0,0.0,0.0,0.0,0.0,0.0,0.0,0.0,0.0,2.2769,2.2443,2.2093,2.132,2.0007,1.7864,1.5859,0.0,0.0,0.0,0.0,0.0,0.0,0.0,0.0,0.0,0.0,0.0,0.0,0.0,0.0,0.0,0.0,0.0,0.0,0.0,0.0,0.0,0.0,0.0,0.0,0.0,0.0,0.0,0.0,0.0,0.0,0.0,0.0,0.0,0.0,0.0,0.0,0.0,0.0,0.0,0.0,0.0,0.0,0.0,0.0,0.0,0.0,0.0,0.0,0.0,0.0,0.0,0.0,0.0,0.0,0.0,0.0,0.0,0.0,0.0,0.0,0.0,0.0,0.0,0.0,0.0,0.0,0.0,0.0,0.0,0.0,0.0,0.0,0.0,0.0,0.0,0.0,0.0,0.0,0.0,0.0,0.0,0.0,0.0,0.0,0.0,0.0,0.0,0.0,0.0,0.0,0.0,0.0,0.0,0.0,0.0,0.0,0.0,0.0,0.0,0.0,0.0,0.0,0.0,0.0,0.0,0.0,0.0,2.3346,2.3555,2.3455,2.2927,2.2327,2.1626,2.021,1.8353,1.6026,0.0,0.0,0.0,0.0,0.0,0.0,0.0,0.0,0.0,0.0,0.0,0.0,0.0,0.0,0.0,0.0,0.0,0.0,0.0,0.0,0.0,0.0,0.0,0.0,0.0,0.0,0.0,0.0,0.0,0.0,0.0,0.0,0.0,0.0,0.0,0.0,0.0,0.0,2.0746,2.0046,0.0,0.0,0.0,0.0,0.0,0.0,0.0,0.0,1.4135,0.0,0.0,0.0,0.0,0.0,0.0,0.0,0.0,0.0,0.0,0.0,0.0,0.0,0.0,0.0,0.0,0.0,0.0,0.0,0.0,0.0,0.0,0.0,0.0,0.0,0.0,0.0,0.0,0.0,0.0,0.0,0.0,0.0,0.0,0.0,0.0,0.0,0.0,0.0,0.0,0.0,0.0,0.0,0.0,0.0,0.0,0.0,0.0,0.0,0.0,0.0,0.0,0.0,0.0,0.0,0.0,2.4012,2.3781,2.4004,2.4661,2.3972,2.3132,2.2303,2.1703,2.0546,1.8812,0.0,0.0,0.0,0.0,0.0,0.0,0.0,0.0,0.0,0.0,0.0,0.0,0.0,0.0,0.0,0.0,0.0,0.0,0.0,0.0,0.0,0.0,0.0,0.0,0.0,0.0,0.0,0.0,0.0,0.0,0.0,0.0,0.0,0.0,0.0,0.0,0.0,0.0,0.0,2.0863,2.0093,0.0,0.0,0.0,0.0,0.0,0.0,0.0,0.0,1.3602,0.0,0.0,0.0,0.0,0.0,0.0,0.0,0.0,0.0,0.0,0.0,0.0,0.0,0.0,0.0,0.0,0.0,0.0,0.0,0.0,0.0,0.0,0.0,0.0,0.0,0.0,0.0,0.0,0.0,0.0,0.0,0.0,0.0,0.0,0.0,0.0,0.0,0.0,0.0,0.0,0.0,0.0,0.0,0.0,0.0,0.0,0.0,0.0,0.0,0.0,0.0,0.0,0.0,0.0,0.0,2.4296,2.446,2.4757,2.5107,2.4464,2.3844,2.312,2.265,2.1754,0.0,0.0,0.0,0.0,0.0,0.0,0.0,0.0,0.0,0.0,0.0,0.0,0.0,0.0,0.0,0.0,0.0,0.0,0.0,0.0,0.0,0.0,0.0,0.0,0.0,0.0,0.0,0.0,0.0,0.0,0.0,0.0,0.0,0.0,0.0,0.0,0.0,0.0,0.0,0.0,2.1616,2.121,2.0982,0.0,0.0,0.0,0.0,0.0,0.0,1.6827,1.5999,0.0,0.0,0.0,0.0,0.0,0.0,0.0,0.0,0.0,0.0,0.0,0.0,0.0,0.0,0.0,0.0,0.0,0.0,0.0,0.0,0.0,0.0,0.0,0.0,0.0,0.0,0.0,0.0,0.0,0.0,0.0,0.0,0.0,0.0,0.0,0.0,0.0,0.0,0.0,0.0,0.0,0.0,0.0,0.0,0.0,0.0,0.0,0.0,0.0,0.0,0.0,0.0,0.0,0.0,0.0,2.4451,2.4986,2.5252,2.5308,2.4842,2.4361,2.3967,2.3415,2.2689,0.0,0.0,0.0,0.0,0.0,0.0,0.0,0.0,0.0,0.0,0.0,0.0,0.0,0.0,0.0,0.0,0.0,0.0,0.0,0.0,0.0,0.0,0.0,0.0,0.0,0.0,0.0,0.0,0.0,0.0,0.0,0.0,0.0,0.0,0.0,0.0,0.0,0.0,0.0,0.0,0.0,2.237,2.2124,2.1422,0.0,0.0,0.0,0.0,1.9378,1.9001,0.0,0.0,0.0,0.0,0.0,0.0,0.0,0.0,0.0,0.0,0.0,0.0,0.0,0.0,0.0,0.0,0.0,0.0,0.0,0.0,0.0,0.0,0.0,0.0,0.0,0.0,0.0,0.0,0.0,0.0,0.0,0.0,0.0,0.0,0.0,0.0,0.0,0.0,0.0,0.0,0.0,0.0,0.0,0.0,0.0,0.0,0.0,0.0,0.0,0.0,0.0,0.0,0.0,0.0,0.0,0.0,2.4777,2.4918,2.5298,2.5769,2.5114,2.4685,2.4625,2.404,2.3738,0.0,0.0,0.0,0.0,0.0,0.0,0.0,0.0,0.0,0.0,0.0,0.0,0.0,0.0,0.0,0.0,0.0,0.0,0.0,0.0,0.0,0.0,0.0,0.0,0.0,0.0,0.0,0.0,0.0,0.0,0.0,0.0,0.0,0.0,0.0,0.0,0.0,0.0,0.0,0.0,0.0,2.3177,2.2367,2.1936,2.1678,0.0,0.0,2.0767,2.1196,2.0521,0.0,0.0,0.0,0.0,0.0,0.0,0.0,0.0,0.0,0.0,0.0,0.0,0.0,0.0,0.0,0.0,0.0,0.0,0.0,0.0,0.0,0.0,0.0,0.0,0.0,0.0,0.0,0.0,0.0,0.0,0.0,0.0,0.0,0.0,0.0,0.0,0.0,0.0,0.0,0.0,0.0,0.0,0.0,0.0,0.0,0.0,0.0,0.0,0.0,0.0,0.0,0.0,0.0,0.0,0.0,2.4482,2.4945,2.5731,2.6433,2.6828,2.6132,2.5711,2.5669,2.5267,2.4697,0.0,0.0,0.0,0.0,0.0,0.0,0.0,0.0,0.0,0.0,0.0,0.0,0.0,0.0,0.0,0.0,0.0,0.0,0.0,0.0,0.0,0.0,0.0,0.0,0.0,0.0,0.0,0.0,0.0,0.0,0.0,0.0,0.0,0.0,0.0,0.0,0.0,0.0,0.0,0.0,0.0,0.0,2.3269,2.2928,0.0,0.0,0.0,2.2017,2.2108,0.0,0.0,0.0,0.0,0.0,0.0,0.0,0.0,0.0,0.0,0.0,0.0,0.0,0.0,0.0,0.0,0.0,0.0,0.0,0.0,0.0,0.0,0.0,0.0,0.0,0.0,0.0,0.0,0.0,0.0,0.0,0.0,0.0,0.0,0.0,0.0,0.0,0.0,0.0,0.0,0.0,0.0,0.0,0.0,0.0,0.0,0.0,0.0,0.0,0.0,0.0,0.0,0.0,0.0,0.0,0.0,0.0,2.5175,2.6337,2.7128,2.7469,2.7054,2.6788,2.6822,2.6589,0.0,0.0,0.0,0.0,0.0,0.0,0.0,0.0,0.0,0.0,0.0,0.0,0.0,0.0,0.0,0.0,0.0,0.0,0.0,0.0,0.0,0.0,0.0,0.0,0.0,0.0,0.0,1.9711,0.0,0.0,0.0,0.0,0.0,0.0,0.0,0.0,0.0,0.0,0.0,0.0,0.0,0.0,2.4093,2.3972,2.4057,2.4003,0.0,0.0,2.3596,2.3442,2.3502,2.3142,0.0,0.0,0.0,0.0,0.0,0.0,0.0,0.0,0.0,0.0,0.0,0.0,0.0,0.0,0.0,0.0,0.0,0.0,0.0,0.0,0.0,0.0,0.0,0.0,0.0,0.0,0.0,0.0,0.0,0.0,0.0,0.0,0.0,0.0,0.0,0.0,0.0,0.0,0.0,0.0,0.0,0.0,0.0,0.0,0.0,0.0,0.0,0.0,0.0,0.0,0.0,0.0,0.0,0.0,0.0,2.5505,2.6313,2.6936,2.7112,2.7453,2.7763,2.8041,2.8037,2.7794,0.0,0.0,0.0,0.0,0.0,0.0,0.0,0.0,0.0,0.0,0.0,0.0,0.0,0.0,0.0,0.0,0.0,0.0,0.0,0.0,0.0,0.0,0.0,0.0,0.0,0.0,0.0,0.0,0.0,0.0,0.0,0.0,0.0,0.0,0.0,0.0,0.0,0.0,0.0,0.0,0.0,2.4713,2.4167,2.5107,2.5898,0.0,0.0,2.5898,2.5868,2.5741,2.519,2.3671,0.0,0.0,0.0,0.0,0.0,0.0,0.0,0.0,0.0,0.0,0.0,0.0,0.0,0.0,0.0,0.0,0.0,0.0,0.0,0.0,0.0,0.0,0.0,0.0,0.0,0.0,0.0,0.0,0.0,0.0,0.0,0.0,0.0,0.0,0.0,0.0,0.0,0.0,0.0,0.0,0.0,0.0,0.0,0.0,0.0,0.0,0.0,0.0,0.0,0.0,0.0,0.0,0.0,2.6185,2.6535,2.8172,2.906,2.9127,2.9561,2.9676,2.9541,2.9126,2.8664,0.0,0.0,0.0,0.0,0.0,0.0,0.0,0.0,0.0,0.0,0.0,0.0,0.0,0.0,0.0,0.0,0.0,0.0,0.0,0.0,0.0,0.0,0.0,0.0,0.0,0.0,0.0,0.0,2.0439,2.0669,2.0996,0.0,0.0,0.0,0.0,0.0,0.0,0.0,0.0,0.0,0.0,2.6017,2.603,2.6595,0.0,0.0,2.7235,2.7102,2.7102,2.6313,2.5366,2.4399,2.3414,0.0,0.0,0.0,0.0,0.0,0.0,0.0,0.0,0.0,0.0,0.0,0.0,0.0,0.0,0.0,0.0,0.0,0.0,0.0,0.0,0.0,0.0,0.0,0.0,0.0,0.0,0.0,0.0,0.0,0.0,0.0,0.0,0.0,0.0,0.0,0.0,0.0,0.0,0.0,0.0,0.0,0.0,0.0,0.0,0.0,0.0,0.0,0.0,0.0,0.0,0.0,0.0,2.7079,2.7332,2.9412,3.0345,3.024,3.0958,3.115,3.0736,3.0476,3.0033,0.0,0.0,0.0,0.0,0.0,0.0,0.0,0.0,0.0,0.0,0.0,0.0,0.0,0.0,0.0,0.0,0.0,0.0,0.0,0.0,0.0,0.0,0.0,0.0,0.0,0.0,0.0,0.0,2.0755,2.1015,2.1664,0.0,0.0,0.0,0.0,0.0,0.0,0.0,0.0,0.0,0.0,2.7084,2.7179,2.7729,2.8252,2.8339,2.8046,2.7851,2.7851,2.7012,2.618,2.5496,0.0,0.0,0.0,0.0,0.0,0.0,0.0,0.0,0.0,0.0,0.0,0.0,0.0,0.0,0.0,0.0,0.0,0.0,0.0,0.0,0.0,0.0,0.0,0.0,0.0,0.0,0.0,0.0,0.0,0.0,2.5873,0.0,0.0,0.0,0.0,0.0,0.0,0.0,0.0,0.0,0.0,0.0,0.0,0.0,0.0,0.0,0.0,0.0,0.0,0.0,0.0,0.0,0.0,2.7716,2.7733,2.956,3.024,2.9909,3.1293,3.1921,3.1517,3.2224,3.2071,3.0891,0.0,0.0,0.0,0.0,0.0,0.0,0.0,0.0,0.0,0.0,0.0,0.0,0.0,0.0,0.0,0.0,0.0,0.0,0.0,0.0,0.0,0.0,0.0,0.0,0.0,0.0,2.1964,2.152,2.1424,0.0,0.0,0.0,0.0,0.0,0.0,0.0,0.0,0.0,0.0,2.6694,2.7906,2.7255,2.8335,2.9142,2.8748,2.8427,2.8237,2.8237,2.8128,2.7919,0.0,0.0,0.0,0.0,0.0,0.0,0.0,0.0,0.0,0.0,0.0,0.0,0.0,0.0,0.0,0.0,0.0,0.0,0.0,0.0,0.0,0.0,0.0,0.0,0.0,0.0,0.0,2.8759,2.8542,0.0,0.0,0.0,0.0,0.0,0.0,0.0,0.0,0.0,0.0,0.0,3.109,3.1832,0.0,0.0,0.0,0.0,0.0,0.0,0.0,0.0,0.0,0.0,0.0,0.0,2.934,2.9934,3.0933,3.1673,3.2052,3.2603,3.2748,3.2621,3.2651,3.2129,3.1,0.0,0.0,0.0,0.0,0.0,0.0,0.0,0.0,0.0,0.0,0.0,0.0,0.0,0.0,0.0,0.0,0.0,0.0,0.0,0.0,0.0,0.0,0.0,0.0,0.0,2.2662,0.0,0.0,0.0,0.0,0.0,0.0,0.0,0.0,0.0,0.0,0.0,2.6105,2.6521,2.7885,2.8774,2.8835,2.9458,2.9851,0.0,0.0,0.0,0.0,0.0,0.0,0.0,0.0,0.0,0.0,0.0,0.0,0.0,0.0,2.6054,2.5985,2.5404,2.5076,2.5386,0.0,0.0,0.0,0.0,0.0,0.0,0.0,0.0,0.0,0.0,0.0,0.0,0.0,0.0,3.002,0.0,2.9536,0.0,0.0,0.0,0.0,0.0,0.0,0.0,0.0,3.2621,3.2771,3.2453,3.3115,3.3096,0.0,3.1967,3.124,0.0,0.0,0.0,0.0,0.0,0.0,0.0,0.0,3.0399,3.1198,3.1865,3.253,3.3311,3.3477,3.357,3.3552,3.3397,3.2746,3.1625,3.0685,2.9868,0.0,0.0,0.0,0.0,0.0,0.0,0.0,0.0,0.0,0.0,0.0,0.0,0.0,0.0,0.0,0.0,0.0,0.0,0.0,0.0,0.0,0.0,0.0,2.3558,0.0,0.0,0.0,0.0,0.0,0.0,0.0,0.0,0.0,2.6095,2.6493,2.702,2.7626,2.8638,2.927,2.9256,0.0,0.0,0.0,0.0,0.0,0.0,0.0,2.8096,2.8096,2.7704,2.74,2.7442,2.7978,2.8407,2.8615,0.0,0.0,2.7456,2.6778,2.6371,2.6739,2.6516,2.6067,2.5578,2.5108,2.4537,0.0,0.0,0.0,0.0,0.0,0.0,0.0,0.0,3.0385,3.0622,0.0,3.0518,0.0,0.0,0.0,0.0,0.0,3.3923,0.0,0.0,3.388,3.3529,3.3168,3.3168,3.3149,3.3112,3.2649,3.2857,3.3407,3.0434,0.0,0.0,0.0,0.0,0.0,0.0,3.0734,3.157,3.2161,3.289,3.3671,3.4069,3.4296,3.4296,3.4277,3.3733,3.2673,3.2184,3.1193,2.9481,2.8971,0.0,0.0,0.0,0.0,0.0,0.0,0.0,0.0,0.0,0.0,0.0,0.0,0.0,0.0,0.0,0.0,0.0,0.0,0.0,0.0,2.552,0.0,0.0,0.0,0.0,0.0,0.0,0.0,0.0,0.0,0.0,2.7091,2.7082,2.728,2.796,0.0,0.0,0.0,0.0,2.8949,2.8589,2.8277,2.8097,2.8097,2.8642,2.9076,2.9076,0.0,0.0,2.9085,2.9327,2.9543,2.9527,2.9483,2.9531,2.9596,2.7944,2.6996,2.7843,2.7322,2.6571,2.6233,2.6054,2.5763,3.4793,0.0,0.0,0.0,0.0,3.277,3.2752,3.2645,3.3049,3.3242,3.3224,3.2641,0.0,0.0,0.0,0.0,0.0,0.0,3.4296,3.4326,3.4432,3.4298,3.3896,3.4467,3.458,3.4185,3.3585,3.3379,3.357,3.2088,3.1736,3.2419,0.0,0.0,0.0,0.0,3.2032,3.2534,3.2485,3.2822,3.3586,3.3785,3.4126,3.4713,3.4429,3.4002,3.3406,3.273,3.2077,3.1229,3.0372,0.0,0.0,0.0,0.0,0.0,0.0,0.0,0.0,0.0,0.0,0.0,0.0,0.0,0.0,0.0,0.0,0.0,0.0,0.0,2.6357,2.6034,2.5824,0.0,0.0,0.0,0.0,0.0,0.0,0.0,0.0,0.0,2.8701,2.8379,2.8199,0.0,0.0,2.9122,2.8874,2.8966,2.9002,2.8893,2.8797,0.0,0.0,2.8906,2.9039,2.9039,2.9517,2.9907,2.9814,3.026,3.0536,3.0294,3.0077,2.9837,2.9545,2.8932,2.842,2.8661,2.8511,2.8002,2.7263,2.691,2.6439,3.6365,3.4878,3.4427,3.4131,3.3991,3.402,3.3983,3.4059,3.4433,3.4577,3.4577,3.4004,3.4103,3.4656,3.4052,0.0,0.0,0.0,3.4701,3.4749,3.4709,3.463,3.4464,3.4758,3.4726,3.4434,3.383,3.3727,3.4057,3.3373,3.3379,3.3992,0.0,0.0,3.2781,3.2554,3.2694,3.3184,3.2822,3.3077,3.403,3.4222,3.4633,3.5065,3.5056,3.4739,3.4184,3.3586,3.2955,3.246,3.1598,3.097,0.0,0.0,0.0,0.0,0.0,0.0,0.0,0.0,0.0,0.0,0.0,2.7312,2.7802,0.0,0.0,0.0,2.7853,2.7549,2.7373,2.7214,0.0,0.0,0.0,0.0,0.0,0.0,0.0,2.8814,2.8796,2.8972,2.9325,2.9179,2.9112,2.9213,2.9213,2.9153,2.9053,0.0,2.8975,2.8975,2.8975,2.8975,2.8975,2.8975,2.9035,2.9153,2.9684,3.005,3.0039,3.0468,3.0705,3.0477,3.0241,2.9987,2.9842,2.939,2.9035,2.9153,2.8975,2.8618,2.8182,2.7628,2.6984,3.7134,3.5711,3.5323,3.4815,3.4372,3.4408,3.4421,3.4353,3.4751,3.4902,3.4971,3.4952,3.4724,3.4383,3.4701,0.0,3.4874,3.5198,3.5351,3.543,3.4922,3.4726,3.4785,3.4414,3.4219,3.418,3.3769,3.3965,3.4648,3.4297,3.4297,3.4629,3.3225,3.2523,3.2523,3.2542,3.2886,3.3572,3.3225,3.3547,3.4629,3.5078,3.5332,3.5391,3.5723,3.5588,3.4911,3.442,3.38,3.3138,3.263,3.2166,3.157,0.0,0.0,0.0,0.0,0.0,0.0,0.0,0.0,0.0,0.0,0.0,0.0,0.0,0.0,0.0,2.8923,0.0,2.8735,2.8692,0.0,0.0,0.0,2.942,2.9071,2.9231,2.9335,2.9354,0.0,0.0,2.9354,2.9695,2.9863,2.9627,2.9509,2.939,2.9094,2.9035,2.8975,2.8975,2.9035,2.9035,2.8975,2.8975,2.9094,2.9331,2.9785,2.998,2.9976,3.0254,3.0411,3.047,3.0157,2.9981,3.0333,2.9589,2.9057,2.9316,2.892,2.8641,2.8724,2.8092,2.7267,3.7914,3.6956,3.6488,3.5737,3.477,3.4746,3.4796,3.477,3.5158,3.5333,3.5314,3.5278,3.522,3.5123,3.519,3.5432,3.5685,3.4844,3.4922,3.5801,3.5059,3.5059,3.5684,3.5605,3.5391,3.5078,3.4961,3.4844,3.4707,3.459,3.4434,3.4219,3.3895,3.3669,3.3733,3.3669,3.3617,3.3447,3.3681,3.3959,3.4219,3.4336,3.4707,3.5371,3.5137,3.4895,3.4731,3.4127,3.3508,3.2976,3.2587,3.2422,3.253,3.253,0.0,0.0,0.0,0.0,0.0,0.0,0.0,0.0,0.0,2.8933,2.9404,0.0,2.9915,0.0,2.9661,2.9599,2.9599,2.9599,0.0,0.0,2.9661,2.9799,2.9705,2.971,2.977,2.977,2.977,2.9829,3.0121,3.0198,3.0274,3.0216,2.9804,2.945,2.939,2.9153,2.8975,2.9035,2.9213,2.9272,2.9035,2.8975,2.9035,2.9094,2.9602,2.9917,2.9941,3.0392,3.0762,3.0762,3.0509,3.0274,3.002,2.9383,2.8827,2.8732,2.8692,2.8634,2.8282,2.7989,2.7434,3.8278,3.7388,3.7106,3.6451,3.5642,3.528,3.5264,3.5401,3.5606,3.5762,3.5724,3.5519,3.5508,3.5644,3.5469,3.5527,3.5684,3.498,3.5039,3.5684,3.5019,3.5078,3.5723,3.5527,3.5312,3.5078,3.5078,3.4961,3.4707,3.4687,3.4473,3.4082,3.4258,3.4258,3.4082,3.4062,3.3945,3.373,3.4141,3.4355,3.4355,3.4355,3.459,3.5059,3.5039,3.4902,3.4707,3.4342,3.3966,3.3667,3.3281,3.3228,3.3544,3.3418,3.3355,0.0,0.0,0.0,0.0,0.0,0.0,0.0,0.0,0.0,0.0,0.0,3.0517,3.0832,3.0596,3.0547,3.0736,3.0414,3.0263,3.0452,3.0268,3.0174,3.0346,3.0389,3.0275,3.0064,3.0218,3.0334,3.0296,3.0509,3.0626,3.0626,3.0216,2.9804,2.9568,2.9331,2.9213,2.9213,2.945,2.9568,2.9272,2.9331,2.939,2.9431,2.9653,2.9871,2.9987,3.018,3.0312,3.0312,3.0219,3.0103,2.9871,2.9293,2.8816,2.8952,2.8689,2.8369,2.8058,2.7691,2.7178,3.8399,3.7393,3.7287,3.7042,3.6668,3.5981,3.584,3.6094,3.6035,3.6035,3.5996,3.5625,3.5684,3.5996,3.5566,3.543,3.5469,3.5351,3.5371,3.5449,3.5,3.5039,3.5449,3.5059,3.4844,3.4785,3.4844,3.4844,3.4805,3.4844,3.4668,3.4277,3.4609,3.457,3.418,3.4219,3.4238,3.4238,3.4492,3.4648,3.4687,3.4655,3.4655,3.4773,3.5112,3.5112,3.4779,3.4701,3.4615,3.458,3.4203,3.411,3.4423,3.4173,3.4047,0.0,3.3796,0.0,0.0,0.0,0.0,0.0,0.0,0.0,0.0,3.0929,3.1085,3.1846,3.1484,3.1351,3.1713,3.1108,3.0803,3.1127,3.0715,3.0604,3.0932,3.0917,3.0742,3.0332,3.0644,3.0723,3.0391,3.0644,3.0879,3.0762,3.0509,3.0157,2.9686,2.9568,2.9568,2.9509,2.9745,2.9804,2.9686,2.9745,2.9844,2.9827,2.9794,2.9852,2.9966,2.9787,2.959,2.9629,2.9733,2.9756,2.9757,2.9221,2.8954,2.9279,2.8558,2.792,2.8033,2.7635,2.7074,3.7881,3.7378,3.6976,3.677,3.6751,3.6565,3.6474,3.6523,3.6172,3.6035,3.6016,3.5937,3.5937,3.5976,3.5586,3.5566,3.5859,3.5156,3.5215,3.5879,3.5469,3.5488,3.5879,3.582,3.5605,3.5293,3.5605,3.5605,3.5273,3.5605,3.5547,3.5156,3.5234,3.5039,3.4629,0.0,0.0,0.0,3.4531,3.4355,3.4648,3.428,3.4369,3.504,3.4744,0.0,3.4996,3.4676,3.4435,3.4418,3.4338,0.0,0.0,0.0,0.0,0.0,0.0,0.0,0.0,0.0,0.0,0.0,3.3001,3.2594,3.177,3.155,3.1819,3.2529,3.1908,3.148,3.1558,3.1131,3.0859,3.0937,3.0879,3.0859,3.0879,3.0937,3.0859,3.0781,3.084,3.0859,3.0781,3.084,3.0762,3.0567,3.045,3.0274,2.9863,2.9804,2.9745,2.9568,2.9804,2.9981,3.0197,3.0039,2.9867,2.9524,2.968,2.9699,2.9447,2.9536,2.9607,2.9531,2.9573,2.9579,2.9432,2.8955,2.8501,2.8275,2.7679,2.7396,2.7974,2.7939,2.7586,3.8108,0.0,3.7157,3.6899,0.0,3.6751,3.6749,3.666,3.6445,3.6211,3.6035,3.6035,3.6035,3.6016,3.5801,3.582,3.5996,3.5547,3.5586,3.5996,3.5801,3.582,3.6035,3.6035,3.5898,3.5723,3.5918,3.5898,3.5723,3.5918,3.582,3.541,3.5605,3.5488,3.5059,3.5488,3.5703,3.5703,3.5254,3.5137,3.5312,3.4858,3.4817,3.5191,0.0,0.0,0.0,0.0,0.0,0.0,0.0,0.0,0.0,0.0,0.0,3.587,3.5726,3.5603,3.5418,3.5252,3.4758,3.3935,3.3542,3.307,3.2358,3.2401,3.2685,3.3066,3.2519,3.2148,3.2129,3.1582,3.1289,3.1465,3.1152,3.0957,3.1133,3.1016,3.0898,3.0898,3.0898,3.0898,3.0898,3.0898,3.082,3.0704,3.0645,3.0509,3.0216,3.0157,3.0157,3.0157,3.0294,3.0411,3.0392,3.047,3.0295,2.9948,2.9949,2.9831,2.9424,2.9283,2.9199,2.9023,2.9101,2.9169,2.8952,2.8684,2.8418,2.8144,2.7748,2.7606,2.8087,2.7962,2.7687,3.8448,3.74,3.7228,3.7061,3.6812,3.6681,3.6749,3.666,0.0,0.0,0.0,3.6035,3.6035,3.6035,3.6035,3.6035,3.6035,3.6035,3.6035,3.6035,3.6035,3.6035,3.6035,3.6035,3.6035,3.6035,3.6035,3.6035,3.6035,3.6035,3.5859,3.5566,3.5859,3.5859,3.5547,3.584,3.6035,3.6016,3.5957,3.5898,3.5966,3.5563,3.531,3.5241,3.5226,3.504,3.4588,3.4974,3.5121,3.5004,3.4984,3.5232,3.5849,3.5665,3.5788,3.6218,3.6361,3.6239,3.5788,3.5788,3.5376,3.4365,3.3677,3.3203,3.291,3.3223,3.3418,3.3418,3.3047,3.2793,3.2793,3.2109,3.1777,3.2129,3.1543,3.1269,3.1562,3.1328,3.1133,3.1035,3.1094,3.1055,3.0918,3.0918,3.084,3.0723,3.0645,3.0704,3.045,3.0333,3.0333,3.0645,3.0645,3.0704,3.0567,3.0704,3.0743,3.0335,3.0238,3.0059,2.9629,2.9219,2.8809,2.8574,2.8672,2.8665,2.8542,2.8504,2.8484,2.8487,2.8215,2.8014,2.8194,2.7926,2.7711,3.8171,3.7345,3.6923,3.6756,3.6812,3.6751,3.6749,3.6641,3.6269,3.6074,3.6035,3.6035,3.6035,3.6035,3.6035,3.6035,3.6035,3.6035,3.6035,3.6035,3.6035,3.6035,3.6035,3.6035,3.6035,3.6035,3.6035,3.6035,3.6035,3.6035,3.5976,3.5937,3.5996,3.5996,3.5937,3.5996,3.6035,3.6016,3.5664,3.5622,3.587,3.5406,3.5248,3.555,3.5455,3.5314,3.5252,3.5294,3.5356,3.5356,3.5356,3.5479,3.587,3.6095,3.6667,3.7517,3.685,3.6585,3.7011,3.6095,3.5005,3.3982,3.3243,3.3008,3.3301,3.3379,3.3418,3.3398,3.2988,3.2793,3.2754,3.2324,3.2031,3.2129,3.2111,3.2012,3.2012,3.2053,3.1797,3.1445,3.1758,3.166,3.1015,3.0936,3.0757,3.0252,3.0157,3.0157,3.0274,3.0157,3.0157,3.0392,3.045,3.0567,3.0762,3.082,3.0762,3.0294,3.0236,3.0117,2.9687,2.9297,2.8984,2.8828,2.8633,2.8466,2.8465,2.8416,2.8377,2.8462,2.8339,2.8247,2.8301,2.8174,2.8174,3.8665,3.7963,3.734,3.6976,3.6756,3.6724,3.6816,3.6973,3.6543,3.623,3.6035,3.6035,3.6035,3.6035,3.6035,3.6035,3.6035,3.6035,3.6035,3.6035,3.6035,3.6035,3.6035,3.6035,3.6035,3.6035,3.6035,3.6035,3.6035,3.6035,3.6035,3.6035,3.6035,3.6035,3.6035,3.6035,3.6035,3.6016,3.5605,3.5591,3.5924,3.54,3.5264,3.5552,3.5517,3.5479,3.5438,3.5418,3.5479,3.5665,3.5685,3.5809,3.6178,3.6156,3.6361,3.6789,3.6545,3.634,3.634,3.519,3.4227,3.3595,3.2885,3.2539,3.2734,3.2858,3.2962,3.2962,3.2588,3.2352,3.2332,3.1838,3.1544,3.1465,3.168,3.1719,3.1582,3.1934,3.1992,3.1641,3.1894,3.1854,3.1052,3.0951,3.0734,3.0076,2.9922,2.9981,3.0098,2.9981,3.0098,3.0587,3.0704,3.0704,3.0898,3.0898,3.0801,3.0586,3.0566,3.0391,3.0019,2.9707,2.9434,2.9023,2.875,2.8579,2.8435,2.833,2.831,2.8369,2.8349,2.8301,2.8301,2.8301,2.8301,3.8878,3.825,3.7575,3.7033,3.6701,3.6911,3.709,3.7266,3.7051,3.666,3.6191,3.6074,3.6035,3.6035,3.6035,3.6035,3.6035,3.6133,3.6113,3.6035,3.6113,3.6113,3.6035,3.6035,3.6035,3.6035,3.6035,3.6035,3.6035,3.6035,3.6035,3.6035,3.6035,3.6035,3.6035,3.6035,3.6035,3.5996,3.5508,3.5434,3.5812,3.5505,3.5389,3.5556,3.5578,3.5477,3.5376,3.5418,3.5541,3.5788,3.5766,3.5886,3.6192,3.6025,3.5921,3.5921,3.621,3.6072,3.5397,3.4492,3.3717,3.3333,3.2588,3.209,3.1955,3.2156,3.2375,3.2433,3.2255,3.2058,3.2098,3.1604,3.1231,3.1329,3.1505,3.1582,3.1328,3.1855,3.2148,3.1797,3.2129,3.2163,3.1375,3.1082,3.0651,2.9877,2.9686,2.9745,2.9863,2.9922,3.0157,3.0645,3.082,3.082,3.0898,3.0898,3.0879,3.0898,3.0879,3.0703,3.041,3.0293,3.0,2.9394,2.9141,2.8926,2.8555,2.8457,2.8418,2.8325,2.832,2.8301,2.8301,2.8301,2.8301,3.833,3.7465,3.7102,3.6837,3.6797,3.7514,3.7598,3.7383,3.7656,3.7344,3.6641,3.6191,3.6035,3.6035,3.6035,3.6035,3.6055,3.6426,3.6387,3.6094,3.6426,3.6406,3.6035,3.6016,3.6035,3.6035,3.6035,3.6035,3.6035,3.6035,3.6035,3.6035,3.6035,3.6035,3.6035,3.6016,3.6016,3.5996,3.5195,3.5093,3.5641,3.5625,3.5515,3.5438,3.5418,3.5397,3.5418,3.5418,3.5418,3.5459,3.535,3.5423,3.5763,3.5854,3.591,3.5997,3.6108,3.5955,3.5417,3.4757,3.4,3.3296,3.2552,3.1816,3.1192,3.1308,3.1683,3.2075,3.215,3.2234,3.2513,3.2154,3.2036,3.2157,3.2134,3.215,3.2072,3.2461,3.2578,3.2209,3.2614,3.2801,3.1658,3.1203,3.0554,2.9365,2.9213,2.939,2.9804,2.9981,3.0157,3.0645,3.0704,3.0626,3.082,3.0898,3.0898,3.0898,3.0898,3.084,3.0703,3.0469,3.0117,2.9922,2.9707,2.9355,2.9043,2.8848,2.873,2.8457,2.8359,2.8301,2.8301,2.834,2.8359,3.9376,3.9165,3.8516,3.7958,3.7528,3.7753,3.7689,3.741,3.778,3.7734,3.7363,3.6699,3.6269,3.6035,3.6035,3.6035,3.6035,3.6211,3.6191,3.5967,3.6005,3.5986,3.5967,3.5831,3.5811,3.5947,3.6035,3.6035,3.6035,3.6035,3.6035,3.6035,3.6035,3.6035,3.5996,3.5762,3.5644,3.5625,3.4982,3.4769,3.4987,3.4926,3.4918,3.5128,3.5294,3.5418,3.5418,3.5418,3.5479,3.5665,3.562,3.5699,3.5821,3.5873,3.5827,3.5667,3.5533,3.5168,3.4472,3.3979,3.3411,3.2693,3.2114,3.1583,3.1191,3.1112,3.123,3.1604,3.1702,3.1801,3.2057,3.186,3.1801,3.2077,3.2078,3.1978,3.1722,3.2133,3.2185,3.1653,3.2212,3.2334,3.1285,3.0578,2.9962,2.9163,2.9153,2.945,2.9863,3.0098,3.0411,3.0762,3.0762,3.0762,3.0898,3.0898,3.0898,3.0898,3.0898,3.0898,3.0859,3.0781,3.0527,3.0254,3.0078,2.9805,2.9394,2.9297,2.918,2.8809,2.8418,2.8359,2.8613,2.8672,2.875,3.974,3.9894,3.926,3.8516,3.7849,3.7793,3.7673,3.76,3.7817,3.7903,3.7851,3.7078,3.6532,3.6211,3.6074,3.6035,3.6055,3.625,3.623,3.6006,3.5838,3.5907,3.5986,3.5675,3.5694,3.5947,3.6035,3.6035,3.6035,3.6035,3.6035,3.6035,3.6035,3.6035,3.5976,3.5703,3.5566,3.5508,3.5067,3.4764,3.4606,3.4509,3.4606,3.488,3.5108,3.5294,3.5418,3.5418,3.5479,3.5726,3.5745,3.5722,3.5722,3.5678,3.5535,3.5354,3.4985,3.4553,3.4145,3.3713,3.3166,3.2409,3.1976,3.1683,3.1347,3.1228,3.117,3.1306,3.1325,3.1422,3.1556,3.1383,3.1325,3.1634,3.17,3.1544,3.1269,3.1682,3.1815,3.1322,3.1822,3.1722,3.0709,3.0008,2.9494,2.9145,2.9213,2.9509,2.9804,3.0098,3.0392,3.082,3.0898,3.0898,3.0898,3.0898,3.0898,3.0898,3.0898,3.0898,3.0898,3.0879,3.0859,3.0547,3.043,3.0234,2.9863,2.9726,2.9609,2.918,2.8809,2.8633,2.9023,2.9004,2.918,3.8754,3.8719,3.8255,3.7915,3.7428,3.748,3.7604,3.7859,3.797,3.7958,3.7747,3.7016,3.6661,3.6532,3.6162,3.6035,3.6133,3.6836,3.6777,3.6142,3.6417,3.6429,3.5986,3.5675,3.5694,3.6006,3.6035,3.6035,3.6035,3.6035,3.6035,3.6035,3.6035,3.6035,3.6016,3.5957,3.5976,3.584,3.5497,3.5144,3.4733,3.4626,3.4676,3.4879,3.4922,3.5108,3.5356,3.5418,3.5418,3.5418,3.535,3.5221,3.526,3.5142,3.5142,3.5098,3.4635,3.4493,3.4593,3.4155,3.3463,3.2831,3.2553,3.2177,3.1543,3.1538,3.1518,3.1344,3.1286,3.1267,3.1325,3.115,3.1112,3.1325,3.1132,3.1054,3.0957,3.1309,3.1504,3.1424,3.1532,3.1161,3.0256,2.9841,2.9439,2.9163,2.9035,2.9272,2.9804,2.9981,3.0294,3.0704,3.0898,3.0898,3.0898,3.0898,3.0898,3.0898,3.0898,3.0898,3.0898,3.0879,3.0859,3.084,3.0781,3.0605,3.0312,3.0078,2.9922,2.959,2.918,2.9121,2.9453,2.916,2.9355,3.9675,3.9481,3.9299,3.8671,3.7876,3.7821,3.7593,3.7274,3.7476,3.7467,3.71,3.6627,3.6208,3.5965,3.5793,3.5943,3.6484,3.7051,3.6988,3.6526,3.6656,3.6496,3.6087,3.5939,3.5943,3.6042,3.6016,3.6035,3.6035,3.6035,3.6035,3.6035,3.6035,3.6035,3.5976,3.5742,3.5625,3.5566,3.5195,3.4863,3.4726,3.4681,3.4665,3.4676,3.4814,3.5046,3.5356,3.5418,3.5418,3.5418,3.5313,3.5353,3.5332,3.5269,3.5041,3.4675,3.4472,3.4203,3.3937,3.372,3.3371,3.2821,3.267,3.2514,3.2137,3.174,3.156,3.1622,3.1308,3.1073,3.1054,3.1112,3.1267,3.1498,3.1344,3.117,3.1132,3.1133,3.1054,3.0877,3.0768,3.0396,2.9981,2.9702,2.9536,2.9365,2.945,2.9745,3.0098,3.0411,3.0587,3.082,3.0898,3.0898,3.0898,3.0898,3.0898,3.0898,3.0898,3.0898,3.0898,3.0898,3.0879,3.0879,3.0898,3.0859,3.0527,3.0332,3.0176,3.0039,2.9629,2.9551,2.9883,2.9668,2.9941,3.9962,3.9531,3.968,3.9031,3.7871,3.767,3.7334,3.6831,3.7107,3.701,3.6739,3.627,3.5854,3.5622,3.5538,3.5876,3.6565,3.6952,3.6945,3.6527,3.6499,3.6356,3.6114,3.5876,3.5896,3.6028,3.6025,3.6035,3.6035,3.6035,3.6035,3.6035,3.6035,3.6035,3.5976,3.5742,3.5605,3.5527,3.5273,3.5078,3.4941,3.4922,3.4838,3.4794,3.4929,3.5064,3.5252,3.5356,3.5418,3.5418,3.5418,3.5418,3.5418,3.5418,3.5108,3.4616,3.4448,3.4115,3.3585,3.345,3.3242,3.2894,3.2949,3.2873,3.2515,3.2176,3.2077,3.1978,3.184,3.1564,3.125,3.1445,3.1658,3.1674,3.1383,3.1208,3.1267,3.1054,3.0704,3.0332,3.0049,2.98,2.9499,2.9499,2.9531,2.9527,2.9745,3.0039,3.0333,3.0567,3.082,3.0879,3.0898,3.0898,3.0898,3.0898,3.0898,3.0898,3.0898,3.0898,3.0898,3.0898,3.0898,3.0898,3.0898,3.0898,3.0781,3.0586,3.0469,3.0391,3.0137,2.9922,3.0117,3.0254,3.043,3.943,3.8743,3.9137,3.8588,3.7488,3.712,3.6848,3.6775,3.6812,3.6717,3.6522,3.5912,3.5646,3.5576,3.5556,3.5867,3.6228,3.6607,3.6626,3.627,3.6265,3.6227,3.607,3.5586,3.5641,3.6143,3.6025,3.6035,3.6074,3.6055,3.6035,3.6035,3.6035,3.6035,3.6035,3.5976,3.5976,3.5957,3.5898,3.5762,3.5449,3.5391,3.5289,3.5185,3.5136,3.5032,3.4921,3.5252,3.5418,3.5418,3.5418,3.5418,3.5418,3.5418,3.5232,3.4881,3.461,3.4215,3.3902,3.3587,3.3242,3.2992,3.3411,3.3194,3.2554,3.2834,3.2934,3.2356,3.2455,3.2515,3.1761,3.1998,3.2054,3.1482,3.1112,3.1112,3.1228,3.1073,3.0665,3.0135,2.9833,2.9446,2.9209,2.942,2.9599,2.968,2.9823,3.0098,3.0392,3.0509,3.0587,3.082,3.0898,3.0898,3.0898,3.0898,3.0898,3.0898,3.0898,3.0898,3.0898,3.0898,3.0898,3.0898,3.0898,3.0898,3.0898,3.0723,3.0762,3.0664,3.043,3.0293,3.043,3.0566,3.0586,3.9114,3.87,3.9142,3.858,3.7448,3.7283,3.6936,3.6386,3.6367,3.6202,3.5924,3.5704,3.5427,3.5277,3.5464,3.5793,3.6193,3.6347,3.6459,3.6604,3.6863,3.6698,3.6292,3.6227,3.6318,3.6381,3.5935,3.5986,3.6367,3.6172,3.6035,3.6035,3.6035,3.6035,3.6035,3.6035,3.6035,3.6035,3.6035,3.5937,3.584,3.582,3.5673,3.5375,3.525,3.5007,3.4716,3.5147,3.5376,3.5356,3.5418,3.5418,3.5418,3.5418,3.5232,3.4922,3.461,3.4235,3.3922,3.3607,3.3379,3.3266,3.3404,3.3305,3.3001,3.2932,3.2873,3.2529,3.2509,3.2271,3.2074,3.2038,3.1958,3.1384,3.1228,3.117,3.1229,3.1093,3.0849,3.0554,3.0368,3.0185,2.9928,2.992,2.9961,3.0143,3.0211,3.0333,3.0645,3.0704,3.0762,3.0879,3.0898,3.0898,3.0898,3.0898,3.0898,3.0898,3.0898,3.0898,3.0898,3.0898,3.0898,3.0898,3.0898,3.0898,3.0898,3.0898,3.0898,3.0898,3.0703,3.0723,3.084,3.084,3.0781,3.9035,3.8621,3.8947,3.8424,3.7429,3.7283,3.6824,3.6256,3.6201,3.5981,3.5669,3.5614,3.5394,3.5174,3.543,3.576,3.5961,3.6109,3.6367,3.6571,3.6812,3.6664,3.6312,3.6621,3.6641,3.6578,3.6271,3.6355,3.6641,3.6406,3.6172,3.6055,3.6035,3.6035,3.6035,3.6035,3.6035,3.6035,3.6035,3.6035,3.6035,3.6035,3.5898,3.5653,3.535,3.5111,3.4858,3.4997,3.5108,3.5232,3.5356,3.5418,3.5418,3.5356,3.517,3.4797,3.4485,3.4173,3.3796,3.3544,3.3481,3.3548,3.3664,3.3649,3.3542,3.3269,3.3248,3.2962,3.2981,3.2701,3.2525,3.2612,3.2396,3.186,3.1523,3.1327,3.1211,3.1127,3.0952,3.0771,3.0599,3.0495,3.0421,3.0283,3.0385,3.0591,3.0602,3.0645,3.084,3.0898,3.0898,3.0898,3.0898,3.0898,3.0898,3.0898,3.0898,3.0898,3.0898,3.0898,3.0898,3.0898,3.0898,3.0898,3.0898,3.0898,3.0898,3.0898,3.0898,3.0898,3.0898,3.0898,3.0879,3.0879,3.0859,3.9035,3.8585,3.8687,3.8202,3.7393,3.7026,3.6622,3.6237,3.6201,3.6017,3.5724,3.5705,3.5504,3.5265,3.5577,3.5797,3.5724,3.6017,3.6275,3.6275,3.6367,3.6275,3.6294,3.6548,3.6573,3.6523,3.6862,3.6981,3.6777,3.6591,3.6445,3.6055,3.6035,3.6035,3.6035,3.6035,3.6035,3.6035,3.6035,3.6035,3.6035,3.6035,3.6016,3.5957,3.5481,3.5205,3.4987,3.4676,3.4548,3.4859,3.517,3.5294,3.5294,3.5356,3.5046,3.4485,3.436,3.4047,3.3607,3.3418,3.3481,3.3733,3.4007,3.4262,3.3877,3.3893,3.3893,3.3508,3.3562,3.3497,3.3096,3.3269,3.3214,3.2654,3.1939,3.1447,3.1144,3.1245,3.1247,3.0934,3.0525,3.0463,3.0847,3.0701,3.08,3.0907,3.0954,3.0976,3.0918,3.0937,3.0937,3.0918,3.0898,3.0898,3.0898,3.0898,3.0898,3.0898,3.084,3.082,3.0898,3.0898,3.0898,3.0898,3.0898,3.0898,3.0898,3.0898,3.0898,3.0898,3.0898,3.0898,3.0898,3.0898,3.0898,3.8719,3.8603,3.8278,3.7874,3.7393,3.7007,3.6586,3.6219,3.6201,3.6146,3.6054,3.6054,3.5962,3.5907,3.5981,3.6202,3.6368,3.622,3.6367,3.659,3.6275,3.6201,3.6201,3.6347,3.6619,3.702,3.6852,3.6752,3.7039,3.6646,3.6277,3.6035,3.6055,3.6035,3.6035,3.6035,3.6035,3.6035,3.6035,3.6035,3.6035,3.6035,3.6035,3.5976,3.5555,3.5171,3.4864,3.4314,3.4173,3.4548,3.4859,3.4922,3.4797,3.4922,3.4859,3.4423,3.4173,3.3985,3.3796,3.3544,3.3481,3.3544,3.3859,3.4007,3.3908,3.3968,3.405,3.3951,3.3819,3.3568,3.3536,3.3486,3.317,3.2693,3.2355,3.2134,3.1938,3.1941,3.1865,3.1645,3.1682,3.1645,3.1558,3.1375,3.1306,3.1392,3.1343,3.1191,3.1016,3.1152,3.1211,3.0976,3.0898,3.0898,3.0898,3.0898,3.0898,3.082,3.0762,3.0645,3.0762,3.0898,3.0898,3.0898,3.0898,3.0898,3.0898,3.0898,3.0898,3.0898,3.0898,3.0898,3.0898,3.0898,3.0898,3.864,3.8505,3.8016,3.7631,3.7356,3.6824,3.6439,3.6237,3.6201,3.6201,3.6201,3.6201,3.6201,3.6201,3.6201,3.6349,3.6516,3.6293,3.6367,3.6423,3.6275,3.6275,3.6442,3.6624,3.7029,3.7566,3.7364,3.7344,3.7488,3.7093,3.6666,3.6337,3.6289,3.6211,3.6035,3.6035,3.6035,3.6035,3.6035,3.6035,3.6035,3.6035,3.6035,3.5937,3.5605,3.5176,3.4687,3.4393,3.4318,3.4418,3.461,3.4673,3.461,3.4673,3.4548,3.4235,3.3985,3.3859,3.367,3.3481,3.3481,3.3607,3.3796,3.3985,3.4027,3.3985,3.4047,3.409,3.367,3.3544,3.3568,3.3434,3.3198,3.3021,3.2922,3.2777,3.2378,3.2262,3.2283,3.2155,3.2166,3.2294,3.2275,3.1932,3.1735,3.1767,3.1618,3.1269,3.1035,3.1309,3.1387,3.1055,3.0898,3.0898,3.0898,3.0898,3.084,3.082,3.0645,3.0567,3.0645,3.0762,3.084,3.084,3.0898,3.0898,3.0898,3.0898,3.0898,3.0898,3.0898,3.0898,3.0898,3.0898,3.0898,3.864,3.8505,3.7682,3.7352,3.7301,3.6567,3.6237,3.6201,3.6201,3.6201,3.6201,3.6201,3.6201,3.6201,3.6201,3.6201,3.6201,3.6201,3.6201,3.6275,3.6201,3.6349,3.6719,3.707,3.7438,3.7843,3.8355,3.8189,3.7877,3.778,3.741,3.6914,3.6738,3.6543,3.6348,3.6191,3.6094,3.6113,3.6055,3.6035,3.6035,3.6035,3.6035,3.5957,3.5625,3.5254,3.4902,3.4779,3.4724,3.4478,3.4461,3.4546,3.4713,3.4485,3.4173,3.3922,3.3796,3.367,3.3481,3.3418,3.3481,3.3733,3.3859,3.4047,3.4173,3.4047,3.3922,3.4047,3.3607,3.3481,3.3418,3.3398,3.334,3.3324,3.334,3.3015,3.2609,3.2447,3.2485,3.2422,3.2166,3.2422,3.2486,3.2296,3.188,3.2199,3.199,3.1719,3.1445,3.1523,3.1367,3.0976,3.0898,3.0898,3.0898,3.0898,3.082,3.0762,3.0567,3.045,3.045,3.0587,3.0645,3.0762,3.0898,3.0898,3.0898,3.0898,3.0898,3.0898,3.0898,3.0898,3.0898,3.0898,3.0898,3.864,3.8487,3.7778,3.7352,3.7301,3.6567,3.6219,3.6237,3.6219,3.6219,3.6201,3.6201,3.6201,3.6201,3.6201,3.6201,3.6201,3.6201,3.6201,3.6201,3.6201,3.6423,3.6812,3.7181,3.7421,3.7642,3.7936,3.8069,3.7903,3.7714,3.7391,3.7246,3.7148,3.7109,3.6973,3.6641,3.6523,3.6465,3.6211,3.6055,3.6035,3.6035,3.6035,3.5976,3.5625,3.5391,3.5262,3.5231,3.5151,3.4978,3.4764,3.4549,3.4312,3.4067,3.3859,3.367,3.3544,3.3481,3.3418,3.3418,3.3418,3.3544,3.3733,3.3922,3.3985,3.3922,3.3985,3.411,3.3796,3.3418,3.3418,3.3418,3.3418,3.3418,3.3418,3.3335,3.3194,3.317,3.2975,3.2848,3.2912,3.3038,3.2892,3.2739,3.2552,3.2656,3.2441,3.2148,3.1953,3.1797,3.1543,3.1191,3.1035,3.1074,3.1172,3.1152,3.0996,3.0859,3.0644,3.0411,3.0411,3.0527,3.0683,3.0762,3.0898,3.0898,3.0898,3.0898,3.0898,3.0898,3.0898,3.0898,3.0898,3.0898,3.0898,3.864,3.8566,3.8213,3.7859,3.7653,3.7087,3.6829,3.6677,3.6347,3.6329,3.6421,3.6311,3.6201,3.6201,3.6201,3.6201,3.6201,3.6201,3.6201,3.6201,3.6201,3.6275,3.659,3.7107,3.7495,3.7642,3.7862,3.8074,3.8136,3.8039,3.7883,3.7637,3.7598,3.7441,3.7324,3.707,3.6855,3.666,3.6465,3.625,3.6055,3.6035,3.6035,3.6016,3.5801,3.5684,3.5644,3.5803,3.5699,3.5547,3.531,3.4873,3.4235,3.3851,3.3627,3.3418,3.3418,3.3418,3.3418,3.3418,3.3418,3.3418,3.3607,3.3607,3.367,3.367,3.3733,3.3796,3.3607,3.3418,3.3418,3.3418,3.3418,3.3418,3.3418,3.3418,3.3355,3.3292,3.3165,3.3102,3.3102,3.3165,3.3112,3.2984,3.2809,3.2754,3.2734,3.2441,3.2129,3.1992,3.1934,3.172,3.1367,3.1309,3.1465,3.1445,3.123,3.1092,3.0954,3.0643,3.043,3.0585,3.076,3.084,3.0898,3.0898,3.0898,3.0898,3.0898,3.0898,3.0898,3.0898,3.0898,3.0898,3.0898,3.864,3.8603,3.8687,3.8502,3.8043,3.7611,3.7425,3.7288,3.6531,3.6366,3.6622,3.6347,3.6201,3.6275,3.6201,3.6201,3.6201,3.6201,3.6201,3.6201,3.6201,3.6201,3.6423,3.6886,3.7495,3.7862,3.8082,3.8263,3.8482,3.8555,3.832,3.8066,3.8027,3.7891,3.7598,3.7402,3.7207,3.6875,3.668,3.6406,3.6094,3.6035,3.6035,3.6016,3.5996,3.5957,3.6005,3.6285,3.6321,3.5976,3.5944,3.5488,3.4784,3.4059,3.3613,3.3652,3.3711,3.3691,3.3613,3.3555,3.3535,3.3457,3.3418,3.3418,3.3418,3.3418,3.3481,3.3481,3.3418,3.3418,3.3418,3.3418,3.3418,3.3418,3.3418,3.3418,3.3355,3.3102,3.3165,3.3292,3.3228,3.3248,3.3214,3.3164,3.3008,3.2891,3.2871,3.2754,3.2441,3.2226,3.2248,3.2111,3.1758,3.1641,3.1777,3.1816,3.1641,3.1501,3.1343,3.1049,3.0778,3.107,3.1227,3.084,3.082,3.0898,3.0898,3.0898,3.0898,3.0898,3.0898,3.0898,3.0898,3.0898,3.0898,3.864,3.8603,3.8669,3.8657,3.8468,3.7857,3.7502,3.737,3.6588,3.6256,3.6311,3.6237,3.6349,3.6497,3.6367,3.6201,3.6275,3.6201,3.6201,3.6201,3.6201,3.6201,3.6275,3.6738,3.72,3.7642,3.8082,3.8428,3.8574,3.8574,3.8496,3.8457,3.8437,3.834,3.8184,3.8008,3.7578,3.7129,3.6875,3.6523,3.6133,3.6035,3.6035,3.6035,3.6035,3.6035,3.6152,3.6539,3.6702,3.6082,3.6216,3.5911,3.5343,3.4773,3.4492,3.4375,3.4355,3.4219,3.4023,3.3926,3.375,3.3535,3.3418,3.3418,3.3418,3.3418,3.3418,3.3418,3.3418,3.3418,3.3418,3.3418,3.3418,3.3418,3.3418,3.3418,3.3355,3.3355,3.3292,3.3355,3.3355,3.3311,3.3296,3.3301,3.3223,3.3144,3.3144,3.3047,3.2793,3.2617,3.2519,3.2344,3.2109,3.207,3.209,3.2109,3.2051,3.2051,3.191,3.1689,3.1573,3.1852,3.1776,3.1111,3.0879,3.0957,3.0937,3.0898,3.0957,3.0996,3.0957,3.0898,3.0996,3.1055,3.0937,3.864,3.8621,3.9146,3.8922,3.8409,3.8234,3.782,3.7348,3.6569,3.6329,3.6421,3.6329,3.6442,3.6664,3.6664,3.6516,3.6516,3.6275,3.6201,3.6201,3.6201,3.6201,3.6275,3.6664,3.7034,3.7402,3.8009,3.8428,3.8574,3.8574,3.8574,3.8574,3.8574,3.8574,3.8555,3.8359,3.7891,3.7422,3.707,3.666,3.6094,3.6035,3.6035,3.6035,3.6035,3.6035,3.6084,3.6471,3.6539,3.6161,3.6273,3.6107,3.5827,3.5488,3.5156,3.4824,3.4726,3.4648,3.4375,3.4219,3.3965,3.3789,3.3574,3.3418,3.3418,3.3418,3.3418,3.3418,3.3418,3.3418,3.3418,3.3418,3.3418,3.3418,3.3418,3.3418,3.3418,3.3418,3.3418,3.3418,3.3355,3.3355,3.3355,3.3398,3.3398,3.3418,3.3418,3.3281,3.3086,3.2949,3.2793,3.2812,3.2656,3.2637,3.2598,3.2519,3.25,3.248,3.248,3.2238,3.2138,3.228,3.175,3.1069,3.0994,3.1191,3.0937,3.0898,3.1016,3.1094,3.0996,3.0976,3.1152,3.1191,3.1113,3.864,3.864,3.9355,3.9112,3.8291,3.8423,3.8121,3.7459,3.6755,3.6608,3.6866,3.6682,3.6738,3.696,3.7034,3.7034,3.6886,3.6497,3.6349,3.6349,3.6201,3.6201,3.6275,3.659,3.696,3.7255,3.7789,3.8228,3.8501,3.8574,3.8574,3.8574,3.8574,3.8574,3.8555,3.8535,3.8047,3.7656,3.7285,3.6855,3.623,3.6035,3.6035,3.6035,3.6035,3.6035,3.6016,3.6336,3.6336,3.62,3.6248,3.6296,3.6084,3.6016,3.5684,3.5117,3.4961,3.4922,3.4746,3.4453,3.4199,3.4004,3.3652,3.3476,3.3418,3.3418,3.3418,3.3418,3.3418,3.3418,3.3418,3.3418,3.3418,3.3418,3.3418,3.3418,3.3418,3.3418,3.3418,3.3418,3.3418,3.3418,3.3418,3.3418,3.3418,3.3418,3.3418,3.3418,3.3242,3.3125,3.3066,3.3242,3.3262,3.3262,3.3164,3.2988,3.2949,3.291,3.2848,3.2747,3.2626,3.2568,3.1941,3.1416,3.148,3.1582,3.123,3.0937,3.1074,3.1113,3.1016,3.1152,3.1484,3.1523,3.1406,3.864,3.8603,3.8803,3.8791,3.8527,3.8217,3.8028,3.7802,3.7295,3.7274,3.7239,3.7219,3.7402,3.7642,3.7715,3.7642,3.7255,3.6886,3.6664,3.659,3.6367,3.6201,3.6275,3.659,3.6812,3.7034,3.7642,3.8155,3.8521,3.8574,3.8574,3.8574,3.8574,3.8574,3.8574,3.8574,3.832,3.7871,3.7461,3.6875,3.6211,3.6055,3.6035,3.6035,3.6035,3.6035,3.6016,3.6268,3.6268,3.6084,3.6336,3.6336,3.6084,3.6035,3.5996,3.5898,3.584,3.5703,3.5312,3.4902,3.4531,3.4238,3.3789,3.3496,3.3476,3.3437,3.3418,3.3418,3.3418,3.3418,3.3418,3.3418,3.3418,3.3418,3.3418,3.3418,3.3418,3.3418,3.3418,3.3418,3.3418,3.3418,3.3418,3.3418,3.3418,3.3418,3.3418,3.3418,3.3398,3.3262,3.3223,3.3359,3.3418,3.3418,3.3398,3.3281,3.3242,3.3242,3.316,3.3078,3.3019,3.282,3.2467,3.2099,3.2107,3.1777,3.1309,3.1094,3.1172,3.1289,3.1406,3.166,3.1973,3.1875,3.1777,3.8906,3.8273,3.8576,3.8242,3.7644,3.7652,3.7428,3.7054,3.7035,3.7034,3.7034,3.7034,3.7255,3.7642,3.7642,3.7715,3.7549,3.7107,3.6812,3.6738,3.6442,3.6201,3.6219,3.6367,3.6516,3.6812,3.7181,3.7642,3.8063,3.8501,3.8574,3.8574,3.8574,3.8574,3.8574,3.8574,3.832,3.7851,3.7305,3.6777,3.6426,3.6172,3.6035,3.6035,3.6035,3.6035,3.6016,3.6084,3.6132,3.6016,3.6219,3.6152,3.6016,3.6035,3.6016,3.6016,3.6016,3.5918,3.5723,3.5312,3.5,3.4766,3.4394,3.4101,3.3848,3.3594,3.3457,3.3418,3.3418,3.3418,3.3418,3.3418,3.3418,3.3418,3.3418,3.3418,3.3418,3.3418,3.3418,3.3418,3.3418,3.3418,3.3418,3.3418,3.3418,3.3418,3.3418,3.3418,3.3418,3.3379,3.3359,3.3398,3.3418,3.3418,3.3418,3.3359,3.334,3.334,3.334,3.3277,3.3233,3.3034,3.2743,3.2374,3.2146,3.1797,3.1328,3.1309,3.1445,3.166,3.1894,3.2129,3.2344,3.2461,3.2383,3.9115,3.8257,3.8585,3.8021,3.7051,3.7409,3.7334,3.6757,3.7181,3.7255,3.7255,3.7181,3.7255,3.7421,3.7568,3.7789,3.7955,3.7255,3.7107,3.6886,3.659,3.6275,3.6367,3.6367,3.6367,3.6645,3.6812,3.7181,3.7623,3.8136,3.8428,3.8574,3.8574,3.8574,3.8574,3.8555,3.8359,3.791,3.7266,3.6855,3.6601,3.6211,3.6074,3.6035,3.6035,3.6035,3.6035,3.6035,3.6016,3.6016,3.6016,3.6016,3.6035,3.6035,3.6035,3.6035,3.6035,3.6016,3.5859,3.5605,3.5449,3.5254,3.498,3.4473,3.4258,3.3887,3.3652,3.3652,3.3633,3.3574,3.3457,3.3418,3.3418,3.3418,3.3418,3.3418,3.3418,3.3418,3.3418,3.3418,3.3418,3.3418,3.3418,3.3418,3.3418,3.3418,3.3418,3.3418,3.3418,3.3418,3.3418,3.3418,3.3418,3.3418,3.3418,3.3418,3.3418,3.3418,3.3418,3.3516,3.3511,3.3335,3.3043,3.2715,3.2305,3.2031,3.1699,3.1699,3.1738,3.2031,3.2305,3.25,3.2676,3.2832,3.291,3.9088,3.8614,3.869,3.8198,3.7352,3.7758,3.7901,3.7715,3.8228,3.8355,3.8209,3.8082,3.7642,3.7568,3.7715,3.7862,3.7936,3.7568,3.7495,3.7329,3.6886,3.6516,3.6516,3.6442,3.6275,3.6423,3.6664,3.6812,3.7107,3.777,3.8209,3.8574,3.8574,3.8574,3.8574,3.8555,3.834,3.793,3.7402,3.6992,3.666,3.6289,3.6035,3.6035,3.6035,3.6035,3.6035,3.6035,3.6035,3.6035,3.6035,3.6035,3.6035,3.6035,3.6035,3.6035,3.6035,3.6035,3.5937,3.5723,3.5469,3.5273,3.5039,3.4785,3.4668,3.4629,3.4414,3.4043,3.3965,3.3789,3.3594,3.3418,3.3418,3.3418,3.3418,3.3418,3.3418,3.3418,3.3418,3.3418,3.3418,3.3418,3.3481,3.3481,3.3544,3.3544,3.3544,3.3544,3.3418,3.3418,3.3418,3.3418,3.3418,3.3418,3.3418,3.3418,3.3418,3.3418,3.3418,3.3613,3.3809,3.3555,3.3223,3.2871,3.2461,3.2266,3.219,3.207,3.2129,3.2441,3.2695,3.2851,3.2988,3.3144,3.3223,3.9663,3.9108,3.9046,3.8382,3.7407,3.7552,3.7642,3.7715,3.8082,3.8228,3.8228,3.8009,3.7789,3.7568,3.7568,3.7789,3.7936,3.7568,3.7568,3.7402,3.696,3.6738,3.6738,3.6664,3.6719,3.6812,3.6886,3.696,3.7255,3.7549,3.7862,3.8155,3.8501,3.8574,3.8574,3.8555,3.834,3.7949,3.7519,3.709,3.666,3.6269,3.6035,3.6035,3.6035,3.6035,3.6035,3.6035,3.6035,3.6035,3.6035,3.6035,3.6035,3.6035,3.6035,3.6035,3.6035,3.6035,3.6035,3.5859,3.5781,3.5684,3.541,3.5137,3.5098,3.4902,3.4687,3.4434,3.4238,3.4062,3.3906,3.3594,3.3418,3.3418,3.3437,3.3457,3.3418,3.3418,3.3418,3.3418,3.3418,3.3418,3.3481,3.3607,3.367,3.3733,3.367,3.367,3.3544,3.3418,3.3418,3.3418,3.3418,3.3418,3.3418,3.3418,3.3418,3.3418,3.3418,3.3633,3.3809,3.3613,3.3262,3.293,3.2695,3.2559,3.2441,3.2402,3.2539,3.2871,3.3027,3.3144,3.3301,3.3398,3.3418,3.981,3.9254,3.8977,3.8259,3.7495,3.7623,3.7715,3.7642,3.8009,3.8082,3.8009,3.8009,3.7715,3.7402,3.7568,3.7642,3.7715,3.7549,3.7495,3.7255,3.696,3.6738,3.6738,3.6738,3.6664,3.7034,3.7034,3.696,3.7329,3.7476,3.7789,3.8082,3.8355,3.8574,3.8574,3.8555,3.8418,3.8086,3.7559,3.7207,3.6816,3.6328,3.6035,3.6035,3.6035,3.6035,3.6035,3.6035,3.6035,3.6035,3.6035,3.6035,3.6035,3.6035,3.6035,3.6035,3.6035,3.6035,3.6035,3.6016,3.6016,3.5918,3.5762,3.5605,3.5488,3.5273,3.5176,3.4902,3.4648,3.4414,3.4316,3.4043,3.3789,3.3809,3.373,3.3711,3.3496,3.3418,3.3418,3.3418,3.3418,3.3418,3.3501,3.3627,3.3879,3.3879,3.367,3.367,3.367,3.3544,3.3418,3.3418,3.3418,3.3418,3.3418,3.3418,3.3418,3.3418,3.3437,3.3574,3.3652,3.3496,3.3398,3.3164,3.2969,3.2851,3.2734,3.2617,3.2891,3.3281,3.334,3.332,3.334,3.3418,3.3418,3.9258,3.9086,3.8368,3.7808,3.7549,3.8209,3.8282,3.8009,3.8355,3.8355,3.8082,3.8082,3.7642,3.7274,3.7715,3.7789,3.7642,3.7476,3.7568,3.7568,3.696,3.6664,3.659,3.659,3.6664,3.6812,3.6812,3.696,3.7329,3.7642,3.7862,3.8082,3.8282,3.8574,3.8574,3.8574,3.8574,3.8418,3.7676,3.7402,3.707,3.6484,3.6191,3.6133,3.6055,3.6035,3.6035,3.6035,3.6035,3.6035,3.6035,3.6035,3.6035,3.6035,3.6035,3.6035,3.6035,3.6035,3.6035,3.6035,3.6035,3.6035,3.5898,3.5898,3.5957,3.5879,3.5723,3.5371,3.5234,3.5039,3.4863,3.4609,3.4336,3.418,3.4082,3.3926,3.373,3.3574,3.3594,3.3633,3.3516,3.3437,3.3564,3.3709,3.4024,3.4024,3.369,3.3607,3.3733,3.367,3.3544,3.3418,3.3418,3.3418,3.3418,3.3418,3.3418,3.3418,3.3457,3.3535,3.3594,3.3535,3.3437,3.334,3.3203,3.3027,3.291,3.2812,3.3125,3.3379,3.3398,3.3398,3.3418,3.3418,3.3418,3.9199,3.916,3.8623,3.8155,3.7862,3.7789,3.7862,3.8082,3.8355,3.8501,3.8428,3.8355,3.8155,3.7862,3.7789,3.7936,3.7789,3.7789,3.7862,3.7549,3.7107,3.696,3.6812,3.6738,3.6812,3.7034,3.7034,3.6886,3.696,3.7495,3.7642,3.7715,3.8209,3.8574,3.8574,3.8555,3.8476,3.8164,3.7812,3.7578,3.7266,3.6777,3.6445,3.6426,3.6191,3.6055,3.6035,3.6035,3.6035,3.6035,3.6035,3.6035,3.6035,3.6035,3.6035,3.6035,3.6035,3.6035,3.6035,3.6035,3.6035,3.6035,3.6035,3.6035,3.6035,3.6035,3.5918,3.5781,3.5566,3.5351,3.5176,3.4824,3.459,3.4551,3.4434,3.4258,3.4062,3.3945,3.3906,3.3926,3.3867,3.4216,3.4339,3.3921,3.4077,3.4372,3.412,3.3709,3.367,3.3733,3.367,3.3481,3.3418,3.3418,3.3418,3.3418,3.3418,3.3418,3.3418,3.3457,3.3476,3.3496,3.3457,3.3359,3.3301,3.3203,3.3144,3.3105,3.3242,3.3379,3.3437,3.3535,3.3633,3.3555,3.3418,3.8984,3.8965,3.8545,3.8228,3.8009,3.7715,3.7789,3.8082,3.8448,3.8574,3.8574,3.8574,3.8355,3.8082,3.8155,3.8082,3.8009,3.8009,3.7936,3.7568,3.7402,3.7107,3.6886,3.6812,3.6886,3.7107,3.7107,3.7034,3.7107,3.7421,3.7642,3.7789,3.8009,3.8282,3.8428,3.8535,3.8476,3.8203,3.8008,3.7793,3.748,3.7129,3.6797,3.6621,3.6406,3.6191,3.6074,3.6035,3.6035,3.6035,3.6035,3.6035,3.6035,3.6035,3.6035,3.6035,3.6035,3.6035,3.6035,3.6035,3.6035,3.6035,3.6035,3.6035,3.6035,3.6035,3.6035,3.5918,3.5723,3.5644,3.5508,3.5156,3.5078,3.5039,3.4883,3.4687,3.4434,3.4316,3.4362,3.4362,3.4446,3.4772,3.5001,3.4457,3.4123,3.4338,3.4572,3.412,3.369,3.3733,3.3796,3.3544,3.3418,3.3418,3.3418,3.3418,3.3418,3.3418,3.3418,3.3418,3.3418,3.3457,3.3437,3.3418,3.3359,3.332,3.3379,3.3418,3.3437,3.3476,3.3496,3.3652,3.3828,3.3711,3.3516,3.8594,3.8574,3.8155,3.8082,3.8009,3.8009,3.8009,3.8009,3.8448,3.8574,3.8574,3.8574,3.8428,3.8155,3.8428,3.8355,3.8155,3.8082,3.8009,3.7862,3.7642,3.7255,3.696,3.6812,3.6812,3.6886,3.7034,3.7107,3.7347,3.7495,3.7715,3.7862,3.7715,3.8082,3.8375,3.8574,3.8535,3.8379,3.8203,3.8047,3.7871,3.7539,3.7207,3.6973,3.6758,3.6484,3.6309,3.6152,3.6074,3.6055,3.6035,3.6035,3.6035,3.6035,3.6035,3.6035,3.6035,3.6035,3.6035,3.6035,3.6035,3.6035,3.6035,3.6035,3.6035,3.6035,3.6035,3.6035,3.5918,3.5957,3.5918,3.5801,3.5703,3.5586,3.543,3.5156,3.4844,3.4792,3.4792,3.4858,3.4923,3.5153,3.5323,3.4961,3.4522,3.4794,3.4952,3.4595,3.4163,3.3816,3.3796,3.3481,3.3418,3.3418,3.3418,3.3418,3.3418,3.3418,3.3418,3.3418,3.3418,3.3418,3.3418,3.3418,3.3418,3.3418,3.3418,3.3476,3.3555,3.3574,3.3594,3.3711,3.3887,3.3828,3.3672,3.8574,3.8574,3.8501,3.8448,3.8448,3.8448,3.8302,3.8082,3.8428,3.8574,3.8574,3.8574,3.8501,3.8448,3.8574,3.8501,3.8428,3.8375,3.8228,3.8082,3.7862,3.7421,3.7034,3.6812,3.6664,3.659,3.6738,3.6886,3.6738,3.696,3.7402,3.7495,3.7568,3.7862,3.8155,3.8428,3.8501,3.8535,3.8379,3.834,3.8242,3.7949,3.7656,3.7461,3.7207,3.6914,3.6601,3.6445,3.6348,3.6113,3.6055,3.6035,3.6035,3.6035,3.6035,3.6035,3.6035,3.6035,3.6035,3.6035,3.6035,3.6035,3.6035,3.6035,3.6035,3.6035,3.6035,3.6035,3.6035,3.6035,3.6035,3.5976,3.5937,3.584,3.5723,3.5547,3.532,3.5355,3.5422,3.5488,3.5554,3.5567,3.5719,3.5494,3.5196,3.5381,3.5371,3.4996,3.4575,3.4226,3.3879,3.3544,3.3418,3.3418,3.3437,3.3437,3.3437,3.3418,3.3476,3.3516,3.3496,3.3496,3.3437,3.3476,3.3594,3.3516,3.3418,3.3555,3.3789,3.3691,3.3691,3.3809,3.3887,3.3848,3.373,3.8574,3.8574,3.8574,3.8574,3.8574,3.8574,3.8428,3.8282,3.8501,3.8574,3.8574,3.8574,3.8574,3.8574,3.8428,3.8428,3.8574,3.8355,3.8228,3.8355,3.8209,3.7862,3.7402,3.7034,3.6812,3.6664,3.659,3.6738,3.6516,3.659,3.696,3.7107,3.7347,3.7642,3.7862,3.8082,3.8282,3.8501,3.8555,3.8574,3.8457,3.8301,3.8144,3.791,3.7637,3.7344,3.6934,3.6816,3.6582,3.6406,3.6348,3.6133,3.6152,3.6152,3.6035,3.6035,3.6035,3.6035,3.6035,3.6035,3.6035,3.6035,3.6035,3.6035,3.6035,3.6035,3.6035,3.6035,3.6035,3.6035,3.6035,3.6035,3.6016,3.6016,3.5957,3.5947,3.5945,3.6028,3.6075,3.6122,3.6182,3.6261,3.6122,3.5858,3.5719,3.5679,3.5627,3.5386,3.4972,3.4572,3.4143,3.3733,3.3544,3.3418,3.3457,3.3574,3.3672,3.3711,3.375,3.3769,3.3672,3.373,3.3828,3.3828,3.3828,3.3809,3.3828,3.3926,3.4082,3.3965,3.3926,3.4062,3.4082,3.3945,3.3769,3.8574,3.8574,3.8574,3.8574,3.8574,3.8574,3.8574,3.8574,3.8574,3.8574,3.8574,3.8574,3.8574,3.8501,3.8302,3.8302,3.8355,3.8302,3.8282,3.8574,3.8501,3.8228,3.7862,3.7623,3.7181,3.696,3.6812,3.6886,3.6812,3.6738,3.6664,3.6738,3.659,3.696,3.7715,3.7789,3.8063,3.8501,3.8574,3.8574,3.8574,3.8496,3.8398,3.8086,3.793,3.7754,3.7324,3.707,3.6894,3.6855,3.6758,3.6445,3.6367,3.623,3.6074,3.6035,3.6035,3.6035,3.6035,3.6035,3.6035,3.6035,3.6035,3.6035,3.6035,3.6035,3.6035,3.6035,3.6035,3.6035,3.6035,3.6035,3.6035,3.6035,3.5996,3.6093,3.6217,3.6408,3.6629,3.6629,3.6629,3.6642,3.6333,3.611,3.6117,3.6,3.5917,3.5765,3.5446,3.4992,3.4604,3.4136,3.3941,3.3809,3.3711,3.3848,3.4004,3.4082,3.4082,3.4121,3.4121,3.418,3.4258,3.4238,3.4199,3.4336,3.4414,3.4414,3.4355,3.4277,3.4277,3.4375,3.4316,3.4141,3.3926,3.8574,3.8574,3.8574,3.8574,3.8574,3.8574,3.8574,3.8574,3.8574,3.8555,3.8574,3.8574,3.8555,3.8462,3.8155,3.8155,3.8355,3.8155,3.8282,3.8428,3.8574,3.8428,3.8082,3.7862,3.7421,3.7107,3.7034,3.7034,3.6738,3.6516,3.6349,3.6423,3.6423,3.7034,3.7568,3.7642,3.8082,3.8574,3.8574,3.8574,3.8574,3.8574,3.8496,3.8398,3.834,3.7969,3.7637,3.7539,3.7187,3.6894,3.7031,3.6875,3.666,3.6269,3.6074,3.6035,3.6094,3.6094,3.6074,3.6055,3.6035,3.6016,3.6016,3.6016,3.6035,3.6035,3.6035,3.6035,3.6035,3.6035,3.6035,3.6035,3.6035,3.6035,3.6016,3.6268,3.6519,3.6789,3.7079,3.7011,3.6991,3.6789,3.6499,3.6412,3.6547,3.6435,3.631,3.6162,3.593,3.5591,3.5341,3.4927,3.4589,3.4375,3.418,3.4199,3.4414,3.4453,3.4434,3.4492,3.4551,3.4512,3.4492,3.457,3.4609,3.4766,3.4785,3.4668,3.4609,3.4609,3.4687,3.4824,3.4629,3.4434,3.4199,3.8574,3.8555,3.8359,3.8281,3.8281,3.8281,3.8184,3.8047,3.8203,3.8184,3.8105,3.8359,3.8476,3.8253,3.7913,3.8009,3.8209,3.7936,3.8009,3.8228,3.8501,3.8501,3.8302,3.8082,3.7642,3.7255,3.7034,3.6886,3.659,3.659,3.6516,3.6275,3.659,3.696,3.7402,3.7789,3.8228,3.8574,3.8574,3.8647,3.8574,3.8574,3.8574,3.8574,3.8457,3.8125,3.791,3.7812,3.7617,3.7383,3.748,3.7305,3.707,3.6777,3.6641,3.6562,3.6484,3.6309,3.625,3.6133,3.6035,3.6016,3.62,3.6268,3.6268,3.6268,3.6152,3.6152,3.6016,3.6035,3.6035,3.6035,3.6035,3.6035,3.6287,3.6519,3.6856,3.7213,3.7213,3.7079,3.6944,3.6519,3.6316,3.62,3.6248,3.6296,3.6269,3.641,3.6223,3.6017,3.5785,3.56,3.5198,3.4851,3.4492,3.4629,3.4922,3.4902,3.4805,3.4922,3.5,3.4805,3.4726,3.498,3.5137,3.5176,3.5176,3.5117,3.5059,3.5059,3.5176,3.5293,3.5019,3.4785,3.4668,3.8535,3.8437,3.8027,3.7851,3.7851,3.7851,3.7656,3.7422,3.7695,3.7617,3.7383,3.8047,3.8144,3.7895,3.7502,3.7747,3.777,3.7642,3.7715,3.8082,3.8428,3.8501,3.8428,3.8209,3.777,3.7329,3.696,3.659,3.6275,3.6423,3.6442,3.6367,3.659,3.7034,3.7402,3.7789,3.8228,3.8501,3.8647,3.8647,3.8647,3.8574,3.8574,3.8574,3.8535,3.834,3.8066,3.7988,3.7969,3.7891,3.7812,3.7656,3.7441,3.7207,3.7051,3.6934,3.6699,3.6562,3.6445,3.6172,3.6074,3.6084,3.6336,3.6471,3.6471,3.6423,3.6287,3.6219,3.6103,3.6035,3.6035,3.6035,3.6035,3.6084,3.6403,3.6789,3.7213,3.7549,3.7348,3.7146,3.6809,3.6451,3.6268,3.6084,3.6084,3.6084,3.6152,3.6336,3.6412,3.6186,3.6,3.5815,3.5544,3.5223,3.4863,3.5059,3.5438,3.5293,3.5234,3.5371,3.5449,3.5312,3.5351,3.5625,3.5762,3.5692,3.5751,3.577,3.5712,3.5536,3.5547,3.5625,3.5488,3.5293,3.5293,3.8379,3.8008,3.7598,3.7422,3.7422,3.7422,3.7363,3.7324,3.7363,3.7168,3.7031,3.7285,3.7617,3.7858,3.7215,3.728,3.7789,3.7568,3.7715,3.8009,3.8428,3.8574,3.8501,3.8282,3.799,3.7402,3.6812,3.6349,3.6201,3.6275,3.6275,3.6201,3.659,3.7034,3.7402,3.7789,3.8228,3.8501,3.8793,3.8885,3.8647,3.8647,3.8574,3.8574,3.8574,3.8301,3.8125,3.8281,3.8184,3.8047,3.7949,3.7891,3.7793,3.7578,3.7383,3.7226,3.6992,3.6699,3.6504,3.6269,3.6152,3.6113,3.6386,3.6658,3.6658,3.6629,3.6542,3.6414,3.6278,3.6055,3.6055,3.6035,3.6035,3.6287,3.6539,3.7011,3.7482,3.7549,3.7415,3.7146,3.6856,3.6586,3.6384,3.62,3.6084,3.6084,3.6084,3.62,3.6219,3.6152,3.6152,3.5947,3.581,3.5605,3.5351,3.5594,3.581,3.5664,3.5673,3.5886,3.5964,3.5879,3.5976,3.618,3.618,3.6082,3.62,3.6268,3.6209,3.6051,3.5947,3.5898,3.582,3.5703,3.5605]}]]